[[{"header":{"parameterUnit":"m.s-1","parameterCategory":1,"la1":31.0,"la2":29.5877,"lo1":-88.7671,"lo2":-86.6584,"dy":0.0162,"dx":0.0185,"nx":115,"ny":88,"refTime":"2024-04-29T06:00:00:Z","depth":0,"parameterNumber":2,"parameterNumberName":"U-component_of_WINDS"},"data":[0.0,0.0,0.0,0.0,0.0,0.0,0.0,0.0,0.0,0.0,0.0,0.0,0.0,0.0,0.0,0.0,0.0,0.0,0.0,0.0,0.0,0.0,0.0,0.0,0.0,0.0,0.0,0.0,0.0,0.0,0.0,0.0,0.0,0.0,0.0,0.0,0.0,0.0,0.0,0.0,0.0,0.0,0.0,0.0,0.0,0.0,0.0,0.0,0.0,0.0,0.0,0.0,0.0,0.0,0.0,0.0,0.0,0.0,0.0,0.0,0.0,0.0,0.0,0.0,0.0,0.0,0.0,0.0,0.0,0.0,0.0,0.0,0.0,0.0,0.0,0.0,0.0,0.0,0.0,0.0,0.0,0.0,0.0,0.0,0.0,0.0,0.0,0.0,0.0,0.0,0.0,0.0,0.0,0.0,0.0,0.0,0.0,0.0,0.0,0.0,0.0,0.0,0.0,0.0,0.0,0.0,0.0,0.0,0.0,0.0,0.0,0.0,0.0,0.0,0.0,0.0,0.0,0.0,0.0,0.0,0.0,0.0,0.0,0.0,0.0,0.0,0.0,0.0,0.0,0.0,0.0,0.0,0.0,0.0,0.0,0.0,0.0,0.0,0.0,0.0,0.0,0.0,0.0,0.0,0.0,0.0,0.0,0.0,0.0,0.0,0.0,0.0,0.0,0.0,0.0,0.0,0.0,0.0,0.0,0.0,0.0,0.0,0.0,0.0,0.0,0.0,0.0,0.0,0.0,0.0,0.0,0.0,0.0,0.0,0.0,0.0,0.0,0.0,0.0,0.0,0.0,0.0,0.0,0.0,0.0,0.0,0.0,0.0,0.0,0.0,0.0,0.0,0.0,0.0,0.0,0.0,0.0,0.0,0.0,0.0,0.0,0.0,0.0,0.0,0.0,0.0,0.0,0.0,0.0,0.0,0.0,0.0,0.0,0.0,0.0,0.0,0.0,0.0,0.0,0.0,0.0,0.0,0.0,0.0,0.0,0.0,0.0,0.0,0.0,0.0,0.0,0.0,0.0,0.0,0.0,0.0,0.0,0.0,0.0,0.0,0.0,0.0,0.0,0.0,0.0,0.0,0.0,0.0,0.0,0.0,0.0,0.0,0.0,0.0,0.0,0.0,0.0,0.0,0.0,0.0,0.0,0.0,0.0,0.0,0.0,0.0,0.0,0.0,0.0,0.0,0.0,0.0,0.0,0.0,0.0,0.0,0.0,0.0,0.0,0.0,0.0,0.0,0.0,0.0,0.0,0.0,0.0,0.0,0.0,0.0,0.0,0.0,0.0,0.0,0.0,0.0,0.0,0.0,0.0,0.0,0.0,0.0,0.0,0.0,0.0,0.0,0.0,0.0,0.0,0.0,0.0,0.0,0.0,0.0,0.0,0.0,0.0,0.0,0.0,0.0,0.0,0.0,0.0,0.0,0.0,0.0,0.0,0.0,0.0,0.0,0.0,0.0,0.0,0.0,0.0,0.0,0.0,0.0,0.0,0.0,0.0,0.0,0.0,0.0,0.0,0.0,0.0,0.0,0.0,0.0,0.0,0.0,0.0,0.0,0.0,0.0,0.0,0.0,0.0,0.0,0.0,0.0,0.0,0.0,0.0,0.0,0.0,0.0,0.0,0.0,0.0,0.0,0.0,0.0,0.0,0.0,0.0,0.0,0.0,0.0,0.0,0.0,0.0,0.0,0.0,0.0,0.0,0.0,0.0,0.0,0.0,0.0,0.0,0.0,0.0,0.0,0.0,0.0,0.0,0.0,0.0,0.0,0.0,0.0,0.0,0.0,0.0,0.0,0.0,0.0,0.0,0.0,0.0,0.0,0.0,0.0,0.0,0.0,0.0,0.0,0.0,0.0,0.0,0.0,0.0,0.0,0.0,0.0,0.0,0.0,0.0,0.0,0.0,0.0,0.0,0.0,0.0,0.0,0.0,0.0,0.0,0.0,0.0,0.0,0.0,0.0,0.0,0.0,0.0,0.0,0.0,0.0,0.0,0.0,0.0,0.0,0.0,0.0,0.0,0.0,0.0,0.0,0.0,0.0,0.0,0.0,0.0,0.0,0.0,0.0,0.0,0.0,0.0,0.0,0.0,0.0,0.0,0.0,0.0,0.0,0.0,0.0,0.0,0.0,0.0,0.0,0.0,0.0,0.0,0.0,0.0,0.0,0.0,0.0,0.0,0.0,0.0,0.0,0.0,0.0,0.0,0.0,0.0,0.0,0.0,0.0,0.0,0.0,0.0,0.0,0.0,0.0,0.0,0.0,0.0,0.0,0.0,0.0,0.0,0.0,0.0,0.0,0.0,0.0,0.0,0.0,0.0,0.0,0.0,0.0,0.0,0.0,0.0,0.0,0.0,0.0,0.0,0.0,0.0,0.0,0.0,0.0,0.0,0.0,0.0,0.0,0.0,0.0,0.0,0.0,0.0,0.0,0.0,0.0,0.0,0.0,0.0,0.0,0.0,0.0,0.0,0.0,0.0,0.0,0.0,0.0,0.0,0.0,0.0,0.0,0.0,0.0,0.0,0.0,0.0,0.0,0.0,0.0,0.0,0.0,0.0,0.0,0.0,0.0,0.0,0.0,0.0,0.0,0.0,0.0,0.0,0.0,0.0,0.0,0.0,0.0,0.0,0.0,0.0,0.0,0.0,0.0,0.0,0.0,0.0,0.0,0.0,0.0,0.0,0.0,0.0,0.0,0.0,0.0,0.0,0.0,0.0,0.0,0.0,0.0,0.0,0.0,0.0,0.0,0.0,0.0,0.0,0.0,0.0,0.0,0.0,0.0,0.0,0.0,0.0,0.0,0.0,0.0,0.0,0.0,0.0,0.0,0.0,0.0,0.0,0.0,0.0,0.0,0.0,0.0,0.0,0.0,0.0,0.0,0.0,0.0,0.0,0.0,0.0,0.0,0.0,0.0,0.0,0.0,0.0,0.0,0.0,0.0,0.0,0.0,0.0,0.0,0.0,0.0,0.0,0.0,0.0,0.0,0.0,0.0,0.0,0.0,0.0,0.0,0.0,0.0,0.0,0.0,0.0,0.0,0.0,0.0,0.0,0.0,0.0,0.0,0.0,0.0,0.0,0.0,0.0,0.0,0.0,0.0,0.0,0.0,0.0,0.0,0.0,0.0,0.0,0.0,0.0,0.0,0.0,0.0,0.0,0.0,0.0,0.0,0.0,0.0,0.0,0.0,0.0,0.0,0.0,0.0,0.0,0.0,0.0,0.0,0.0,0.0,0.0,0.0,0.0,0.0,0.0,0.0,0.0,0.0,0.0,0.0,0.0,0.0,0.0,0.0,0.0,0.0,0.0,0.0,0.0,0.0,0.0,0.0,0.0,0.0,0.0,0.0,0.0,0.0,0.0,0.0,0.0,0.0,0.0,0.0,0.0,0.0,0.0,0.0,0.0,0.0,0.0,0.0,0.0,0.0,0.0,0.0,0.0,0.0,0.0,0.0,0.0,0.0,0.0,0.0,0.0,0.0,0.0,0.0,0.0,0.0,0.0,0.0,0.0,0.0,0.0,0.0,0.0,0.0,0.0,0.0,0.0,0.0,0.0,0.0,0.0,0.0,0.0,0.0,0.0,0.0,0.0,0.0,0.0,0.0,0.0,0.0,0.0,0.0,0.0,0.0,0.0,0.0,0.0,0.0,0.0,0.0,0.0,0.0,0.0,0.0,0.0,0.0,0.0,0.0,0.0,0.0,0.0,0.0,0.0,0.0,0.0,0.0,0.0,0.0,0.0,0.0,0.0,0.0,0.0,0.0,0.0,0.0,0.0,0.0,0.0,0.0,0.0,0.0,0.0,0.0,0.0,0.0,0.0,0.0,0.0,0.0,0.0,0.0,0.0,0.0,0.0,0.0,0.0,0.0,0.0,0.0,0.0,0.0,0.0,0.0,0.0,0.0,0.0,0.0,0.0,0.0,0.0,0.0,0.0,0.0,0.0,0.0,0.0,0.0,0.0,0.0,0.0,0.0,0.0,0.0,0.0,0.0,0.0,0.0,0.0,0.0,0.0,0.0,0.0,0.0,0.0,0.0,0.0,0.0,0.0,0.0,0.0,0.0,0.0,0.0,0.0,0.0,0.0,0.0,0.0,0.0,0.0,0.0,0.0,0.0,0.0,0.0,0.0,0.0,0.0,0.0,0.0,0.0,0.0,0.0,0.0,0.0,0.0,0.0,0.0,0.0,0.0,0.0,0.0,0.0,0.0,0.0,0.0,0.0,0.0,0.0,0.0,0.0,0.0,0.0,0.0,0.0,-4.8837,0.0,0.0,0.0,0.0,0.0,0.0,0.0,0.0,0.0,0.0,0.0,0.0,0.0,0.0,0.0,0.0,0.0,0.0,0.0,0.0,0.0,0.0,0.0,0.0,0.0,0.0,0.0,0.0,0.0,0.0,0.0,0.0,0.0,0.0,0.0,0.0,0.0,0.0,0.0,0.0,0.0,0.0,0.0,0.0,0.0,0.0,0.0,0.0,0.0,0.0,0.0,0.0,0.0,0.0,0.0,0.0,0.0,0.0,0.0,0.0,0.0,0.0,0.0,0.0,0.0,0.0,0.0,0.0,0.0,0.0,0.0,0.0,0.0,0.0,0.0,0.0,0.0,0.0,0.0,0.0,0.0,0.0,0.0,0.0,0.0,0.0,0.0,0.0,0.0,0.0,0.0,0.0,0.0,0.0,0.0,0.0,0.0,0.0,0.0,0.0,0.0,0.0,0.0,0.0,0.0,0.0,0.0,0.0,0.0,0.0,-5.1394,-5.1394,-5.1004,-5.0184,-4.8837,0.0,0.0,0.0,0.0,0.0,0.0,0.0,0.0,0.0,0.0,0.0,0.0,0.0,0.0,0.0,0.0,0.0,0.0,0.0,0.0,0.0,0.0,0.0,0.0,0.0,0.0,0.0,0.0,0.0,0.0,0.0,0.0,0.0,0.0,0.0,0.0,0.0,0.0,0.0,0.0,0.0,0.0,0.0,0.0,0.0,0.0,0.0,0.0,0.0,0.0,0.0,0.0,0.0,0.0,0.0,0.0,0.0,0.0,0.0,0.0,0.0,0.0,0.0,0.0,0.0,0.0,0.0,0.0,0.0,0.0,0.0,0.0,0.0,0.0,0.0,0.0,0.0,0.0,0.0,0.0,0.0,0.0,0.0,0.0,0.0,0.0,0.0,0.0,0.0,0.0,0.0,0.0,0.0,0.0,0.0,0.0,0.0,0.0,0.0,0.0,0.0,0.0,0.0,0.0,0.0,0.0,0.0,0.0,0.0,0.0,0.0,0.0,-5.1394,-5.0594,-4.8857,0.0,0.0,0.0,0.0,0.0,0.0,0.0,0.0,0.0,0.0,0.0,0.0,0.0,0.0,0.0,0.0,0.0,0.0,0.0,0.0,0.0,0.0,0.0,0.0,0.0,0.0,0.0,0.0,0.0,0.0,0.0,0.0,0.0,0.0,0.0,0.0,0.0,0.0,0.0,0.0,0.0,0.0,0.0,0.0,0.0,0.0,0.0,0.0,0.0,0.0,0.0,0.0,0.0,0.0,0.0,0.0,0.0,0.0,0.0,0.0,0.0,0.0,0.0,0.0,0.0,0.0,0.0,0.0,0.0,0.0,0.0,0.0,0.0,0.0,0.0,0.0,0.0,0.0,0.0,0.0,0.0,0.0,0.0,0.0,0.0,0.0,0.0,0.0,0.0,0.0,0.0,0.0,0.0,0.0,0.0,0.0,0.0,0.0,0.0,0.0,0.0,0.0,0.0,0.0,0.0,0.0,0.0,0.0,0.0,0.0,-5.1394,-5.1394,-5.1375,0.0,-4.8896,0.0,0.0,0.0,0.0,0.0,0.0,0.0,0.0,0.0,0.0,0.0,0.0,0.0,0.0,0.0,0.0,0.0,0.0,0.0,0.0,0.0,0.0,0.0,0.0,0.0,0.0,0.0,0.0,0.0,0.0,0.0,0.0,0.0,0.0,0.0,0.0,0.0,0.0,0.0,0.0,0.0,0.0,0.0,0.0,0.0,0.0,0.0,0.0,0.0,0.0,0.0,0.0,0.0,0.0,0.0,0.0,0.0,0.0,0.0,0.0,0.0,0.0,0.0,0.0,0.0,0.0,0.0,0.0,0.0,0.0,0.0,0.0,0.0,0.0,0.0,0.0,0.0,0.0,0.0,0.0,0.0,0.0,0.0,0.0,0.0,0.0,0.0,0.0,0.0,0.0,0.0,0.0,0.0,0.0,0.0,0.0,0.0,0.0,0.0,0.0,0.0,0.0,0.0,0.0,0.0,0.0,0.0,0.0,0.0,0.0,-5.1394,-5.1394,-5.0399,-4.954,0.0,0.0,0.0,0.0,0.0,0.0,0.0,0.0,0.0,0.0,0.0,0.0,0.0,0.0,0.0,0.0,0.0,0.0,0.0,0.0,0.0,0.0,0.0,0.0,0.0,0.0,0.0,0.0,0.0,0.0,0.0,0.0,0.0,0.0,0.0,0.0,0.0,0.0,0.0,0.0,0.0,0.0,0.0,0.0,0.0,0.0,0.0,0.0,0.0,0.0,0.0,0.0,0.0,0.0,0.0,0.0,0.0,0.0,0.0,0.0,0.0,0.0,0.0,0.0,0.0,0.0,0.0,0.0,0.0,0.0,0.0,0.0,0.0,0.0,0.0,0.0,0.0,0.0,0.0,0.0,0.0,0.0,0.0,0.0,0.0,0.0,0.0,0.0,0.0,0.0,0.0,0.0,0.0,0.0,0.0,0.0,0.0,0.0,0.0,0.0,0.0,0.0,0.0,0.0,0.0,0.0,0.0,0.0,0.0,0.0,-5.1394,-5.1394,-5.1336,-4.995,-4.9032,-4.8818,0.0,0.0,0.0,0.0,0.0,0.0,0.0,0.0,0.0,0.0,0.0,0.0,0.0,0.0,0.0,0.0,0.0,0.0,0.0,0.0,0.0,0.0,0.0,0.0,0.0,0.0,0.0,0.0,0.0,0.0,0.0,0.0,0.0,0.0,0.0,0.0,0.0,0.0,0.0,0.0,0.0,0.0,0.0,0.0,0.0,0.0,0.0,0.0,0.0,0.0,0.0,0.0,0.0,0.0,0.0,0.0,0.0,0.0,0.0,0.0,0.0,0.0,0.0,0.0,0.0,0.0,0.0,0.0,0.0,0.0,0.0,0.0,0.0,0.0,0.0,0.0,0.0,0.0,0.0,0.0,0.0,0.0,0.0,0.0,0.0,0.0,0.0,0.0,0.0,0.0,0.0,0.0,0.0,0.0,0.0,0.0,0.0,0.0,0.0,0.0,0.0,0.0,0.0,0.0,0.0,0.0,0.0,0.0,-5.1394,-5.1394,-5.1394,-5.1394,-5.0514,-4.9655,0.0,0.0,0.0,0.0,0.0,0.0,0.0,0.0,0.0,0.0,0.0,0.0,0.0,0.0,0.0,0.0,0.0,0.0,0.0,0.0,0.0,0.0,0.0,0.0,0.0,0.0,0.0,0.0,0.0,0.0,0.0,0.0,0.0,0.0,0.0,0.0,0.0,0.0,0.0,0.0,0.0,0.0,0.0,0.0,0.0,0.0,0.0,0.0,0.0,0.0,0.0,0.0,0.0,0.0,0.0,0.0,0.0,0.0,0.0,0.0,0.0,0.0,0.0,0.0,0.0,0.0,0.0,0.0,0.0,0.0,0.0,0.0,0.0,0.0,0.0,0.0,0.0,0.0,0.0,0.0,0.0,0.0,0.0,0.0,0.0,0.0,0.0,0.0,0.0,0.0,0.0,0.0,0.0,0.0,0.0,0.0,0.0,0.0,0.0,0.0,0.0,0.0,0.0,0.0,0.0,0.0,0.0,0.0,0.0,-5.1394,-5.1394,-5.1394,-5.1355,-5.0028,-4.9111,0.0,0.0,0.0,0.0,0.0,0.0,0.0,0.0,0.0,0.0,0.0,0.0,0.0,0.0,0.0,0.0,0.0,0.0,0.0,0.0,0.0,0.0,0.0,0.0,0.0,0.0,0.0,0.0,0.0,0.0,0.0,0.0,0.0,0.0,0.0,0.0,0.0,0.0,0.0,0.0,0.0,0.0,0.0,0.0,0.0,0.0,0.0,0.0,0.0,0.0,0.0,0.0,0.0,0.0,0.0,0.0,0.0,0.0,0.0,0.0,0.0,0.0,0.0,0.0,0.0,0.0,0.0,0.0,0.0,0.0,0.0,0.0,0.0,0.0,0.0,0.0,0.0,0.0,0.0,0.0,0.0,0.0,0.0,0.0,0.0,0.0,0.0,0.0,0.0,0.0,0.0,0.0,0.0,0.0,0.0,0.0,0.0,0.0,0.0,0.0,0.0,0.0,0.0,0.0,0.0,0.0,0.0,0.0,0.0,-5.1394,0.0,-5.1394,-5.1355,-4.9989,-4.9091,0.0,0.0,0.0,0.0,0.0,0.0,0.0,0.0,0.0,0.0,0.0,0.0,0.0,0.0,0.0,0.0,0.0,0.0,0.0,0.0,0.0,0.0,0.0,0.0,0.0,0.0,0.0,0.0,0.0,0.0,0.0,0.0,0.0,0.0,0.0,0.0,0.0,0.0,0.0,0.0,0.0,0.0,0.0,0.0,0.0,0.0,0.0,0.0,0.0,0.0,0.0,0.0,0.0,0.0,0.0,0.0,0.0,0.0,0.0,0.0,0.0,0.0,0.0,0.0,0.0,0.0,0.0,0.0,0.0,0.0,0.0,0.0,0.0,0.0,0.0,0.0,0.0,0.0,0.0,0.0,0.0,0.0,0.0,0.0,0.0,0.0,0.0,0.0,0.0,0.0,0.0,0.0,0.0,0.0,0.0,0.0,0.0,0.0,0.0,0.0,0.0,0.0,0.0,0.0,0.0,0.0,0.0,0.0,-5.1389,-5.1392,-5.1394,-5.1394,-5.1375,-5.0514,-4.9675,0.0,0.0,0.0,0.0,0.0,0.0,0.0,0.0,0.0,0.0,0.0,0.0,0.0,0.0,0.0,0.0,0.0,0.0,0.0,0.0,0.0,0.0,0.0,0.0,0.0,0.0,0.0,0.0,0.0,0.0,0.0,0.0,0.0,0.0,0.0,0.0,0.0,0.0,0.0,0.0,0.0,0.0,0.0,0.0,0.0,0.0,0.0,0.0,0.0,0.0,0.0,0.0,0.0,0.0,0.0,0.0,0.0,0.0,0.0,0.0,0.0,0.0,0.0,0.0,0.0,0.0,0.0,0.0,0.0,0.0,0.0,0.0,0.0,0.0,0.0,0.0,0.0,0.0,0.0,0.0,0.0,0.0,0.0,0.0,0.0,0.0,0.0,0.0,0.0,0.0,0.0,0.0,0.0,0.0,0.0,0.0,0.0,0.0,0.0,0.0,0.0,0.0,0.0,0.0,0.0,0.0,0.0,0.0,0.0,-5.1394,-5.1394,-5.1394,-5.1375,-5.0553,-4.9694,0.0,0.0,0.0,0.0,0.0,0.0,0.0,0.0,0.0,0.0,0.0,0.0,0.0,0.0,0.0,0.0,0.0,0.0,0.0,0.0,0.0,0.0,0.0,0.0,0.0,0.0,0.0,0.0,0.0,0.0,0.0,0.0,0.0,0.0,0.0,0.0,0.0,0.0,0.0,0.0,0.0,0.0,0.0,0.0,0.0,0.0,0.0,0.0,0.0,0.0,0.0,0.0,0.0,0.0,0.0,0.0,0.0,0.0,0.0,0.0,0.0,0.0,0.0,0.0,0.0,0.0,0.0,0.0,0.0,0.0,0.0,0.0,0.0,0.0,0.0,0.0,0.0,0.0,0.0,0.0,0.0,0.0,0.0,0.0,0.0,0.0,0.0,0.0,0.0,0.0,0.0,0.0,0.0,0.0,0.0,0.0,0.0,0.0,0.0,0.0,0.0,0.0,0.0,0.0,0.0,0.0,0.0,0.0,0.0,-5.1863,-5.157,-5.1394,-5.1394,-5.0867,-5.0165,-4.9306,0.0,0.0,0.0,0.0,0.0,0.0,0.0,0.0,0.0,0.0,0.0,0.0,0.0,0.0,0.0,0.0,0.0,0.0,0.0,0.0,0.0,0.0,0.0,0.0,0.0,0.0,0.0,0.0,0.0,0.0,0.0,0.0,0.0,0.0,0.0,0.0,0.0,0.0,0.0,0.0,0.0,0.0,0.0,0.0,0.0,0.0,0.0,0.0,0.0,0.0,0.0,0.0,0.0,0.0,0.0,0.0,0.0,0.0,0.0,0.0,0.0,0.0,0.0,0.0,0.0,0.0,0.0,0.0,0.0,0.0,0.0,0.0,0.0,0.0,0.0,0.0,0.0,0.0,0.0,0.0,0.0,0.0,0.0,0.0,0.0,0.0,0.0,0.0,0.0,0.0,0.0,0.0,0.0,0.0,0.0,0.0,0.0,0.0,0.0,0.0,0.0,0.0,0.0,0.0,0.0,0.0,0.0,0.0,-5.2702,-5.1941,-5.1531,-5.1492,-5.1472,-5.1043,0.0,0.0,0.0,0.0,0.0,0.0,0.0,0.0,0.0,0.0,0.0,0.0,0.0,0.0,0.0,0.0,0.0,0.0,0.0,0.0,0.0,0.0,0.0,0.0,0.0,0.0,0.0,0.0,0.0,0.0,0.0,0.0,0.0,0.0,0.0,0.0,0.0,0.0,0.0,0.0,0.0,0.0,0.0,0.0,0.0,0.0,0.0,0.0,0.0,0.0,0.0,0.0,0.0,0.0,0.0,0.0,0.0,0.0,0.0,0.0,0.0,0.0,0.0,0.0,0.0,0.0,0.0,0.0,0.0,0.0,0.0,0.0,0.0,0.0,0.0,0.0,0.0,0.0,0.0,0.0,0.0,0.0,0.0,0.0,0.0,0.0,0.0,0.0,0.0,0.0,0.0,0.0,0.0,0.0,0.0,0.0,0.0,0.0,0.0,0.0,0.0,0.0,0.0,0.0,0.0,0.0,0.0,0.0,0.0,-5.2708,-5.3108,-5.3014,-5.2392,-5.2351,-5.1648,0.0,0.0,0.0,0.0,0.0,0.0,0.0,0.0,0.0,0.0,0.0,0.0,0.0,0.0,0.0,0.0,0.0,0.0,0.0,0.0,0.0,0.0,0.0,0.0,0.0,0.0,0.0,0.0,0.0,0.0,0.0,0.0,0.0,0.0,0.0,0.0,0.0,0.0,0.0,0.0,0.0,0.0,0.0,0.0,0.0,0.0,0.0,0.0,0.0,0.0,0.0,0.0,0.0,0.0,0.0,0.0,0.0,0.0,0.0,0.0,0.0,0.0,0.0,0.0,0.0,0.0,0.0,0.0,0.0,0.0,0.0,0.0,0.0,0.0,0.0,0.0,0.0,0.0,0.0,0.0,0.0,0.0,0.0,0.0,0.0,0.0,0.0,0.0,0.0,0.0,0.0,0.0,0.0,0.0,0.0,0.0,0.0,0.0,0.0,0.0,0.0,0.0,0.0,0.0,0.0,0.0,0.0,0.0,-5.2835,-5.3117,-5.4052,-5.4303,-5.3797,-5.3075,-5.2234,0.0,0.0,0.0,0.0,0.0,0.0,0.0,0.0,0.0,0.0,0.0,0.0,0.0,0.0,0.0,0.0,0.0,0.0,0.0,0.0,0.0,0.0,0.0,0.0,0.0,0.0,0.0,0.0,0.0,0.0,0.0,0.0,0.0,0.0,0.0,0.0,0.0,0.0,0.0,0.0,0.0,0.0,0.0,0.0,0.0,0.0,0.0,0.0,0.0,0.0,0.0,0.0,0.0,0.0,0.0,0.0,0.0,0.0,0.0,0.0,0.0,0.0,0.0,0.0,0.0,0.0,0.0,0.0,0.0,0.0,0.0,0.0,0.0,0.0,0.0,0.0,0.0,0.0,0.0,0.0,0.0,0.0,0.0,0.0,0.0,0.0,0.0,0.0,0.0,0.0,0.0,0.0,0.0,0.0,0.0,0.0,0.0,0.0,0.0,0.0,0.0,0.0,0.0,0.0,0.0,0.0,0.0,0.0,-5.3091,-5.3691,-5.4836,-5.5435,-5.5396,-5.3737,-5.2802,0.0,0.0,0.0,0.0,0.0,0.0,0.0,0.0,0.0,0.0,0.0,0.0,0.0,0.0,0.0,0.0,0.0,0.0,0.0,0.0,0.0,0.0,0.0,0.0,0.0,0.0,0.0,0.0,0.0,0.0,0.0,0.0,0.0,0.0,0.0,0.0,0.0,0.0,0.0,0.0,0.0,0.0,0.0,0.0,0.0,0.0,0.0,0.0,0.0,0.0,0.0,0.0,0.0,0.0,0.0,0.0,0.0,0.0,0.0,0.0,0.0,0.0,0.0,0.0,0.0,0.0,0.0,0.0,0.0,0.0,0.0,0.0,0.0,0.0,0.0,0.0,0.0,0.0,0.0,0.0,0.0,0.0,0.0,0.0,0.0,0.0,0.0,0.0,0.0,0.0,0.0,0.0,0.0,0.0,0.0,0.0,0.0,0.0,0.0,0.0,0.0,0.0,0.0,0.0,0.0,0.0,0.0,0.0,-5.355,-5.3721,-5.5415,-5.6313,-5.6333,-5.4635,-5.3405,0.0,0.0,0.0,0.0,0.0,0.0,0.0,0.0,0.0,0.0,0.0,0.0,0.0,0.0,0.0,0.0,0.0,0.0,0.0,0.0,0.0,0.0,0.0,0.0,0.0,0.0,0.0,0.0,0.0,0.0,0.0,0.0,0.0,0.0,0.0,0.0,0.0,0.0,0.0,0.0,0.0,0.0,0.0,0.0,0.0,0.0,0.0,0.0,-5.1394,0.0,0.0,0.0,0.0,0.0,0.0,0.0,0.0,0.0,0.0,0.0,0.0,0.0,0.0,0.0,0.0,0.0,0.0,0.0,0.0,0.0,0.0,0.0,0.0,0.0,0.0,0.0,0.0,0.0,0.0,0.0,0.0,0.0,0.0,0.0,0.0,0.0,0.0,0.0,0.0,0.0,0.0,0.0,0.0,0.0,0.0,0.0,0.0,0.0,0.0,0.0,0.0,0.0,0.0,0.0,0.0,0.0,0.0,0.0,-5.3759,-5.4192,-5.566,-5.6514,-5.6526,-5.4908,-5.3795,0.0,0.0,0.0,0.0,0.0,0.0,0.0,0.0,0.0,0.0,0.0,0.0,0.0,0.0,0.0,0.0,0.0,0.0,0.0,0.0,0.0,0.0,0.0,0.0,0.0,0.0,0.0,0.0,0.0,0.0,0.0,0.0,0.0,0.0,0.0,0.0,0.0,0.0,0.0,0.0,0.0,0.0,0.0,0.0,0.0,0.0,0.0,0.0,0.0,0.0,0.0,0.0,0.0,0.0,0.0,0.0,0.0,0.0,0.0,0.0,0.0,0.0,0.0,0.0,0.0,0.0,0.0,0.0,0.0,0.0,0.0,0.0,0.0,0.0,0.0,0.0,0.0,0.0,0.0,0.0,0.0,0.0,0.0,0.0,0.0,0.0,0.0,0.0,0.0,0.0,0.0,0.0,0.0,0.0,0.0,0.0,0.0,0.0,0.0,0.0,0.0,0.0,0.0,0.0,0.0,0.0,0.0,-5.2759,-5.3797,-5.4672,-5.573,-5.6387,-5.6514,-5.4884,-5.399,-5.3951,0.0,0.0,0.0,0.0,0.0,0.0,0.0,0.0,0.0,0.0,0.0,0.0,0.0,0.0,0.0,0.0,0.0,0.0,0.0,0.0,0.0,0.0,0.0,0.0,0.0,0.0,0.0,0.0,0.0,0.0,0.0,0.0,0.0,0.0,0.0,0.0,0.0,0.0,-5.0302,-5.0348,0.0,0.0,0.0,0.0,0.0,0.0,0.0,0.0,-5.1369,0.0,0.0,0.0,0.0,0.0,0.0,0.0,0.0,0.0,0.0,0.0,0.0,0.0,0.0,0.0,0.0,0.0,0.0,0.0,0.0,0.0,0.0,0.0,0.0,0.0,0.0,0.0,0.0,0.0,0.0,0.0,0.0,0.0,0.0,0.0,0.0,0.0,0.0,0.0,0.0,0.0,0.0,0.0,0.0,0.0,0.0,0.0,0.0,0.0,0.0,0.0,0.0,0.0,0.0,0.0,0.0,-5.1601,-5.2666,-5.3653,-5.4541,-5.5687,-5.6331,-5.6313,-5.4825,-5.399,-5.3893,0.0,0.0,0.0,0.0,0.0,0.0,0.0,0.0,0.0,0.0,0.0,0.0,0.0,0.0,0.0,0.0,0.0,0.0,0.0,0.0,0.0,0.0,0.0,0.0,0.0,0.0,0.0,0.0,0.0,0.0,0.0,0.0,0.0,0.0,0.0,0.0,0.0,0.0,0.0,-5.0348,-5.0424,0.0,0.0,0.0,0.0,0.0,0.0,0.0,0.0,-5.1262,0.0,0.0,0.0,0.0,0.0,0.0,0.0,0.0,0.0,0.0,0.0,0.0,0.0,0.0,0.0,0.0,0.0,0.0,0.0,0.0,0.0,0.0,0.0,0.0,0.0,0.0,0.0,0.0,0.0,0.0,0.0,0.0,0.0,0.0,0.0,0.0,0.0,0.0,0.0,0.0,0.0,0.0,0.0,0.0,0.0,0.0,0.0,0.0,0.0,0.0,0.0,0.0,0.0,0.0,0.0,-5.2186,-5.2743,-5.3692,-5.5075,-5.5672,-5.6077,-5.6251,-5.4741,-5.3922,0.0,0.0,0.0,0.0,0.0,0.0,0.0,0.0,0.0,0.0,0.0,0.0,0.0,0.0,0.0,0.0,0.0,0.0,0.0,0.0,0.0,0.0,0.0,0.0,0.0,0.0,0.0,0.0,0.0,0.0,0.0,0.0,0.0,0.0,0.0,0.0,0.0,0.0,0.0,0.0,-5.1013,-5.1189,-5.1626,0.0,0.0,0.0,0.0,0.0,0.0,-5.262,-5.2403,0.0,0.0,0.0,0.0,0.0,0.0,0.0,0.0,0.0,0.0,0.0,0.0,0.0,0.0,0.0,0.0,0.0,0.0,0.0,0.0,0.0,0.0,0.0,0.0,0.0,0.0,0.0,0.0,0.0,0.0,0.0,0.0,0.0,0.0,0.0,0.0,0.0,0.0,0.0,0.0,0.0,0.0,0.0,0.0,0.0,0.0,0.0,0.0,0.0,0.0,0.0,0.0,0.0,0.0,0.0,-5.2728,-5.2829,-5.3725,-5.5541,-5.5663,-5.5844,-5.6152,-5.4582,-5.3775,0.0,0.0,0.0,0.0,0.0,0.0,0.0,0.0,0.0,0.0,0.0,0.0,0.0,0.0,0.0,0.0,0.0,0.0,0.0,0.0,0.0,0.0,0.0,0.0,0.0,0.0,0.0,0.0,0.0,0.0,0.0,0.0,0.0,0.0,0.0,0.0,0.0,0.0,0.0,0.0,0.0,-5.1919,-5.275,-5.2877,0.0,0.0,0.0,0.0,-5.3849,-5.3782,0.0,0.0,0.0,0.0,0.0,0.0,0.0,0.0,0.0,0.0,0.0,0.0,0.0,0.0,0.0,0.0,0.0,0.0,0.0,0.0,0.0,0.0,0.0,0.0,0.0,0.0,0.0,0.0,0.0,0.0,0.0,0.0,0.0,0.0,0.0,0.0,0.0,0.0,0.0,0.0,0.0,0.0,0.0,0.0,0.0,0.0,0.0,0.0,0.0,0.0,0.0,0.0,0.0,0.0,0.0,0.0,-5.274,-5.2846,-5.3716,-5.5341,-5.56,-5.5721,-5.5757,-5.4262,-5.3539,0.0,0.0,0.0,0.0,0.0,0.0,0.0,0.0,0.0,0.0,0.0,0.0,0.0,0.0,0.0,0.0,0.0,0.0,0.0,0.0,0.0,0.0,0.0,0.0,0.0,0.0,0.0,0.0,0.0,0.0,0.0,0.0,0.0,0.0,0.0,0.0,0.0,0.0,0.0,0.0,0.0,-5.1888,-5.2702,-5.2798,-5.2897,0.0,0.0,-5.3128,-5.3664,-5.3623,0.0,0.0,0.0,0.0,0.0,0.0,0.0,0.0,0.0,0.0,0.0,0.0,0.0,0.0,0.0,0.0,0.0,0.0,0.0,0.0,0.0,0.0,0.0,0.0,0.0,0.0,0.0,0.0,0.0,0.0,0.0,0.0,0.0,0.0,0.0,0.0,0.0,0.0,0.0,0.0,0.0,0.0,0.0,0.0,0.0,0.0,0.0,0.0,0.0,0.0,0.0,0.0,0.0,0.0,0.0,-5.1123,-5.2728,-5.2822,-5.3675,-5.5326,-5.5489,-5.5577,-5.5682,-5.4136,-5.3348,0.0,0.0,0.0,0.0,0.0,0.0,0.0,0.0,0.0,0.0,0.0,0.0,0.0,0.0,0.0,0.0,0.0,0.0,0.0,0.0,0.0,0.0,0.0,0.0,0.0,0.0,0.0,0.0,0.0,0.0,0.0,0.0,0.0,0.0,0.0,0.0,0.0,0.0,0.0,0.0,0.0,0.0,-5.4104,-5.4295,0.0,0.0,0.0,-5.446,-5.4873,0.0,0.0,0.0,0.0,0.0,0.0,0.0,0.0,0.0,0.0,0.0,0.0,0.0,0.0,0.0,0.0,0.0,0.0,0.0,0.0,0.0,0.0,0.0,0.0,0.0,0.0,0.0,0.0,0.0,0.0,0.0,0.0,0.0,0.0,0.0,0.0,0.0,0.0,0.0,0.0,0.0,0.0,0.0,0.0,0.0,0.0,0.0,0.0,0.0,0.0,0.0,0.0,0.0,0.0,0.0,0.0,0.0,-5.2505,-5.2628,-5.3505,-5.5183,-5.5358,-5.5468,-5.5585,-5.3982,0.0,0.0,0.0,0.0,0.0,0.0,0.0,0.0,0.0,0.0,0.0,0.0,0.0,0.0,0.0,0.0,0.0,0.0,0.0,0.0,0.0,0.0,0.0,0.0,0.0,0.0,0.0,-4.5851,0.0,0.0,0.0,0.0,0.0,0.0,0.0,0.0,0.0,0.0,0.0,0.0,0.0,0.0,-5.3435,-5.511,-5.5371,-5.5428,0.0,0.0,-5.5519,-5.5777,-5.5812,-5.5343,0.0,0.0,0.0,0.0,0.0,0.0,0.0,0.0,0.0,0.0,0.0,0.0,0.0,0.0,0.0,0.0,0.0,0.0,0.0,0.0,0.0,0.0,0.0,0.0,0.0,0.0,0.0,0.0,0.0,0.0,0.0,0.0,0.0,0.0,0.0,0.0,0.0,0.0,0.0,0.0,0.0,0.0,0.0,0.0,0.0,0.0,0.0,0.0,0.0,0.0,0.0,0.0,0.0,0.0,0.0,-5.1769,-5.217,-5.3163,-5.4779,-5.52,-5.5396,-5.539,-5.372,-5.2924,0.0,0.0,0.0,0.0,0.0,0.0,0.0,0.0,0.0,0.0,0.0,0.0,0.0,0.0,0.0,0.0,0.0,0.0,0.0,0.0,0.0,0.0,0.0,0.0,0.0,0.0,0.0,0.0,0.0,0.0,0.0,0.0,0.0,0.0,0.0,0.0,0.0,0.0,0.0,0.0,0.0,-5.3384,-5.5,-5.5326,-5.5403,0.0,0.0,-5.5465,-5.5596,-5.5619,-5.5142,-5.3818,0.0,0.0,0.0,0.0,0.0,0.0,0.0,0.0,0.0,0.0,0.0,0.0,0.0,0.0,0.0,0.0,0.0,0.0,0.0,0.0,0.0,0.0,0.0,0.0,0.0,0.0,0.0,0.0,0.0,0.0,0.0,0.0,0.0,0.0,0.0,0.0,0.0,0.0,0.0,0.0,0.0,0.0,0.0,0.0,0.0,0.0,0.0,0.0,0.0,0.0,0.0,0.0,0.0,-4.9317,-5.1745,-5.1927,-5.2892,-5.4716,-5.4962,-5.514,-5.539,-5.4237,-5.3401,0.0,0.0,0.0,0.0,0.0,0.0,0.0,0.0,0.0,0.0,0.0,0.0,0.0,0.0,0.0,0.0,0.0,0.0,0.0,0.0,0.0,0.0,0.0,0.0,0.0,0.0,0.0,0.0,-4.7339,-4.8003,-4.8513,0.0,0.0,0.0,0.0,0.0,0.0,0.0,0.0,0.0,0.0,-5.327,-5.492,-5.5222,0.0,0.0,-5.5358,-5.5409,-5.5463,-5.5546,-5.5094,-5.365,-5.3514,0.0,0.0,0.0,0.0,0.0,0.0,0.0,0.0,0.0,0.0,0.0,0.0,0.0,0.0,0.0,0.0,0.0,0.0,0.0,0.0,0.0,0.0,0.0,0.0,0.0,0.0,0.0,0.0,0.0,0.0,0.0,0.0,0.0,0.0,0.0,0.0,0.0,0.0,0.0,0.0,0.0,0.0,0.0,0.0,0.0,0.0,0.0,0.0,0.0,0.0,0.0,0.0,-4.8791,-5.1463,-5.1583,-5.2573,-5.4439,-5.4588,-5.478,-5.5019,-5.4354,-5.3537,0.0,0.0,0.0,0.0,0.0,0.0,0.0,0.0,0.0,0.0,0.0,0.0,0.0,0.0,0.0,0.0,0.0,0.0,0.0,0.0,0.0,0.0,0.0,0.0,0.0,0.0,0.0,0.0,-4.746,-4.7657,-4.7431,0.0,0.0,0.0,0.0,0.0,0.0,0.0,0.0,0.0,0.0,-5.3361,-5.4843,-5.5149,-5.5216,-5.5216,-5.5326,-5.539,-5.539,-5.5476,-5.5094,-5.3802,0.0,0.0,0.0,0.0,0.0,0.0,0.0,0.0,0.0,0.0,0.0,0.0,0.0,0.0,0.0,0.0,0.0,0.0,0.0,0.0,0.0,0.0,0.0,0.0,0.0,0.0,0.0,0.0,0.0,0.0,-4.799,0.0,0.0,0.0,0.0,0.0,0.0,0.0,0.0,0.0,0.0,0.0,0.0,0.0,0.0,0.0,0.0,0.0,0.0,0.0,0.0,0.0,0.0,-4.7591,-5.0769,-5.1157,-5.2085,-5.3683,-5.4105,-5.4315,-5.4311,-5.3864,-5.3215,-5.2324,0.0,0.0,0.0,0.0,0.0,0.0,0.0,0.0,0.0,0.0,0.0,0.0,0.0,0.0,0.0,0.0,0.0,0.0,0.0,0.0,0.0,0.0,0.0,0.0,0.0,0.0,-4.7636,-4.7732,-4.7085,0.0,0.0,0.0,0.0,0.0,0.0,0.0,0.0,0.0,0.0,-5.2693,-5.369,-5.4819,-5.5107,-5.5203,-5.5203,-5.5313,-5.539,-5.539,-5.5384,-5.5147,0.0,0.0,0.0,0.0,0.0,0.0,0.0,0.0,0.0,0.0,0.0,0.0,0.0,0.0,0.0,0.0,0.0,0.0,0.0,0.0,0.0,0.0,0.0,0.0,0.0,0.0,0.0,-4.8661,-4.859,0.0,0.0,0.0,0.0,0.0,0.0,0.0,0.0,0.0,0.0,0.0,-4.8253,-4.827,0.0,0.0,0.0,0.0,0.0,0.0,0.0,0.0,0.0,0.0,0.0,0.0,-4.7914,-5.0394,-5.0648,-5.1604,-5.3451,-5.3663,-5.3888,-5.4173,-5.4117,-5.3408,-5.2015,0.0,0.0,0.0,0.0,0.0,0.0,0.0,0.0,0.0,0.0,0.0,0.0,0.0,0.0,0.0,0.0,0.0,0.0,0.0,0.0,0.0,0.0,0.0,0.0,0.0,-4.6727,0.0,0.0,0.0,0.0,0.0,0.0,0.0,0.0,0.0,0.0,0.0,-4.9747,-5.0605,-5.168,-5.2698,-5.3623,-5.4499,-5.5066,0.0,0.0,0.0,0.0,0.0,0.0,0.0,0.0,0.0,0.0,0.0,0.0,0.0,0.0,-5.2601,-5.2946,-5.303,-5.3034,-5.3015,0.0,0.0,0.0,0.0,0.0,0.0,0.0,0.0,0.0,0.0,0.0,0.0,0.0,0.0,-4.8776,0.0,-4.796,0.0,0.0,0.0,0.0,0.0,0.0,0.0,0.0,-4.8264,-4.8311,-4.839,-4.8408,-4.8579,0.0,-4.8681,-4.7877,0.0,0.0,0.0,0.0,0.0,0.0,0.0,0.0,-4.8088,-5.0268,-5.0396,-5.1292,-5.3088,-5.3226,-5.339,-5.3645,-5.3572,-5.3099,-5.2134,-5.0207,-4.8918,0.0,0.0,0.0,0.0,0.0,0.0,0.0,0.0,0.0,0.0,0.0,0.0,0.0,0.0,0.0,0.0,0.0,0.0,0.0,0.0,0.0,0.0,0.0,-4.6495,0.0,0.0,0.0,0.0,0.0,0.0,0.0,0.0,0.0,-4.8641,-4.9103,-4.964,-5.025,-5.1471,-5.2615,-5.3397,0.0,0.0,0.0,0.0,0.0,0.0,0.0,-5.5006,-5.4517,-5.4484,-5.4388,-5.3962,-5.3916,-5.3927,-5.3986,0.0,0.0,-5.3689,-5.3694,-5.3764,-5.3764,-5.3842,-5.3903,-5.3866,-5.3899,-5.3981,0.0,0.0,0.0,0.0,0.0,0.0,0.0,0.0,-4.9862,-4.9537,0.0,-4.8732,0.0,0.0,0.0,0.0,0.0,-4.8056,0.0,0.0,-4.8417,-4.8417,-4.8417,-4.8435,-4.8426,-4.8461,-4.8916,-4.888,-4.8353,-4.7341,0.0,0.0,0.0,0.0,0.0,0.0,-4.8008,-5.0262,-5.0375,-5.1161,-5.271,-5.2806,-5.2806,-5.2828,-5.2387,-5.2324,-5.2545,-5.0328,-4.8969,-4.8876,-4.6675,0.0,0.0,0.0,0.0,0.0,0.0,0.0,0.0,0.0,0.0,0.0,0.0,0.0,0.0,0.0,0.0,0.0,0.0,0.0,0.0,-4.6128,0.0,0.0,0.0,0.0,0.0,0.0,0.0,0.0,0.0,0.0,-4.8467,-4.9625,-5.0597,-5.0674,0.0,0.0,0.0,0.0,-5.4509,-5.4908,-5.5023,-5.508,-5.508,-5.5094,-5.5094,-5.5075,0.0,0.0,-5.5375,-5.5423,-5.5474,-5.57,-5.5721,-5.522,-5.3629,-5.363,-5.3726,-5.3714,-5.4008,-5.4047,-5.4007,-5.4304,-5.4451,-5.2967,0.0,0.0,0.0,0.0,-5.0782,-5.0839,-5.0884,-5.068,-5.0318,-4.9876,-4.9159,0.0,0.0,0.0,0.0,0.0,0.0,-4.8478,-4.8602,-4.8619,-4.8689,-4.8834,-4.8834,-4.905,-4.9472,-4.9055,-4.8966,-4.9153,-4.8349,-4.7541,-4.6797,0.0,0.0,0.0,0.0,-4.8264,-4.9536,-4.9987,-5.0961,-5.2577,-5.2627,-5.2698,-5.2783,-5.2678,-5.2386,-5.1944,-5.1208,-5.0288,-4.9151,-4.7902,0.0,0.0,0.0,0.0,0.0,0.0,0.0,0.0,0.0,0.0,0.0,0.0,0.0,0.0,0.0,0.0,0.0,0.0,0.0,-4.6344,-4.6667,-4.6633,0.0,0.0,0.0,0.0,0.0,0.0,0.0,0.0,0.0,-4.9519,-4.994,-5.0249,0.0,0.0,-5.2318,-5.256,-5.3349,-5.4033,-5.443,-5.4495,0.0,-5.4912,-5.5,-5.5014,-5.4956,-5.4941,-5.516,-5.585,-5.5945,-5.6164,-5.6758,-5.6891,-5.6739,-5.6295,-5.6022,-5.5913,-5.5979,-5.6467,-5.6958,-5.694,-5.6958,-5.6986,-5.2802,-5.1902,-5.1677,-5.1413,-5.1162,-5.1129,-5.1045,-5.0892,-5.0892,-5.0689,-5.0332,-4.9862,-4.9121,-4.8093,-4.7708,0.0,0.0,0.0,-4.8627,-4.8724,-4.88,-4.8877,-4.8984,-4.9018,-4.9199,-4.9538,-4.928,-4.9211,-4.9307,-4.8784,-4.8085,-4.7146,0.0,0.0,-4.5916,-4.6744,-4.7768,-4.8897,-4.95,-5.0559,-5.2084,-5.2421,-5.2581,-5.2667,-5.2686,-5.2431,-5.1981,-5.1344,-5.0544,-4.9598,-4.8177,-4.6733,0.0,0.0,0.0,0.0,0.0,0.0,0.0,0.0,0.0,0.0,0.0,-4.1979,-4.1703,0.0,0.0,0.0,-4.3692,-4.4953,-4.646,-4.6306,0.0,0.0,0.0,0.0,0.0,0.0,0.0,-4.8016,-4.8973,-4.9776,-5.0331,-5.0697,-5.0814,-5.0597,-5.1479,-5.2191,-5.2362,0.0,-5.3605,-5.3997,-5.4051,-5.4192,-5.4616,-5.4975,-5.534,-5.5815,-5.5887,-5.5906,-5.6114,-5.6209,-5.6266,-5.636,-5.6398,-5.6398,-5.6417,-5.6488,-5.6652,-5.6728,-5.6962,-5.7186,-5.7184,-5.7185,-5.7206,-5.2449,-5.2013,-5.2534,-5.2398,-5.1848,-5.1848,-5.1463,-5.0861,-5.0861,-5.0827,-5.081,-5.076,-4.9991,-4.8636,-4.7981,0.0,-4.7697,-4.8541,-4.8921,-4.8854,-4.901,-4.9021,-4.897,-4.8987,-4.897,-4.9001,-4.9555,-4.9555,-4.9012,-4.8871,-4.8408,-4.7651,-4.7317,-4.6798,-4.6077,-4.6091,-4.6846,-4.8329,-4.8919,-5.0013,-5.1565,-5.2132,-5.2389,-5.2389,-5.2335,-5.2299,-5.2263,-5.0909,-5.0053,-4.9864,-4.7817,-4.5984,-4.4624,0.0,0.0,0.0,0.0,0.0,0.0,0.0,0.0,0.0,0.0,0.0,0.0,0.0,0.0,0.0,-4.4001,0.0,-4.5954,-4.5352,0.0,0.0,0.0,-4.5022,-4.5793,-4.6926,-4.7933,-4.8788,0.0,0.0,-5.0987,-5.1634,-5.1904,-5.1438,-5.2004,-5.2622,-5.299,-5.3014,-5.3182,-5.3587,-5.3719,-5.3907,-5.4382,-5.5028,-5.5785,-5.68,-5.7236,-5.6815,-5.6323,-5.6209,-5.5868,-5.5451,-5.5129,-5.5185,-5.5129,-5.586,-5.6238,-5.6454,-5.6207,-5.5891,-5.5975,-5.6019,-5.6109,-5.1101,-5.1216,-5.1432,-5.1813,-5.225,-5.225,-5.2221,-5.2142,-5.2142,-5.1929,-5.153,-5.153,-5.1045,-5.0174,-5.0007,-4.989,-4.994,-5.014,-4.9938,-4.9419,-4.9434,-4.9228,-4.8849,-4.8832,-4.8894,-4.9001,-4.9138,-4.9155,-4.9001,-4.8968,-4.8553,-4.7823,-4.7203,-4.6419,-4.5563,-4.5918,-4.6669,-4.779,-4.8346,-4.9581,-5.153,-5.1591,-5.1574,-5.1574,-5.0995,-5.0669,-5.0669,-5.0329,-4.9627,-4.8634,-4.8038,-4.6577,-4.413,-4.3847,0.0,0.0,0.0,0.0,0.0,0.0,0.0,0.0,0.0,-4.105,-4.1254,0.0,-4.1989,0.0,-4.4114,-4.49,-4.5442,-4.5312,0.0,0.0,-4.6259,-4.6771,-4.7311,-4.8135,-4.9103,-5.0232,-5.0593,-5.1012,-5.1742,-5.1879,-5.1933,-5.1904,-5.2161,-5.241,-5.2599,-5.2645,-5.2806,-5.3196,-5.3741,-5.4291,-5.4669,-5.5172,-5.5592,-5.5902,-5.5718,-5.564,-5.6133,-5.6209,-5.6304,-5.6683,-5.6796,-5.6796,-5.6702,-5.6512,-5.6201,-5.6291,-5.664,-5.6987,-5.6963,-5.6968,-5.6949,-5.0104,-5.0303,-5.0373,-5.071,-5.129,-5.2053,-5.2445,-5.2516,-5.2499,-5.2337,-5.2042,-5.1743,-5.1176,-5.0493,-5.0126,-4.9826,-4.9526,-4.9559,-4.9374,-4.8974,-4.9071,-4.8949,-4.8658,-4.8658,-4.8721,-4.8767,-4.8784,-4.8815,-4.8925,-4.8925,-4.8585,-4.7872,-4.7175,-4.635,-4.5518,-4.5474,-4.6042,-4.7216,-4.8446,-4.9748,-5.1112,-5.0784,-5.0659,-5.0867,-4.993,-4.9518,-4.9744,-4.9177,-4.8508,-4.7777,-4.7399,-4.6246,-4.4119,-4.3676,-4.2746,0.0,0.0,0.0,0.0,0.0,0.0,0.0,0.0,0.0,0.0,0.0,-4.2675,-4.3842,-4.4361,-4.4692,-4.4845,-4.4855,-4.5083,-4.5669,-4.6289,-4.6908,-4.7474,-4.8639,-4.9639,-5.0332,-5.0865,-5.1332,-5.186,-5.184,-5.1858,-5.2005,-5.2096,-5.2168,-5.2311,-5.2382,-5.2503,-5.2735,-5.317,-5.3771,-5.4513,-5.4967,-5.5361,-5.5715,-5.5615,-5.5548,-5.5623,-5.5777,-5.5932,-5.6007,-5.6157,-5.6285,-5.6266,-5.5962,-5.564,-5.5678,-5.5962,-5.6266,-5.6285,-5.6304,-5.6285,-4.9202,-4.9239,-4.9351,-4.9497,-4.9765,-5.138,-5.2053,-5.2069,-5.2178,-5.2178,-5.2056,-5.1624,-5.098,-5.0165,-4.9606,-4.8995,-4.8282,-4.838,-4.8412,-4.8345,-4.8506,-4.8552,-4.8435,-4.8452,-4.85,-4.8483,-4.8483,-4.8578,-4.8738,-4.8769,-4.8512,-4.7977,-4.728,-4.6587,-4.5974,-4.5275,-4.55,-4.6815,-4.8757,-5.0009,-5.0572,-4.9828,-4.965,-5.008,-4.8872,-4.8413,-4.8829,-4.7759,-4.7116,-4.7023,-4.6368,-4.5418,-4.4174,-4.3485,-4.2612,0.0,-4.073,0.0,0.0,0.0,0.0,0.0,0.0,0.0,0.0,-4.3132,-4.3893,-4.4654,-4.4694,-4.4654,-4.455,-4.4567,-4.4778,-4.5286,-4.5826,-4.6442,-4.7204,-4.8695,-4.975,-4.9802,-5.0828,-5.1589,-5.1589,-5.164,-5.1758,-5.1858,-5.1882,-5.1932,-5.2029,-5.2174,-5.2287,-5.2287,-5.2472,-5.318,-5.4133,-5.458,-5.4994,-5.5682,-5.567,-5.5558,-5.4779,-5.4951,-5.4999,-5.4453,-5.463,-5.4833,-5.4807,-5.4894,-5.4939,-5.4977,-5.5015,-5.5034,-5.5034,-5.5053,-5.4901,-4.816,-4.7776,-4.8466,-4.8805,-4.8913,-4.986,-5.029,-5.0329,-5.1027,-5.0935,-5.0406,-5.1634,-5.1408,-5.0127,-5.062,-5.0469,-4.9806,-4.9823,-4.9492,-4.8945,-4.8962,-4.8729,-4.8276,-4.826,-4.8324,-4.8483,-4.8483,-4.8515,-4.8547,-4.8547,-4.8591,-4.8613,-4.7841,-4.7447,-4.7449,0.0,0.0,0.0,-4.826,-4.9355,-4.9987,-4.9107,-4.8678,-4.8745,-4.7325,0.0,-4.6685,-4.6446,-4.6127,-4.5719,-4.5529,0.0,0.0,0.0,0.0,0.0,0.0,0.0,0.0,0.0,0.0,0.0,-4.1105,-4.1707,-4.3063,-4.391,-4.4615,-4.518,-4.5264,-4.5459,-4.5868,-4.5905,-4.5955,-4.6093,-4.6733,-4.7332,-4.7886,-4.8736,-4.9428,-4.9768,-5.049,-5.0964,-5.0991,-5.1393,-5.169,-5.1665,-5.1715,-5.174,-5.1765,-5.1963,-5.215,-5.2186,-5.2642,-5.3411,-5.432,-5.4209,-5.4085,-5.429,-5.4057,-5.3833,-5.3667,-5.3673,-5.3791,-5.3645,-5.3978,-5.4294,-5.438,-5.468,-5.4837,-5.4901,-5.4886,-5.4901,-5.4901,-5.4901,-5.4901,-4.7623,0.0,-4.7779,-4.7976,0.0,-4.8831,-4.8767,-4.8147,-4.9773,-5.0461,-5.0477,-5.0935,-5.0503,-4.9519,-4.9913,-4.9534,-4.8553,-4.8926,-4.8928,-4.8564,-4.8564,-4.8398,-4.8115,-4.8115,-4.8147,-4.8244,-4.8276,-4.8292,-4.8356,-4.8356,-4.8452,-4.8627,-4.7934,-4.7656,-4.7717,-4.7022,-4.6883,-4.7344,-4.8384,-4.9078,-4.9381,-4.8249,-4.7716,-4.7952,-4.6273,0.0,0.0,0.0,0.0,0.0,0.0,0.0,0.0,-4.3639,0.0,-4.2406,-4.1977,-4.1483,-4.0769,-4.1004,-4.1137,-4.1019,-4.1356,-4.1861,-4.2654,-4.3388,-4.3934,-4.4187,-4.4517,-4.4958,-4.5527,-4.5608,-4.5868,-4.65,-4.6928,-4.7387,-4.7975,-4.8635,-4.9144,-4.9351,-4.9925,-5.031,-5.0328,-5.056,-5.075,-5.0777,-5.1052,-5.1245,-5.1297,-5.1672,-5.2029,-5.2078,-5.2408,-5.2839,-5.3187,-5.3177,-5.3005,-5.2961,-5.2831,-5.2729,-5.2714,-5.2874,-5.3025,-5.3109,-5.3452,-5.374,-5.3869,-5.4068,-5.4277,-5.4533,-5.4616,-5.4698,-5.4856,-5.4901,-5.4901,-4.7309,-4.7309,-4.7309,-4.7309,-4.7337,-4.8061,-4.7657,-4.6601,0.0,0.0,0.0,-4.9931,-4.934,-4.8586,-4.8659,-4.7906,-4.6705,-4.7421,-4.777,-4.7787,-4.7919,-4.8001,-4.8001,-4.7853,-4.7853,-4.8001,-4.7853,-4.7919,-4.8179,-4.8179,-4.8276,-4.8401,-4.7975,-4.7735,-4.7715,-4.7144,-4.7252,-4.7997,-4.85,-4.8785,-4.8765,-4.7496,-4.6952,-4.7264,-4.5501,-4.4731,-4.5108,-4.4714,-4.4514,-4.4514,-4.4559,-4.4542,-4.4525,-4.3805,-4.3143,-4.2589,-4.1853,-4.1069,-4.0255,-4.0735,-4.0976,-4.0721,-4.1227,-4.1722,-4.2125,-4.2685,-4.3099,-4.329,-4.3799,-4.4435,-4.5179,-4.5261,-4.5734,-4.6959,-4.7106,-4.7338,-4.7917,-4.8418,-4.8731,-4.879,-4.9278,-4.9646,-4.9629,-4.9792,-4.9804,-4.9861,-5.0293,-5.0622,-5.0749,-5.1349,-5.1907,-5.198,-5.2077,-5.2065,-5.2047,-5.2083,-5.2029,-5.2089,-5.2071,-5.2029,-5.2084,-5.2297,-5.2513,-5.2558,-5.2895,-5.3191,-5.3333,-5.3452,-5.3607,-5.4033,-5.4174,-5.4296,-5.4613,-5.4773,-5.4837,-4.7309,-4.7309,-4.7309,-4.7309,-4.7294,-4.7424,-4.7379,-4.7216,-4.7681,-4.7548,-4.7088,-4.8972,-4.8694,-4.692,-4.7583,-4.7141,-4.5929,-4.662,-4.6965,-4.6999,-4.7671,-4.8001,-4.7968,-4.7287,-4.7354,-4.7919,-4.7287,-4.7337,-4.7951,-4.805,-4.8082,-4.8211,-4.816,-4.8189,-4.8348,-4.8279,-4.8279,-4.8411,-4.7984,-4.7885,-4.8024,-4.7225,-4.6527,-4.597,-4.4924,-4.4367,-4.4435,-4.4253,-4.4155,-4.4155,-4.4298,-4.4338,-4.4338,-4.3668,-4.3277,-4.3141,-4.2371,-4.1614,-4.0896,-4.0957,-4.0683,-3.9939,-3.9783,-4.0624,-4.2648,-4.2941,-4.3416,-4.4411,-4.4545,-4.5192,-4.6322,-4.6421,-4.6776,-4.7655,-4.7835,-4.7901,-4.8001,-4.8082,-4.8163,-4.8195,-4.8637,-4.9036,-4.905,-4.9423,-4.9688,-4.9792,-4.9821,-4.9965,-5.0163,-5.0955,-5.1647,-5.174,-5.174,-5.1765,-5.179,-5.1765,-5.1765,-5.174,-5.1765,-5.179,-5.179,-5.1871,-5.1951,-5.2011,-5.2353,-5.2634,-5.2787,-5.3109,-5.3274,-5.3453,-5.3645,-5.3869,-5.3978,-5.433,-5.468,-4.7309,-4.7309,-4.7309,-4.7309,-4.7279,-4.6935,-4.677,-4.6741,-4.6849,-4.7145,-4.7578,-4.8201,-4.7738,-4.6628,-4.6905,-4.6313,-4.5073,-4.5861,-4.6182,-4.6253,-4.7015,-4.7354,-4.7287,-4.6965,-4.6999,-4.7303,-4.655,-4.6569,-4.727,-4.6947,-4.6965,-4.7422,-4.7522,-4.7688,-4.7869,-4.8162,-4.8162,-4.7836,-4.8005,-4.8138,-4.82,-4.7494,-4.677,-4.603,-4.5232,-4.4586,-4.4212,-4.4126,-4.4097,-4.4097,-4.3752,-4.3588,-4.3588,-4.2953,-4.2443,-4.2094,-4.1706,-4.1111,-4.0339,-4.0181,-3.995,-3.9589,-3.9445,-3.9988,-4.1472,-4.1944,-4.2525,-4.3424,-4.3787,-4.4403,-4.5452,-4.5917,-4.6515,-4.7253,-4.7704,-4.8001,-4.8001,-4.8001,-4.8001,-4.8033,-4.8227,-4.8418,-4.8418,-4.8654,-4.8824,-4.8855,-4.9067,-4.9411,-4.9734,-5.0248,-5.0822,-5.1167,-5.147,-5.1665,-5.169,-5.169,-5.169,-5.169,-5.169,-5.169,-5.169,-5.169,-5.1715,-5.1765,-5.1957,-5.2084,-5.225,-5.2394,-5.263,-5.2962,-5.3067,-5.3252,-5.3511,-5.3869,-5.4294,-4.7309,-4.7309,-4.7309,-4.7309,-4.7264,-4.6756,-4.6546,-4.6546,-4.6561,-4.7184,-4.8126,-4.7581,-4.7003,-4.6528,-4.6299,-4.5581,-4.4642,-4.5136,-4.5442,-4.5515,-4.6218,-4.655,-4.6534,-4.6394,-4.6394,-4.6429,-4.5789,-4.5825,-4.6429,-4.6147,-4.6218,-4.6742,-4.6793,-4.6846,-4.6934,-4.7405,-4.7456,-4.7239,-4.7803,-4.8093,-4.7981,-4.7445,-4.6726,-4.5822,-4.5193,-4.4658,-4.4089,-4.401,-4.3923,-4.3743,-4.3259,-4.2876,-4.2706,-4.2077,-4.1494,-4.0992,-4.0737,-4.0339,-3.9717,-3.9496,-3.9388,-3.9388,-3.9388,-3.9694,-4.0352,-4.101,-4.1692,-4.2336,-4.3004,-4.3654,-4.4472,-4.5058,-4.5789,-4.6689,-4.7337,-4.7787,-4.7968,-4.8001,-4.8001,-4.8001,-4.8001,-4.8033,-4.8001,-4.8001,-4.8066,-4.8147,-4.8418,-4.8869,-4.9308,-4.947,-4.9838,-5.031,-5.0999,-5.1521,-5.164,-5.169,-5.169,-5.169,-5.169,-5.169,-5.169,-5.169,-5.169,-5.1715,-5.1715,-5.1772,-5.1858,-5.1864,-5.2048,-5.2394,-5.254,-5.2744,-5.3171,-5.353,-5.3979,-4.7309,-4.7309,-4.7309,-4.7309,-4.7294,-4.7234,-4.7189,-4.7189,-4.7204,-4.7278,-4.7467,-4.7337,-4.6933,-4.6271,-4.571,-4.5019,-4.4324,-4.4519,-4.4624,-4.4699,-4.5442,-4.5805,-4.5717,-4.511,-4.511,-4.5624,-4.4999,-4.5036,-4.5805,-4.6324,-4.6708,-4.6708,-4.6147,-4.5841,-4.5861,-4.5933,-4.6253,-4.6811,-4.6931,-4.6799,-4.6497,-4.6424,-4.5721,-4.4348,-4.4136,-4.3994,-4.3927,-4.3763,-4.3355,-4.282,-4.2771,-4.252,-4.1869,-4.1164,-4.0777,-4.069,-3.999,-3.9496,-3.9409,-3.9409,-3.9388,-3.9388,-3.9388,-3.9679,-4.0322,-4.1018,-4.1692,-4.2306,-4.294,-4.3615,-4.4373,-4.4586,-4.5243,-4.6413,-4.6793,-4.7186,-4.7754,-4.8001,-4.8001,-4.8001,-4.7968,-4.8001,-4.8001,-4.8001,-4.8001,-4.8001,-4.8082,-4.8227,-4.8371,-4.8731,-4.9036,-4.9308,-5.0085,-5.0991,-5.1426,-5.1708,-5.1615,-5.164,-5.169,-5.169,-5.169,-5.169,-5.169,-5.169,-5.169,-5.1715,-5.1715,-5.1715,-5.174,-5.1902,-5.2132,-5.2381,-5.2898,-5.3269,-5.372,-4.7309,-4.7309,-4.7309,-4.7309,-4.7309,-4.7309,-4.7309,-4.7309,-4.7309,-4.7309,-4.7249,-4.6905,-4.6352,-4.5708,-4.5409,-4.4721,-4.3733,-4.375,-4.3786,-4.3834,-4.4639,-4.4999,-4.4962,-4.4662,-4.4699,-4.4887,-4.4182,-4.422,-4.4924,-4.53,-4.5447,-4.541,-4.5147,-4.4999,-4.5036,-4.5478,-4.5624,-4.5483,-4.5891,-4.5879,-4.5486,-4.6195,-4.5965,-4.462,-4.4424,-4.4132,-4.3724,-4.3265,-4.2881,-4.2554,-4.1868,-4.1311,-4.101,-4.0309,-3.992,-3.9935,-3.961,-3.9388,-3.9388,-3.9388,-3.9388,-3.9388,-3.9388,-3.9544,-3.9813,-4.0412,-4.107,-4.1773,-4.2731,-4.3488,-4.381,-4.422,-4.4759,-4.5374,-4.5861,-4.6288,-4.6601,-4.7032,-4.7303,-4.7303,-4.7704,-4.8001,-4.8001,-4.8001,-4.8001,-4.8001,-4.7984,-4.7934,-4.8,-4.8227,-4.8513,-4.8869,-4.9398,-4.9867,-5.0505,-5.0964,-5.1114,-5.1219,-5.1487,-5.1708,-5.1665,-5.169,-5.169,-5.169,-5.169,-5.169,-5.169,-5.169,-5.169,-5.174,-5.1747,-5.2036,-5.245,-5.2652,-5.2953,-4.7309,-4.7309,-4.7309,-4.7309,-4.7309,-4.7309,-4.7309,-4.7309,-4.7309,-4.7204,-4.6995,-4.6531,-4.5828,-4.511,-4.502,-4.4481,-4.3618,-4.3379,-4.3305,-4.3369,-4.3927,-4.4182,-4.4182,-4.4182,-4.4182,-4.4082,-4.3591,-4.3732,-4.4396,-4.4259,-4.4297,-4.4434,-4.4297,-4.4182,-4.422,-4.4759,-4.4887,-4.46,-4.4934,-4.4829,-4.4505,-4.5245,-4.5208,-4.4231,-4.413,-4.3774,-4.3068,-4.2554,-4.2221,-4.1997,-4.1042,-4.0409,-4.0181,-3.9696,-3.9388,-3.9388,-3.9388,-3.9388,-3.9388,-3.9388,-3.9388,-3.9388,-3.9388,-3.9388,-3.9493,-4.0023,-4.0666,-4.1354,-4.2252,-4.2836,-4.3354,-4.381,-4.422,-4.4488,-4.5073,-4.5442,-4.5733,-4.6218,-4.6569,-4.6811,-4.7303,-4.7787,-4.7886,-4.7819,-4.7636,-4.7653,-4.7487,-4.7388,-4.7438,-4.7536,-4.7862,-4.8306,-4.85,-4.9023,-4.9646,-5.0181,-5.0495,-5.0595,-5.0893,-5.1149,-5.1393,-5.1444,-5.1615,-5.1571,-5.164,-5.169,-5.169,-5.169,-5.169,-5.169,-5.1715,-5.1772,-5.2054,-5.2132,-5.232,-4.7309,-4.7309,-4.7309,-4.7309,-4.7309,-4.7309,-4.7309,-4.7309,-4.7309,-4.6965,-4.6414,-4.6264,-4.5547,-4.4381,-4.4336,-4.4332,-4.4112,-4.3544,-4.3305,-4.329,-4.3369,-4.3369,-4.3369,-4.3369,-4.3369,-4.3448,-4.3369,-4.3708,-4.4373,-4.3747,-4.3732,-4.4412,-4.3786,-4.3409,-4.3448,-4.3512,-4.381,-4.4335,-4.3936,-4.3614,-4.3576,-4.3115,-4.2877,-4.27,-4.2713,-4.2429,-4.1754,-4.1591,-4.126,-4.065,-4.0512,-4.0181,-3.9553,-3.9424,-3.9388,-3.9388,-3.9388,-3.9388,-3.9388,-3.9388,-3.9388,-3.9388,-3.9388,-3.9388,-3.9418,-3.9948,-4.0576,-4.1309,-4.1429,-4.1983,-4.2985,-4.3154,-4.3566,-4.4182,-4.4395,-4.4778,-4.5473,-4.5466,-4.606,-4.647,-4.6714,-4.7139,-4.7803,-4.7371,-4.7007,-4.6825,-4.6378,-4.6013,-4.6195,-4.6576,-4.6955,-4.7236,-4.7712,-4.845,-4.9499,-4.9792,-4.9821,-4.9936,-5.0067,-5.0192,-5.055,-5.0901,-5.1167,-5.1426,-5.1495,-5.1571,-5.1665,-5.169,-5.169,-5.169,-5.169,-5.179,-5.1846,-5.203,-5.2173,-4.7309,-4.7309,-4.7309,-4.7309,-4.7309,-4.7309,-4.7309,-4.7309,-4.7309,-4.6849,-4.6122,-4.5662,-4.4879,-4.3879,-4.3464,-4.3392,-4.3618,-4.326,-4.317,-4.3305,-4.3305,-4.3305,-4.3305,-4.3305,-4.3305,-4.3305,-4.3305,-4.3448,-4.3669,-4.3409,-4.3448,-4.3669,-4.3472,-4.3305,-4.3305,-4.3305,-4.3448,-4.3611,-4.3113,-4.2798,-4.276,-4.2202,-4.1696,-4.1341,-4.1689,-4.1787,-4.1492,-4.1109,-4.0737,-4.0512,-4.0056,-3.9681,-3.946,-3.9388,-3.9388,-3.9388,-3.9388,-3.9388,-3.9388,-3.9388,-3.9388,-3.9388,-3.9388,-3.9388,-3.9418,-3.9627,-4.0053,-4.0591,-4.0756,-4.1175,-4.1818,-4.2087,-4.2203,-4.244,-4.2531,-4.2713,-4.3028,-4.3698,-4.4403,-4.475,-4.5461,-4.6417,-4.6864,-4.6659,-4.6212,-4.6162,-4.5947,-4.5765,-4.5798,-4.6046,-4.6311,-4.6775,-4.7123,-4.7599,-4.8482,-4.9006,-4.9231,-4.9381,-4.9529,-4.9775,-5.0124,-5.017,-5.0377,-5.0893,-5.1096,-5.1297,-5.1349,-5.1665,-5.1665,-5.169,-5.169,-5.169,-5.169,-5.1878,-5.1902,-4.7309,-4.7309,-4.7309,-4.7309,-4.7309,-4.7309,-4.7251,-4.7134,-4.6983,-4.6377,-4.5552,-4.4872,-4.4137,-4.3393,-4.2854,-4.2769,-4.305,-4.297,-4.2955,-4.3105,-4.309,-4.309,-4.309,-4.309,-4.3105,-4.313,-4.317,-4.3195,-4.321,-4.329,-4.3305,-4.3305,-4.3305,-4.3305,-4.3305,-4.3305,-4.3305,-4.3169,-4.2508,-4.2071,-4.1977,-4.1225,-4.0615,-4.0285,-4.0566,-4.0839,-4.0839,-4.0374,-4.0161,-4.0091,-3.9646,-3.9388,-3.9388,-3.9388,-3.9388,-3.9388,-3.9388,-3.9388,-3.9388,-3.9388,-3.9388,-3.9388,-3.9388,-3.9388,-3.9388,-3.9388,-3.9717,-4.0187,-4.0172,-4.0352,-4.0831,-4.0876,-4.092,-4.1265,-4.1422,-4.1422,-4.1452,-4.2251,-4.286,-4.3376,-4.4535,-4.5568,-4.6011,-4.5722,-4.5485,-4.5433,-4.5268,-4.5086,-4.5086,-4.5334,-4.5549,-4.6113,-4.6626,-4.7057,-4.7697,-4.8197,-4.8522,-4.8697,-4.8838,-4.9188,-4.9499,-4.9499,-4.9734,-5.0254,-5.0605,-5.0839,-5.1149,-5.1495,-5.164,-5.1665,-5.169,-5.169,-5.169,-5.169,-5.1747,-4.7294,-4.7309,-4.7309,-4.7251,-4.7266,-4.7266,-4.7106,-4.6768,-4.6248,-4.5511,-4.459,-4.4012,-4.341,-4.274,-4.2503,-4.25,-4.2648,-4.2703,-4.2703,-4.2769,-4.2729,-4.2729,-4.2729,-4.2769,-4.2769,-4.2769,-4.2915,-4.2981,-4.2996,-4.317,-4.325,-4.3305,-4.3305,-4.325,-4.3305,-4.3305,-4.329,-4.3035,-4.2164,-4.1505,-4.1272,-4.0289,-3.9649,-3.9496,-3.9553,-3.9589,-3.9517,-3.9481,-3.9481,-3.9496,-3.946,-3.9388,-3.9388,-3.9388,-3.9388,-3.9388,-3.9388,-3.9388,-3.9352,-3.9316,-3.9228,-3.9141,-3.9301,-3.9265,-3.9228,-3.9352,-3.9627,-3.9906,-3.9785,-3.9702,-4.0062,-3.986,-3.9971,-4.107,-4.1183,-4.113,-4.1272,-4.1377,-4.1708,-4.2546,-4.3746,-4.4657,-4.4756,-4.4651,-4.4552,-4.445,-4.418,-4.3896,-4.3979,-4.436,-4.4638,-4.5019,-4.5684,-4.6429,-4.6925,-4.7453,-4.7735,-4.8016,-4.8178,-4.8403,-4.8762,-4.89,-4.9188,-4.9634,-5.0067,-5.0293,-5.0587,-5.0929,-5.1297,-5.1375,-5.1495,-5.1615,-5.169,-5.169,-5.169,-4.689,-4.7236,-4.7121,-4.7019,-4.7019,-4.6902,-4.6534,-4.6032,-4.5795,-4.4973,-4.3906,-4.3556,-4.3033,-4.2427,-4.2201,-4.2242,-4.2284,-4.2269,-4.2433,-4.2648,-4.2688,-4.2688,-4.2688,-4.2688,-4.2688,-4.2688,-4.2769,-4.2795,-4.2795,-4.2835,-4.297,-4.3076,-4.3076,-4.3076,-4.3115,-4.3195,-4.325,-4.3026,-4.2453,-4.1886,-4.1369,-4.0546,-3.9903,-3.9433,-3.9388,-3.9388,-3.9388,-3.9388,-3.9388,-3.9388,-3.9388,-3.9388,-3.9388,-3.9388,-3.9388,-3.9388,-3.9388,-3.9119,-3.8664,-3.8553,-3.8337,-3.7956,-3.8211,-3.8538,-3.8664,-3.9046,-3.9172,-3.9032,-3.9025,-3.915,-3.878,-3.8892,-3.9305,-3.9941,-4.0038,-4.0061,-4.0151,-4.0442,-4.1254,-4.2201,-4.2509,-4.2695,-4.3127,-4.325,-4.3273,-4.335,-4.3413,-4.3539,-4.3618,-4.3677,-4.4117,-4.4624,-4.5222,-4.5606,-4.6068,-4.6464,-4.681,-4.7289,-4.7587,-4.7951,-4.8242,-4.845,-4.8731,-4.9006,-4.944,-4.9792,-5.005,-5.0377,-5.0723,-5.0973,-5.1044,-5.1271,-5.1589,-5.169,-5.169,-4.6518,-4.6922,-4.6914,-4.6931,-4.6843,-4.6417,-4.5946,-4.5447,-4.4976,-4.4202,-4.3359,-4.3011,-4.2636,-4.2192,-4.2092,-4.2092,-4.2092,-4.2092,-4.2257,-4.2433,-4.2474,-4.2459,-4.2474,-4.2474,-4.2459,-4.25,-4.2541,-4.2566,-4.2622,-4.2648,-4.2769,-4.289,-4.2875,-4.2955,-4.2981,-4.313,-4.3155,-4.3041,-4.2647,-4.2201,-4.1692,-4.0876,-4.0202,-3.9828,-3.9544,-3.9403,-3.9388,-3.9388,-3.9388,-3.9388,-3.9388,-3.9388,-3.9388,-3.9388,-3.9388,-3.9388,-3.9352,-3.9031,-3.8315,-3.824,-3.782,-3.7204,-3.7424,-3.7706,-3.7782,-3.8211,-3.8046,-3.7782,-3.7829,-3.7942,-3.7857,-3.8046,-3.8546,-3.9119,-3.9222,-3.9177,-3.9237,-3.9519,-4.0061,-4.0761,-4.0939,-4.1128,-4.1442,-4.1874,-4.1917,-4.2046,-4.2584,-4.3019,-4.305,-4.3174,-4.3641,-4.4061,-4.4395,-4.4757,-4.5116,-4.5494,-4.5856,-4.6448,-4.7041,-4.757,-4.7998,-4.8097,-4.8307,-4.856,-4.8931,-4.9231,-4.9529,-4.9821,-5.0135,-5.0338,-5.0567,-5.0937,-5.1271,-5.1615,-5.1594,-4.6234,-4.6311,-4.6707,-4.6784,-4.6622,-4.5916,-4.536,-4.4951,-4.3957,-4.3303,-4.2845,-4.2439,-4.2136,-4.2092,-4.2092,-4.2092,-4.2092,-4.2092,-4.2092,-4.2133,-4.2133,-4.216,-4.2175,-4.2175,-4.2175,-4.2175,-4.2325,-4.2407,-4.2392,-4.2541,-4.2648,-4.2688,-4.2688,-4.2769,-4.2875,-4.2941,-4.305,-4.3056,-4.2667,-4.2408,-4.2213,-4.1197,-4.0457,-4.0368,-3.98,-3.9486,-3.9501,-3.9463,-3.9388,-3.9388,-3.9388,-3.9388,-3.9388,-3.9388,-3.9388,-3.9388,-3.9352,-3.8833,-3.8315,-3.7834,-3.7438,-3.6607,-3.666,-3.6855,-3.6855,-3.6933,-3.6841,-3.6607,-3.6501,-3.6579,-3.7088,-3.7434,-3.7866,-3.8598,-3.8833,-3.887,-3.8819,-3.8863,-3.9143,-3.9172,-3.9436,-3.9884,-4.0016,-4.0535,-4.0829,-4.1049,-4.1528,-4.1917,-4.2093,-4.2411,-4.2896,-4.3266,-4.3578,-4.3928,-4.4286,-4.4448,-4.4841,-4.5399,-4.6022,-4.6581,-4.7356,-4.757,-4.7687,-4.7978,-4.8383,-4.868,-4.8883,-4.9141,-4.944,-4.9705,-5.0067,-5.055,-5.0839,-5.1079,-5.1047,-4.5747,-4.6098,-4.6504,-4.6314,-4.5698,-4.5245,-4.4501,-4.3657,-4.3308,-4.28,-4.2382,-4.2165,-4.2092,-4.2092,-4.2092,-4.2092,-4.2092,-4.2092,-4.2092,-4.2092,-4.2092,-4.2092,-4.2092,-4.2092,-4.2092,-4.2092,-4.216,-4.2175,-4.2175,-4.2242,-4.2366,-4.2474,-4.2459,-4.2514,-4.2581,-4.2729,-4.2703,-4.2662,-4.2676,-4.2372,-4.1918,-4.1577,-4.1095,-4.0607,-4.0166,-3.9914,-3.9876,-3.9569,-3.9388,-3.9388,-3.9388,-3.9388,-3.9388,-3.9388,-3.9388,-3.9316,-3.8797,-3.8136,-3.7372,-3.6727,-3.603,-3.5264,-3.5696,-3.6016,-3.6056,-3.6385,-3.6253,-3.5895,-3.5815,-3.5775,-3.5722,-3.6478,-3.7386,-3.8225,-3.8598,-3.8745,-3.8782,-3.8782,-3.8782,-3.8819,-3.8987,-3.9096,-3.9262,-3.9662,-4.0089,-4.0228,-4.0659,-4.1182,-4.1248,-4.1642,-4.2142,-4.2427,-4.2732,-4.311,-4.3393,-4.3522,-4.3848,-4.4388,-4.4844,-4.525,-4.6054,-4.676,-4.6877,-4.7042,-4.7667,-4.804,-4.8094,-4.8242,-4.8589,-4.908,-4.9351,-4.9722,-4.9982,-5.0202,-5.007,-4.5052,-4.5639,-4.5989,-4.583,-4.5201,-4.4458,-4.3674,-4.3036,-4.2702,-4.244,-4.2136,-4.2092,-4.2092,-4.2092,-4.2092,-4.2092,-4.2092,-4.2092,-4.2092,-4.2092,-4.2092,-4.2092,-4.2092,-4.2092,-4.2092,-4.2092,-4.2092,-4.2092,-4.2092,-4.2092,-4.216,-4.2242,-4.2284,-4.2325,-4.2433,-4.2514,-4.2581,-4.2526,-4.2648,-4.2482,-4.2158,-4.1848,-4.1528,-4.1057,-4.0642,-4.029,-4.0002,-3.9691,-3.9504,-3.9442,-3.9388,-3.9388,-3.9388,-3.9388,-3.9373,-3.9265,-3.8486,-3.7653,-3.683,-3.5936,-3.5101,-3.4509,-3.4744,-3.4827,-3.4855,-3.5142,-3.4951,-3.4622,-3.4677,-3.4649,-3.4909,-3.599,-3.7169,-3.8037,-3.8427,-3.8523,-3.856,-3.8538,-3.856,-3.856,-3.8523,-3.8538,-3.856,-3.8972,-3.9118,-3.9284,-3.9753,-4.0039,-4.0282,-4.0811,-4.1262,-4.1494,-4.1625,-4.1867,-4.2157,-4.2318,-4.2686,-4.3233,-4.3744,-4.4098,-4.4991,-4.5873,-4.6172,-4.6453,-4.6963,-4.7408,-4.7523,-4.7688,-4.8081,-4.8448,-4.8652,-4.8944,-4.9261,-4.9149,-4.904,-4.432,-4.4988,-4.5413,-4.5418,-4.4966,-4.3629,-4.3007,-4.2789,-4.2353,-4.2136,-4.2092,-4.2092,-4.2092,-4.2092,-4.2092,-4.2092,-4.2092,-4.2092,-4.2092,-4.2092,-4.2092,-4.2092,-4.2092,-4.2092,-4.2092,-4.2092,-4.2092,-4.2092,-4.2092,-4.2092,-4.2092,-4.2133,-4.2133,-4.2201,-4.2325,-4.2366,-4.2474,-4.2541,-4.2541,-4.2566,-4.2364,-4.2027,-4.1762,-4.1615,-4.1082,-4.0527,-4.0109,-3.9822,-3.9683,-3.945,-3.9382,-3.9301,-3.9301,-3.9301,-3.9068,-3.8671,-3.7881,-3.6972,-3.6399,-3.5359,-3.4635,-3.4134,-3.3839,-3.3713,-3.3827,-3.3827,-3.3713,-3.367,-3.324,-3.3738,-3.4509,-3.587,-3.6922,-3.772,-3.8052,-3.8202,-3.8202,-3.8202,-3.8202,-3.8202,-3.8202,-3.8202,-3.8202,-3.8202,-3.8277,-3.8657,-3.903,-3.9196,-3.9469,-3.9964,-4.0243,-4.0416,-4.0519,-4.0554,-4.0842,-4.1093,-4.1557,-4.2075,-4.2638,-4.3182,-4.4166,-4.4947,-4.5455,-4.5881,-4.6339,-4.6799,-4.7193,-4.7424,-4.7704,-4.7968,-4.821,-4.8511,-4.8709,-4.8233,-4.7971,-4.422,-4.472,-4.5355,-4.5096,-4.4239,-4.3383,-4.2716,-4.2295,-4.2165,-4.2092,-4.2092,-4.2092,-4.2092,-4.2092,-4.2092,-4.2092,-4.2092,-4.2092,-4.2092,-4.2092,-4.2092,-4.2092,-4.2092,-4.2092,-4.2092,-4.2092,-4.2092,-4.2092,-4.2092,-4.2092,-4.2092,-4.2092,-4.2092,-4.2133,-4.2175,-4.2216,-4.2175,-4.2201,-4.2242,-4.2242,-4.2284,-4.2111,-4.1966,-4.1922,-4.1503,-4.1033,-4.0503,-4.0064,-3.9793,-3.9616,-3.9232,-3.8996,-3.887,-3.8345,-3.8032,-3.7639,-3.6529,-3.5574,-3.5224,-3.4594,-3.3953,-3.3797,-3.3725,-3.3713,-3.367,-3.3513,-3.3398,-3.3356,-3.324,-3.3496,-3.4343,-3.5291,-3.6241,-3.7,-3.7734,-3.8127,-3.8202,-3.8202,-3.8202,-3.8202,-3.8202,-3.8202,-3.8202,-3.8202,-3.8202,-3.824,-3.8315,-3.8412,-3.8767,-3.9175,-3.9356,-3.9555,-3.9733,-3.9859,-3.9999,-4.0313,-4.0808,-4.1211,-4.1673,-4.2013,-4.3009,-4.3863,-4.4317,-4.4984,-4.5718,-4.616,-4.6618,-4.7143,-4.7423,-4.7622,-4.7803,-4.7984,-4.7995,-4.7461,-4.6908,-4.3039,-4.37,-4.4225,-4.4167,-4.3613,-4.2889,-4.2397,-4.2136,-4.2092,-4.2092,-4.2092,-4.2092,-4.2092,-4.2092,-4.2092,-4.2092,-4.2092,-4.2092,-4.2092,-4.2092,-4.2092,-4.2092,-4.2092,-4.2092,-4.2092,-4.2092,-4.2092,-4.2092,-4.2092,-4.2092,-4.2092,-4.2092,-4.2092,-4.2092,-4.2092,-4.2092,-4.2092,-4.2092,-4.2092,-4.2092,-4.2092,-4.2092,-4.2092,-4.2078,-4.1811,-4.1467,-4.089,-4.0607,-4.0095,-3.9598,-3.9159,-3.8906,-3.8679,-3.7979,-3.751,-3.7112,-3.5815,-3.491,-3.4649,-3.3995,-3.3471,-3.3556,-3.3484,-3.3441,-3.3398,-3.3326,-3.3283,-3.324,-3.324,-3.3441,-3.4272,-3.4703,-3.5454,-3.6201,-3.7053,-3.7567,-3.7644,-3.7924,-3.8202,-3.8202,-3.8202,-3.8202,-3.8202,-3.8202,-3.8202,-3.8202,-3.8202,-3.8315,-3.8315,-3.8657,-3.8694,-3.8863,-3.9066,-3.9247,-3.932,-3.9626,-4.0174,-4.0554,-4.0927,-4.1095,-4.1563,-4.2346,-4.3089,-4.3897,-4.474,-4.5473,-4.5995,-4.6551,-4.7125,-4.7472,-4.7621,-4.7571,-4.7292,-4.6683,-4.6188,-4.1532,-4.2367,-4.2882,-4.307,-4.2934,-4.2368,-4.2121,-4.2092,-4.2092,-4.2092,-4.2092,-4.2092,-4.2092,-4.2092,-4.2092,-4.2092,-4.2092,-4.2092,-4.2092,-4.2092,-4.2092,-4.2092,-4.2092,-4.2092,-4.2092,-4.2092,-4.2092,-4.2092,-4.2092,-4.2092,-4.2092,-4.2092,-4.2092,-4.2092,-4.2092,-4.2092,-4.2092,-4.2092,-4.2092,-4.2092,-4.2092,-4.2092,-4.2092,-4.2078,-4.2034,-4.1828,-4.1389,-4.1029,-4.0485,-3.9281,-3.9054,-3.8735,-3.8234,-3.7677,-3.7049,-3.6724,-3.5142,-3.4441,-3.4176,-3.3641,-3.3197,-3.3368,-3.324,-3.3124,-3.3124,-3.3167,-3.3167,-3.3124,-3.3167,-3.3368,-3.4118,-3.4439,-3.4786,-3.54,-3.6201,-3.6635,-3.6844,-3.7491,-3.7886,-3.8202,-3.8202,-3.8202,-3.8202,-3.8202,-3.8202,-3.8202,-3.8202,-3.8202,-3.8202,-3.824,-3.8352,-3.8375,-3.862,-3.873,-3.8789,-3.8899,-3.9448,-3.9894,-4.0243,-4.0347,-4.0485,-4.1185,-4.2037,-4.2928,-4.3735,-4.4496,-4.526,-4.5862,-4.6484,-4.7092,-4.7337,-4.7221,-4.6681,-4.5946,-4.5473,-4.068,-4.1251,-4.2108,-4.2237,-4.1923,-4.2047,-4.2092,-4.2092,-4.2092,-4.2092,-4.2092,-4.2092,-4.2092,-4.2092,-4.2092,-4.2092,-4.2092,-4.2092,-4.2092,-4.2092,-4.2092,-4.2092,-4.2092,-4.2092,-4.2092,-4.2092,-4.2092,-4.2092,-4.2092,-4.2092,-4.2092,-4.2092,-4.2092,-4.2092,-4.2092,-4.2092,-4.2092,-4.2092,-4.2092,-4.2092,-4.2092,-4.2092,-4.2092,-4.2092,-4.2092,-4.1964,-4.1734,-4.1271,-4.0447,-3.9086,-3.8439,-3.7489,-3.6619,-3.6096,-3.5669,-3.5047,-3.4163,-3.3598,-3.3484,-3.3283,-3.3124,-3.3124,-3.3124,-3.3124,-3.3124,-3.3124,-3.3124,-3.3124,-3.3124,-3.321,-3.3338,-3.3907,-3.4356,-3.4786,-3.5278,-3.5829,-3.5989,-3.6557,-3.7414,-3.7886,-3.8052,-3.8202,-3.8202,-3.8202,-3.8202,-3.8202,-3.8202,-3.8202,-3.8202,-3.8202,-3.824,-3.824,-3.8277,-3.8315,-3.8315,-3.8412,-3.8679,-3.916,-3.952,-3.9768,-3.9964,-4.0347,-4.1047,-4.1736,-4.2634,-4.354,-4.43,-4.4996,-4.5779,-4.6351,-4.6594,-4.682,-4.6285,-4.5651,-4.4838,-3.9516,-3.9936,-4.0921,-4.1318,-4.1383,-4.1861,-4.2092,-4.2092,-4.2092,-4.2092,-4.2092,-4.2092,-4.2092,-4.2092,-4.2092,-4.2092,-4.2092,-4.2092,-4.2092,-4.2092,-4.2092,-4.2092,-4.2092,-4.2092,-4.2092,-4.2092,-4.2092,-4.2092,-4.2092,-4.2092,-4.2092,-4.2092,-4.2092,-4.2092,-4.2092,-4.2092,-4.2092,-4.2092,-4.2092,-4.2092,-4.2092,-4.2092,-4.2051,-4.2092,-4.1995,-4.1829,-4.1296,-4.1068,-4.0096,-3.8783,-3.7993,-3.6838,-3.5787,-3.507,-3.4814,-3.4301,-3.3569,-3.3124,-3.3124,-3.3124,-3.3124,-3.3124,-3.3124,-3.3124,-3.3124,-3.3124,-3.3124,-3.3124,-3.3124,-3.3124,-3.3167,-3.3539,-3.3696,-3.3894,-3.4496,-3.4896,-3.5169,-3.5762,-3.6517,-3.7414,-3.7848,-3.8052,-3.8202,-3.8202,-3.8202,-3.8202,-3.8202,-3.8202,-3.8202,-3.8202,-3.8202,-3.8202,-3.8202,-3.8202,-3.8202,-3.824,-3.8277,-3.8642,-3.8884,-3.9139,-3.9269,-3.9591,-3.9859,-4.0281,-4.1264,-4.2205,-4.3082,-4.3689,-4.4649,-4.5563,-4.5937,-4.6115,-4.5859,-4.534,-4.4577,-3.8358,-3.8634,-3.9559,-4.0103,-4.0459,-4.1184,-4.1591,-4.1758,-4.1549,-4.1689,-4.2051,-4.1897,-4.1856,-4.2051,-4.2092,-4.2092,-4.2092,-4.2092,-4.2092,-4.2092,-4.2092,-4.2092,-4.2092,-4.2092,-4.2092,-4.2092,-4.2092,-4.2092,-4.2092,-4.2092,-4.2092,-4.2092,-4.2092,-4.2092,-4.2092,-4.2092,-4.2092,-4.2092,-4.2092,-4.2092,-4.2092,-4.1912,-4.1814,-4.1731,-4.1647,-4.1043,-4.0389,-4.0247,-3.9426,-3.8274,-3.7362,-3.6458,-3.5148,-3.4445,-3.416,-3.4034,-3.3454,-3.321,-3.3124,-3.3124,-3.3124,-3.3124,-3.3124,-3.3124,-3.3124,-3.3124,-3.3124,-3.3124,-3.3124,-3.3124,-3.3124,-3.3124,-3.3154,-3.3283,-3.3738,-3.4189,-3.433,-3.4814,-3.5494,-3.6373,-3.7323,-3.7848,-3.8,-3.8202,-3.8202,-3.8202,-3.8202,-3.8202,-3.8202,-3.8202,-3.8202,-3.8202,-3.8202,-3.8202,-3.8202,-3.8202,-3.824,-3.8337,-3.8472,-3.8583,-3.8657,-3.8789,-3.903,-3.9305,-3.9529,-4.0425,-4.1391,-4.2401,-4.3307,-4.4184,-4.5082,-4.5349,-4.4965,-4.4869,-4.4447,-3.7498,-3.7387,-3.8188,-3.8376,-3.8387,-3.9254,-4.0087,-4.066,-4.0,-4.056,-4.1814,-4.1254,-4.1339,-4.1953,-4.2092,-4.2092,-4.2092,-4.2092,-4.2092,-4.2092,-4.2092,-4.2092,-4.2092,-4.2092,-4.2092,-4.2092,-4.2092,-4.2092,-4.2092,-4.2092,-4.2092,-4.2092,-4.2092,-4.2092,-4.2092,-4.2092,-4.2092,-4.2092,-4.2092,-4.2051,-4.1897,-4.1254,-4.093,-4.0617,-4.0173,-3.9651,-3.9417,-3.9316,-3.8674,-3.7382,-3.6586,-3.5574,-3.4261,-3.3543,-3.3303,-3.3253,-3.3167,-3.3124,-3.3124,-3.3124,-3.3124,-3.3124,-3.3124,-3.3124,-3.3124,-3.3124,-3.3124,-3.3124,-3.3124,-3.3124,-3.3124,-3.3124,-3.3124,-3.3124,-3.3283,-3.3411,-3.3484,-3.4008,-3.4662,-3.5264,-3.6175,-3.7169,-3.772,-3.8,-3.8202,-3.8202,-3.8202,-3.8202,-3.8202,-3.8202,-3.8202,-3.8202,-3.8202,-3.8202,-3.8202,-3.8202,-3.8202,-3.8202,-3.8202,-3.8202,-3.83,-3.8412,-3.8337,-3.8583,-3.8694,-3.9045,-4.0132,-4.1152,-4.1956,-4.2837,-4.3762,-4.4013,-4.3961,-4.3978,-4.4025,-3.7121,-3.6956,-3.7697,-3.7913,-3.7946,-3.881,-3.9417,-3.9623,-3.9431,-3.9651,-4.0417,-4.066,-4.1156,-4.1953,-4.2092,-4.2092,-4.2092,-4.2092,-4.2092,-4.2092,-4.2092,-4.2092,-4.2092,-4.2092,-4.2092,-4.2092,-4.2092,-4.2092,-4.2092,-4.2092,-4.2092,-4.2092,-4.2092,-4.2092,-4.2092,-4.2092,-4.2092,-4.2092,-4.2036,-4.18,-4.1296,-4.0788,-4.0332,-3.9812,-3.9373,-3.8899,-3.8509,-3.8419,-3.7886,-3.6759,-3.6082,-3.5366,-3.4476,-3.3859,-3.3445,-3.3124,-3.3124,-3.3124,-3.3124,-3.3124,-3.3124,-3.3124,-3.3124,-3.3124,-3.3124,-3.3124,-3.3124,-3.3124,-3.3124,-3.3124,-3.3124,-3.3124,-3.3124,-3.3124,-3.3124,-3.3124,-3.3167,-3.3326,-3.3852,-3.4426,-3.5032,-3.6016,-3.6961,-3.7553,-3.7848,-3.8052,-3.8089,-3.8127,-3.8165,-3.8202,-3.8202,-3.8202,-3.8202,-3.8202,-3.8202,-3.8202,-3.8202,-3.8202,-3.8202,-3.8202,-3.8202,-3.824,-3.8202,-3.8202,-3.8375,-3.8767,-3.9277,-3.9838,-4.0669,-4.1553,-4.249,-4.2585,-4.2703,-4.3033,-4.3066,-3.6862,-3.6756,-3.7222,-3.7453,-3.7487,-3.8192,-3.863,-3.8796,-3.8541,-3.872,-3.9285,-3.9986,-4.0901,-4.1773,-4.1856,-4.1758,-4.2092,-4.2092,-4.2092,-4.2092,-4.2092,-4.2051,-4.2036,-4.2036,-4.2051,-4.1995,-4.2092,-4.2092,-4.2092,-4.2092,-4.2092,-4.2092,-4.2092,-4.2092,-4.2092,-4.2092,-4.2092,-4.2092,-4.1773,-4.1296,-4.0703,-4.0087,-3.9461,-3.8988,-3.8585,-3.8206,-3.7579,-3.7441,-3.6977,-3.6548,-3.5873,-3.5261,-3.463,-3.4123,-3.3583,-3.3262,-3.3124,-3.3124,-3.3124,-3.3124,-3.3124,-3.3124,-3.3124,-3.3124,-3.3124,-3.3124,-3.3124,-3.3124,-3.3124,-3.3124,-3.3124,-3.3124,-3.3124,-3.3124,-3.3124,-3.3124,-3.3124,-3.3295,-3.3411,-3.381,-3.4343,-3.4786,-3.5776,-3.6766,-3.7362,-3.772,-3.7924,-3.8,-3.8089,-3.8127,-3.8202,-3.8202,-3.8202,-3.8202,-3.8202,-3.8202,-3.8202,-3.8202,-3.8202,-3.8202,-3.8202,-3.8202,-3.8202,-3.8202,-3.8202,-3.8389,-3.873,-3.9031,-3.9367,-4.0349,-4.1148,-4.1289,-4.1492,-4.1853,-4.2035,-3.6722,-3.6662,-3.6534,-3.6546,-3.6546,-3.6546,-3.7116,-3.7795,-3.7036,-3.7691,-3.8988,-3.9343,-4.0287,-4.1367,-4.1128,-4.117,-4.1995,-4.2051,-4.1953,-4.1953,-4.2092,-4.1939,-4.1841,-4.1814,-4.1814,-4.1717,-4.1717,-4.1856,-4.2092,-4.2051,-4.2051,-4.2092,-4.2051,-4.2051,-4.2092,-4.2092,-4.1953,-4.1758,-4.1282,-4.0703,-3.9956,-3.9121,-3.816,-3.7795,-3.7129,-3.6546,-3.6499,-3.6628,-3.6628,-3.6392,-3.5931,-3.537,-3.4856,-3.4336,-3.3796,-3.337,-3.3149,-3.3136,-3.3124,-3.3124,-3.3124,-3.3124,-3.3124,-3.3124,-3.3124,-3.3124,-3.3124,-3.3124,-3.3124,-3.3124,-3.3124,-3.3124,-3.3124,-3.3124,-3.3124,-3.3124,-3.3124,-3.3124,-3.324,-3.3368,-3.3683,-3.4134,-3.4371,-3.5318,-3.6346,-3.6791,-3.7376,-3.7491,-3.7886,-3.8,-3.8165,-3.8202,-3.8202,-3.8202,-3.8202,-3.8202,-3.8202,-3.8202,-3.8202,-3.8202,-3.8202,-3.8202,-3.8202,-3.8202,-3.8202,-3.8202,-3.824,-3.8553,-3.8914,-3.9354,-3.9815,-4.0115,-4.0385,-4.0731,-4.0847,-3.6628,-3.6487,-3.6465,-3.6417,-3.6417,-3.6417,-3.6593,-3.6862,-3.6593,-3.7083,-3.8373,-3.8432,-3.9091,-3.9927,-4.0057,-3.9913,-4.0417,-4.0986,-4.1071,-4.1339,-4.1521,-4.1744,-4.1563,-4.1029,-4.0717,-4.0816,-4.0944,-4.1071,-4.1156,-4.1675,-4.1535,-4.1535,-4.1675,-4.2051,-4.2092,-4.187,-4.1675,-4.1198,-4.0689,-4.0159,-3.881,-3.8328,-3.7533,-3.6909,-3.6722,-3.6405,-3.6417,-3.6417,-3.6417,-3.6355,-3.6119,-3.5705,-3.5144,-3.465,-3.411,-3.3558,-3.3282,-3.3136,-3.3124,-3.3124,-3.3124,-3.3124,-3.3124,-3.3124,-3.3124,-3.3124,-3.3124,-3.3124,-3.3124,-3.3124,-3.3124,-3.3124,-3.3124,-3.3124,-3.3124,-3.3124,-3.3124,-3.3124,-3.3124,-3.324,-3.3283,-3.3484,-3.3641,-3.3839,-3.491,-3.5829,-3.6439,-3.7053,-3.7453,-3.7848,-3.8,-3.8165,-3.8202,-3.8202,-3.8202,-3.8202,-3.8202,-3.8202,-3.8202,-3.8202,-3.8202,-3.8202,-3.8202,-3.8202,-3.8202,-3.8202,-3.8202,-3.8202,-3.8456,-3.8834,-3.901,-3.9113,-3.9388,-3.9697,-3.9824,-3.6581,-3.6499,-3.6405,-3.6417,-3.6417,-3.6417,-3.6417,-3.6417,-3.6417,-3.6909,-3.7763,-3.7579,-3.8102,-3.8854,-3.8854,-3.9077,-3.9373,-3.9812,-4.0029,-4.0159,-4.0375,-4.0646,-4.0346,-3.9986,-3.9536,-3.9738,-4.0216,-4.0418,-4.0461,-4.1198,-4.1071,-4.0845,-4.0845,-4.0958,-4.11,-4.1184,-4.0859,-4.0346,-3.9724,-3.9299,-3.7887,-3.7487,-3.7176,-3.6546,-3.6405,-3.6405,-3.6417,-3.6417,-3.6417,-3.6417,-3.6317,-3.6044,-3.5554,-3.4969,-3.4474,-3.3935,-3.3445,-3.3162,-3.3124,-3.3124,-3.3124,-3.3124,-3.3124,-3.3124,-3.3124,-3.3124,-3.3124,-3.3124,-3.3124,-3.3124,-3.3136,-3.3124,-3.3124,-3.3124,-3.3124,-3.3124,-3.3124,-3.3124,-3.3124,-3.3167,-3.3167,-3.3197,-3.3283,-3.3441,-3.4079,-3.5074,-3.5789,-3.6452,-3.7053,-3.7453,-3.7772,-3.8,-3.8202,-3.8202,-3.8202,-3.8202,-3.8202,-3.8202,-3.8202,-3.8202,-3.8202,-3.8202,-3.8202,-3.8202,-3.8202,-3.8202,-3.8202,-3.8202,-3.8202,-3.8254,-3.8456,-3.8634,-3.8679,-3.8994,-3.9139,-3.6487,-3.6662,-3.6499,-3.6417,-3.6417,-3.6417,-3.6417,-3.6417,-3.6417,-3.6862,-3.75,-3.6896,-3.7428,-3.8496,-3.8056,-3.8147,-3.863,-3.8783,-3.8859,-3.889,-3.8979,-3.8622,-3.8487,-3.8442,-3.832,-3.8545,-3.9036,-3.9522,-3.9711,-4.0045,-4.0102,-3.9724,-3.9285,-3.9241,-3.9299,-3.9285,-3.9285,-3.9121,-3.8373,-3.8024,-3.7579,-3.6956,-3.6593,-3.6452,-3.6417,-3.6417,-3.6417,-3.6417,-3.6417,-3.6417,-3.6417,-3.6132,-3.5705,-3.5107,-3.46,-3.4035,-3.347,-3.3156,-3.3124,-3.3124,-3.3124,-3.3124,-3.3124,-3.3124,-3.3124,-3.3124,-3.3124,-3.3124,-3.3124,-3.3149,-3.3149,-3.3174,-3.3224,-3.325,-3.3275,-3.3187,-3.3199,-3.3124,-3.3124,-3.3124,-3.3124,-3.3124,-3.3124,-3.324,-3.3611,-3.433,-3.5115,-3.5789,-3.6413,-3.7092,-3.7453,-3.7734,-3.7962,-3.8202,-3.8202,-3.8202,-3.8202,-3.8202,-3.8202,-3.8202,-3.8202,-3.8202,-3.8202,-3.8202,-3.8202,-3.8202,-3.8202,-3.8202,-3.8202,-3.8202,-3.8202,-3.8329,-3.8277,-3.8337,-3.8583,-3.6452,-3.6499,-3.6452,-3.6417,-3.6417,-3.6417,-3.6417,-3.6417,-3.6417,-3.6593,-3.6769,-3.6499,-3.664,-3.707,-3.7163,-3.7023,-3.7163,-3.7828,-3.7848,-3.7638,-3.7867,-3.8185,-3.7912,-3.733,-3.7065,-3.7263,-3.7789,-3.814,-3.7926,-3.8653,-3.8532,-3.8062,-3.7723,-3.7874,-3.8796,-3.9108,-3.8988,-3.8373,-3.7887,-3.7533,-3.6956,-3.6593,-3.6417,-3.6417,-3.6417,-3.6417,-3.6417,-3.6417,-3.6417,-3.6417,-3.6417,-3.6292,-3.5968,-3.5516,-3.4944,-3.4449,-3.3909,-3.3445,-3.3262,-3.3124,-3.3124,-3.3038,-3.3081,-3.3081,-3.3081,-3.3124,-3.3124,-3.3081,-3.2982,-3.312,-3.3533,-3.3608,-3.3658,-3.3658,-3.3608,-3.3382,-3.3282,-3.3187,-3.3124,-3.3124,-3.3124,-3.3124,-3.3124,-3.3124,-3.3411,-3.3654,-3.4358,-3.4772,-3.5264,-3.6387,-3.7092,-3.7376,-3.7644,-3.8,-3.8202,-3.8,-3.8089,-3.8202,-3.8202,-3.8202,-3.8202,-3.8202,-3.8202,-3.8202,-3.8202,-3.8202,-3.8202,-3.8202,-3.8202,-3.8202,-3.8202,-3.8202,-3.824,-3.824,-3.83,-3.6417,-3.6417,-3.6417,-3.6417,-3.6417,-3.6417,-3.6417,-3.6417,-3.6417,-3.6417,-3.6417,-3.6417,-3.6465,-3.6405,-3.6275,-3.6181,-3.6051,-3.6332,-3.6602,-3.6436,-3.6692,-3.6739,-3.6518,-3.6295,-3.5976,-3.6083,-3.6483,-3.6773,-3.6938,-3.7488,-3.7317,-3.673,-3.6216,-3.6896,-3.7782,-3.7965,-3.7874,-3.7348,-3.7129,-3.6989,-3.6593,-3.6417,-3.6417,-3.6417,-3.6417,-3.6417,-3.6417,-3.6417,-3.6417,-3.6417,-3.6417,-3.6417,-3.6254,-3.5855,-3.5257,-3.4751,-3.3997,-3.3308,-3.2711,-3.2525,-3.2307,-3.1945,-3.2624,-3.2853,-3.281,-3.2853,-3.3038,-3.3038,-3.2797,-3.3165,-3.3614,-3.3715,-3.3607,-3.355,-3.3997,-3.3771,-3.3345,-3.325,-3.3312,-3.33,-3.3124,-3.3124,-3.3124,-3.3124,-3.321,-3.3368,-3.3611,-3.3949,-3.4314,-3.5386,-3.6373,-3.6649,-3.6922,-3.7155,-3.7438,-3.7606,-3.7772,-3.8165,-3.8202,-3.8202,-3.8202,-3.8202,-3.8202,-3.8202,-3.8202,-3.8202,-3.8202,-3.8202,-3.8202,-3.8202,-3.8202,-3.8202,-3.8202,-3.8202,-3.8202,-3.6417,-3.6417,-3.6417,-3.6417,-3.6417,-3.6417,-3.6417,-3.6417,-3.6417,-3.6417,-3.6417,-3.6417,-3.6417,-3.6358,-3.6146,-3.6015,-3.5872,-3.5548,-3.5452,-3.5307,-3.5415,-3.5235,-3.5187,-3.5054,-3.5102,-3.5367,-3.569,-3.6106,-3.626,-3.6424,-3.6153,-3.5883,-3.586,-3.631,-3.6628,-3.6803,-3.6769,-3.6722,-3.6687,-3.6593,-3.6417,-3.6417,-3.6417,-3.6417,-3.6417,-3.6417,-3.6417,-3.6417,-3.6417,-3.6417,-3.6417,-3.6417,-3.6254,-3.5868,-3.5328,-3.4625,-3.3734,-3.2897,-3.2001,-3.1845,-3.1125,-3.0857,-3.1845,-3.2077,-3.2307,-3.2581,-3.2896,-3.2667,-3.232,-3.2896,-3.3394,-3.3177,-3.3036,-3.3583,-3.4342,-3.4035,-3.3483,-3.3382,-3.352,-3.3445,-3.3181,-3.3093,-3.3124,-3.3124,-3.3174,-3.321,-3.3368,-3.3526,-3.3937,-3.4356,-3.521,-3.5628,-3.5909,-3.6148,-3.6464,-3.6961,-3.7337,-3.7682,-3.8127,-3.8202,-3.8202,-3.8202,-3.8202,-3.8202,-3.8202,-3.8202,-3.8202,-3.8202,-3.8202,-3.8202,-3.8202,-3.8202,-3.8202,-3.8202,-3.8202,-3.6417,-3.6417,-3.6417,-3.6417,-3.6417,-3.6417,-3.6417,-3.6417,-3.6417,-3.6417,-3.6417,-3.6417,-3.6417,-3.637,-3.6111,-3.5908,-3.5668,-3.538,-3.5126,-3.4932,-3.4823,-3.4823,-3.4775,-3.4775,-3.4775,-3.4908,-3.5187,-3.5415,-3.5283,-3.5367,-3.5511,-3.5356,-3.562,-3.586,-3.6098,-3.6323,-3.637,-3.6417,-3.6417,-3.6417,-3.6417,-3.6417,-3.6417,-3.6417,-3.6417,-3.6417,-3.6417,-3.6417,-3.6417,-3.6417,-3.6417,-3.6417,-3.638,-3.6169,-3.5793,-3.4788,-3.3959,-3.3158,-3.1898,-3.1581,-3.0857,-2.9681,-3.0396,-3.1214,-3.1669,-3.2164,-3.2581,-3.222,-3.1649,-3.1958,-3.2552,-3.2629,-3.2902,-3.3635,-3.4279,-3.4261,-3.3822,-3.3872,-3.3985,-3.3809,-3.3533,-3.3307,-3.3312,-3.3237,-3.3232,-3.3174,-3.3167,-3.3326,-3.3526,-3.3937,-3.4217,-3.4635,-3.4992,-3.5305,-3.5909,-3.6452,-3.6844,-3.7208,-3.7772,-3.8202,-3.8202,-3.8202,-3.8202,-3.8202,-3.8202,-3.8202,-3.8202,-3.8202,-3.8202,-3.8202,-3.8202,-3.8202,-3.8202,-3.8202,-3.8202,-3.6417,-3.6417,-3.6417,-3.6417,-3.6417,-3.6417,-3.6417,-3.6417,-3.6417,-3.6417,-3.6417,-3.6417,-3.6417,-3.6323,-3.6003,-3.5764,-3.5572,-3.5223,-3.4932,-3.4872,-3.4775,-3.4775,-3.4775,-3.4775,-3.4775,-3.4775,-3.4775,-3.4957,-3.4775,-3.4823,-3.492,-3.5211,-3.5476,-3.5729,-3.6015,-3.6288,-3.6417,-3.6417,-3.6417,-3.6417,-3.6417,-3.6417,-3.6417,-3.6417,-3.6417,-3.6417,-3.6417,-3.6417,-3.6417,-3.6417,-3.6417,-3.6417,-3.6342,-3.6144,-3.5918,-3.4923,-3.3971,-3.2819,-3.1553,-3.0834,-2.9781,-2.8965,-2.9059,-2.9715,-3.0441,-3.0979,-3.148,-3.1581,-3.1038,-3.0841,-3.1508,-3.2234,-3.2991,-3.3733,-3.4084,-3.4392,-3.4437,-3.4462,-3.4374,-3.4223,-3.3997,-3.3721,-3.3571,-3.3445,-3.3294,-3.3199,-3.3124,-3.3167,-3.3283,-3.3484,-3.3611,-3.3839,-3.4204,-3.4511,-3.5169,-3.5856,-3.6373,-3.6936,-3.7772,-3.8089,-3.8165,-3.8202,-3.8202,-3.8202,-3.8202,-3.8202,-3.8202,-3.8202,-3.8202,-3.8202,-3.8202,-3.8202,-3.8202,-3.8202,-3.8202,-3.6417,-3.6417,-3.6417,-3.6417,-3.6417,-3.6417,-3.6417,-3.6417,-3.6417,-3.6417,-3.6417,-3.6417,-3.6417,-3.6323,-3.5908,-3.5681,-3.5428,-3.5126,-3.4872,-3.4775,-3.4775,-3.4775,-3.4775,-3.4775,-3.4775,-3.4775,-3.4775,-3.4775,-3.4775,-3.4823,-3.4932,-3.5175,-3.5464,-3.5716,-3.5908,-3.6228,-3.6417,-3.6417,-3.6417,-3.6417,-3.6417,-3.6417,-3.6417,-3.6417,-3.6417,-3.6417,-3.6417,-3.6417,-3.6417,-3.6417,-3.6417,-3.6417,-3.6267,-3.6031,-3.5742,-3.5093,-3.4127,-3.2777,-3.146,-3.0482,-2.9208,-2.8433,-2.8177,-2.8819,-2.9596,-3.0261,-3.0857,-3.0588,-3.0034,-3.033,-3.0982,-3.136,-3.1938,-3.3091,-3.3928,-3.4261,-3.4417,-3.458,-3.4818,-3.47,-3.4474,-3.4186,-3.3784,-3.3646,-3.342,-3.3262,-3.3124,-3.3124,-3.3167,-3.324,-3.324,-3.3283,-3.3556,-3.3924,-3.4288,-3.4978,-3.5816,-3.657,-3.74,-3.8052,-3.8165,-3.8202,-3.8202,-3.8202,-3.8202,-3.8202,-3.8202,-3.8202,-3.8202,-3.8202,-3.8202,-3.8202,-3.8202,-3.8165,-3.8202,-3.6417,-3.6417,-3.6417,-3.6417,-3.6417,-3.6417,-3.6417,-3.6417,-3.6417,-3.6417,-3.6417,-3.6417,-3.6417,-3.6323,-3.586,-3.5633,-3.5476,-3.5078,-3.4823,-3.4775,-3.4775,-3.4775,-3.4775,-3.4775,-3.4775,-3.4775,-3.4775,-3.4775,-3.4775,-3.4823,-3.4823,-3.4969,-3.532,-3.5668,-3.5764,-3.6133,-3.6417,-3.6417,-3.6417,-3.6417,-3.6417,-3.6417,-3.6417,-3.6417,-3.6417,-3.6417,-3.6417,-3.6417,-3.6417,-3.6417,-3.6417,-3.6417,-3.6392,-3.6254,-3.5943,-3.5372,-3.431,-3.2901,-3.1567,-3.0356,-2.9289,-2.8506,-2.8366,-2.87,-2.9172,-2.9804,-2.9932,-2.9485,-2.9347,-2.9828,-3.0285,-3.0547,-3.1047,-3.2451,-3.3771,-3.4085,-3.4367,-3.4806,-3.5207,-3.5132,-3.4919,-3.4575,-3.4135,-3.3796,-3.3571,-3.34,-3.3199,-3.3124,-3.3124,-3.3167,-3.3167,-3.321,-3.3167,-3.3441,-3.3725,-3.4259,-3.5182,-3.5843,-3.6596,-3.7323,-3.8,-3.7796,-3.7591,-3.8037,-3.8202,-3.7962,-3.7886,-3.815,-3.815,-3.8037,-3.8165,-3.8165,-3.8127,-3.8089,-3.8165,-3.6417,-3.6417,-3.6417,-3.6417,-3.6417,-3.6417,-3.6417,-3.6417,-3.6417,-3.6417,-3.6417,-3.6417,-3.6417,-3.6323,-3.586,-3.5633,-3.5524,-3.5078,-3.4872,-3.4775,-3.4775,-3.4775,-3.4775,-3.4775,-3.4775,-3.4775,-3.4775,-3.4775,-3.4775,-3.4775,-3.4823,-3.4872,-3.5332,-3.5633,-3.5668,-3.6086,-3.6417,-3.6417,-3.6417,-3.6417,-3.6417,-3.6417,-3.6417,-3.6417,-3.6417,-3.6417,-3.6417,-3.6417,-3.6417,-3.6417,-3.6417,-3.6417,-3.6417,-3.638,-3.5959,-3.5144,-3.4102,-3.2996,-3.1596,-3.0461,-2.9536,-2.8838,-2.8462,-2.8775,-2.8754,-2.9287,-2.9319,-2.8864,-2.8265,-2.8556,-2.9462,-2.9897,-3.0804,-3.2019,-3.3064,-3.3721,-3.4387,-3.5019,-3.5529,-3.5855,-3.5504,-3.4964,-3.4512,-3.3985,-3.3721,-3.33,-3.3136,-3.3124,-3.3124,-3.3124,-3.3124,-3.3124,-3.3124,-3.3124,-3.3326,-3.3894,-3.4634,-3.5264,-3.5843,-3.6267,-3.6791,-3.6908,-3.7025,-3.7193,-3.7271,-3.7208,-3.7232,-3.7515,-3.7606,-3.7453,-3.7734,-3.8089,-3.7962,-3.7848,-3.7962,-3.6417,-3.6417,-3.6417,-3.6417,-3.6417,-3.6417,-3.6417,-3.6417,-3.6417,-3.6417,-3.6417,-3.6417,-3.6417,-3.6228,-3.586,-3.5716,-3.5428,-3.503,-3.4823,-3.4775,-3.4775,-3.4775,-3.4775,-3.4775,-3.4775,-3.4775,-3.4775,-3.4775,-3.4775,-3.4775,-3.4823,-3.4932,-3.5235,-3.5633,-3.5764,-3.6086,-3.6417,-3.6417,-3.6417,-3.6417,-3.6417,-3.6417,-3.6417,-3.6417,-3.6417,-3.6417,-3.6417,-3.6417,-3.6417,-3.6417,-3.6417,-3.6417,-3.6417,-3.637,-3.5715,-3.4969,-3.3913,-3.2609,-3.129,-3.0218,-2.9482,-2.8959,-2.8794,-2.87,-2.874,-2.869,-2.8741,-2.8449,-2.786,-2.7947,-2.8819,-2.9715,-3.0668,-3.1721,-3.2653,-3.352,-3.4349,-3.5044,-3.5579,-3.6116,-3.5655,-3.5102,-3.465,-3.4135,-3.3734,-3.3312,-3.3124,-3.3124,-3.3124,-3.3124,-3.3124,-3.3124,-3.3124,-3.3124,-3.3124,-3.3496,-3.4147,-3.4634,-3.5182,-3.54,-3.5669,-3.6068,-3.6188,-3.5989,-3.6029,-3.6281,-3.6478,-3.6688,-3.6727,-3.6727,-3.6883,-3.7078,-3.7039,-3.7,-3.7567,-3.6417,-3.6417,-3.6417,-3.6417,-3.6417,-3.6417,-3.6417,-3.6417,-3.6417,-3.6417,-3.6417,-3.6417,-3.6417,-3.6358,-3.5847,-3.562,-3.5524,-3.5066,-3.4872,-3.4775,-3.4775,-3.4775,-3.4775,-3.4775,-3.4775,-3.4823,-3.4823,-3.4823,-3.4823,-3.4823,-3.4823,-3.4823,-3.532,-3.562,-3.5716,-3.6038,-3.637,-3.637,-3.6417,-3.6417,-3.6417,-3.6417,-3.6417,-3.6417,-3.6417,-3.6417,-3.6417,-3.6417,-3.6417,-3.6417,-3.6417,-3.6417,-3.6417,-3.631,-3.5715,-3.4678,-3.3648,-3.2521,-3.1306,-3.0294,-2.9642,-2.9549,-2.9384,-2.9177,-2.9124,-2.8906,-2.8836,-2.871,-2.8362,-2.8389,-2.9113,-2.9871,-3.0831,-3.1949,-3.3007,-3.3583,-3.4261,-3.4663,-3.5052,-3.5177,-3.5014,-3.4587,-3.4223,-3.3859,-3.3633,-3.3312,-3.3124,-3.3124,-3.3124,-3.3124,-3.3124,-3.3124,-3.3124,-3.3124,-3.3124,-3.3124,-3.3611,-3.4105,-3.4468,-3.469,-3.5033,-3.5548,-3.5588,-3.5102,-3.5264,-3.5588,-3.5762,-3.5856,-3.5843,-3.5883,-3.5869,-3.5935,-3.5949,-3.6227,-3.683]},{"header":{"parameterUnit":"m.s-1","parameterCategory":1,"la1":31.0,"la2":29.5877,"lo1":-88.7671,"lo2":-86.6584,"dy":0.0162,"dx":0.0185,"nx":115,"ny":88,"refTime":"2024-04-29T06:00:00:Z","depth":0,"parameterNumber":3,"parameterNumberName":"V-component_of_WINDS"},"data":[0.0,0.0,0.0,0.0,0.0,0.0,0.0,0.0,0.0,0.0,0.0,0.0,0.0,0.0,0.0,0.0,0.0,0.0,0.0,0.0,0.0,0.0,0.0,0.0,0.0,0.0,0.0,0.0,0.0,0.0,0.0,0.0,0.0,0.0,0.0,0.0,0.0,0.0,0.0,0.0,0.0,0.0,0.0,0.0,0.0,0.0,0.0,0.0,0.0,0.0,0.0,0.0,0.0,0.0,0.0,0.0,0.0,0.0,0.0,0.0,0.0,0.0,0.0,0.0,0.0,0.0,0.0,0.0,0.0,0.0,0.0,0.0,0.0,0.0,0.0,0.0,0.0,0.0,0.0,0.0,0.0,0.0,0.0,0.0,0.0,0.0,0.0,0.0,0.0,0.0,0.0,0.0,0.0,0.0,0.0,0.0,0.0,0.0,0.0,0.0,0.0,0.0,0.0,0.0,0.0,0.0,0.0,0.0,0.0,0.0,0.0,0.0,0.0,0.0,0.0,0.0,0.0,0.0,0.0,0.0,0.0,0.0,0.0,0.0,0.0,0.0,0.0,0.0,0.0,0.0,0.0,0.0,0.0,0.0,0.0,0.0,0.0,0.0,0.0,0.0,0.0,0.0,0.0,0.0,0.0,0.0,0.0,0.0,0.0,0.0,0.0,0.0,0.0,0.0,0.0,0.0,0.0,0.0,0.0,0.0,0.0,0.0,0.0,0.0,0.0,0.0,0.0,0.0,0.0,0.0,0.0,0.0,0.0,0.0,0.0,0.0,0.0,0.0,0.0,0.0,0.0,0.0,0.0,0.0,0.0,0.0,0.0,0.0,0.0,0.0,0.0,0.0,0.0,0.0,0.0,0.0,0.0,0.0,0.0,0.0,0.0,0.0,0.0,0.0,0.0,0.0,0.0,0.0,0.0,0.0,0.0,0.0,0.0,0.0,0.0,0.0,0.0,0.0,0.0,0.0,0.0,0.0,0.0,0.0,0.0,0.0,0.0,0.0,0.0,0.0,0.0,0.0,0.0,0.0,0.0,0.0,0.0,0.0,0.0,0.0,0.0,0.0,0.0,0.0,0.0,0.0,0.0,0.0,0.0,0.0,0.0,0.0,0.0,0.0,0.0,0.0,0.0,0.0,0.0,0.0,0.0,0.0,0.0,0.0,0.0,0.0,0.0,0.0,0.0,0.0,0.0,0.0,0.0,0.0,0.0,0.0,0.0,0.0,0.0,0.0,0.0,0.0,0.0,0.0,0.0,0.0,0.0,0.0,0.0,0.0,0.0,0.0,0.0,0.0,0.0,0.0,0.0,0.0,0.0,0.0,0.0,0.0,0.0,0.0,0.0,0.0,0.0,0.0,0.0,0.0,0.0,0.0,0.0,0.0,0.0,0.0,0.0,0.0,0.0,0.0,0.0,0.0,0.0,0.0,0.0,0.0,0.0,0.0,0.0,0.0,0.0,0.0,0.0,0.0,0.0,0.0,0.0,0.0,0.0,0.0,0.0,0.0,0.0,0.0,0.0,0.0,0.0,0.0,0.0,0.0,0.0,0.0,0.0,0.0,0.0,0.0,0.0,0.0,0.0,0.0,0.0,0.0,0.0,0.0,0.0,0.0,0.0,0.0,0.0,0.0,0.0,0.0,0.0,0.0,0.0,0.0,0.0,0.0,0.0,0.0,0.0,0.0,0.0,0.0,0.0,0.0,0.0,0.0,0.0,0.0,0.0,0.0,0.0,0.0,0.0,0.0,0.0,0.0,0.0,0.0,0.0,0.0,0.0,0.0,0.0,0.0,0.0,0.0,0.0,0.0,0.0,0.0,0.0,0.0,0.0,0.0,0.0,0.0,0.0,0.0,0.0,0.0,0.0,0.0,0.0,0.0,0.0,0.0,0.0,0.0,0.0,0.0,0.0,0.0,0.0,0.0,0.0,0.0,0.0,0.0,0.0,0.0,0.0,0.0,0.0,0.0,0.0,0.0,0.0,0.0,0.0,0.0,0.0,0.0,0.0,0.0,0.0,0.0,0.0,0.0,0.0,0.0,0.0,0.0,0.0,0.0,0.0,0.0,0.0,0.0,0.0,0.0,0.0,0.0,0.0,0.0,0.0,0.0,0.0,0.0,0.0,0.0,0.0,0.0,0.0,0.0,0.0,0.0,0.0,0.0,0.0,0.0,0.0,0.0,0.0,0.0,0.0,0.0,0.0,0.0,0.0,0.0,0.0,0.0,0.0,0.0,0.0,0.0,0.0,0.0,0.0,0.0,0.0,0.0,0.0,0.0,0.0,0.0,0.0,0.0,0.0,0.0,0.0,0.0,0.0,0.0,0.0,0.0,0.0,0.0,0.0,0.0,0.0,0.0,0.0,0.0,0.0,0.0,0.0,0.0,0.0,0.0,0.0,0.0,0.0,0.0,0.0,0.0,0.0,0.0,0.0,0.0,0.0,0.0,0.0,0.0,0.0,0.0,0.0,0.0,0.0,0.0,0.0,0.0,0.0,0.0,0.0,0.0,0.0,0.0,0.0,0.0,0.0,0.0,0.0,0.0,0.0,0.0,0.0,0.0,0.0,0.0,0.0,0.0,0.0,0.0,0.0,0.0,0.0,0.0,0.0,0.0,0.0,0.0,0.0,0.0,0.0,0.0,0.0,0.0,0.0,0.0,0.0,0.0,0.0,0.0,0.0,0.0,0.0,0.0,0.0,0.0,0.0,0.0,0.0,0.0,0.0,0.0,0.0,0.0,0.0,0.0,0.0,0.0,0.0,0.0,0.0,0.0,0.0,0.0,0.0,0.0,0.0,0.0,0.0,0.0,0.0,0.0,0.0,0.0,0.0,0.0,0.0,0.0,0.0,0.0,0.0,0.0,0.0,0.0,0.0,0.0,0.0,0.0,0.0,0.0,0.0,0.0,0.0,0.0,0.0,0.0,0.0,0.0,0.0,0.0,0.0,0.0,0.0,0.0,0.0,0.0,0.0,0.0,0.0,0.0,0.0,0.0,0.0,0.0,0.0,0.0,0.0,0.0,0.0,0.0,0.0,0.0,0.0,0.0,0.0,0.0,0.0,0.0,0.0,0.0,0.0,0.0,0.0,0.0,0.0,0.0,0.0,0.0,0.0,0.0,0.0,0.0,0.0,0.0,0.0,0.0,0.0,0.0,0.0,0.0,0.0,0.0,0.0,0.0,0.0,0.0,0.0,0.0,0.0,0.0,0.0,0.0,0.0,0.0,0.0,0.0,0.0,0.0,0.0,0.0,0.0,0.0,0.0,0.0,0.0,0.0,0.0,0.0,0.0,0.0,0.0,0.0,0.0,0.0,0.0,0.0,0.0,0.0,0.0,0.0,0.0,0.0,0.0,0.0,0.0,0.0,0.0,0.0,0.0,0.0,0.0,0.0,0.0,0.0,0.0,0.0,0.0,0.0,0.0,0.0,0.0,0.0,0.0,0.0,0.0,0.0,0.0,0.0,0.0,0.0,0.0,0.0,0.0,0.0,0.0,0.0,0.0,0.0,0.0,0.0,0.0,0.0,0.0,0.0,0.0,0.0,0.0,0.0,0.0,0.0,0.0,0.0,0.0,0.0,0.0,0.0,0.0,0.0,0.0,0.0,0.0,0.0,0.0,0.0,0.0,0.0,0.0,0.0,0.0,0.0,0.0,0.0,0.0,0.0,0.0,0.0,0.0,0.0,0.0,0.0,0.0,0.0,0.0,0.0,0.0,0.0,0.0,0.0,0.0,0.0,0.0,0.0,0.0,0.0,0.0,0.0,0.0,0.0,0.0,0.0,0.0,0.0,0.0,0.0,0.0,0.0,0.0,0.0,0.0,0.0,0.0,0.0,0.0,0.0,0.0,0.0,0.0,0.0,0.0,0.0,0.0,0.0,0.0,0.0,0.0,0.0,0.0,0.0,0.0,0.0,0.0,0.0,0.0,0.0,0.0,0.0,0.0,0.0,0.0,0.0,0.0,0.0,0.0,0.0,0.0,0.0,0.0,0.0,0.0,0.0,0.0,0.0,0.0,0.0,0.0,0.0,0.0,0.0,0.0,0.0,0.0,0.0,0.0,0.0,0.0,0.0,0.0,0.0,0.0,0.0,0.0,0.0,0.0,0.0,0.0,0.0,0.0,0.0,0.0,0.0,0.0,0.0,0.0,0.0,0.0,0.0,0.0,0.0,0.0,0.0,0.0,0.0,0.0,0.0,0.0,0.0,0.0,0.0,0.0,0.0,0.0,0.0,0.0,0.0,0.0,0.0,0.0,0.0,0.0,0.0,0.1705,0.0,0.0,0.0,0.0,0.0,0.0,0.0,0.0,0.0,0.0,0.0,0.0,0.0,0.0,0.0,0.0,0.0,0.0,0.0,0.0,0.0,0.0,0.0,0.0,0.0,0.0,0.0,0.0,0.0,0.0,0.0,0.0,0.0,0.0,0.0,0.0,0.0,0.0,0.0,0.0,0.0,0.0,0.0,0.0,0.0,0.0,0.0,0.0,0.0,0.0,0.0,0.0,0.0,0.0,0.0,0.0,0.0,0.0,0.0,0.0,0.0,0.0,0.0,0.0,0.0,0.0,0.0,0.0,0.0,0.0,0.0,0.0,0.0,0.0,0.0,0.0,0.0,0.0,0.0,0.0,0.0,0.0,0.0,0.0,0.0,0.0,0.0,0.0,0.0,0.0,0.0,0.0,0.0,0.0,0.0,0.0,0.0,0.0,0.0,0.0,0.0,0.0,0.0,0.0,0.0,0.0,0.0,0.0,0.0,0.0,0.1795,0.1795,0.1781,0.1752,0.1705,0.0,0.0,0.0,0.0,0.0,0.0,0.0,0.0,0.0,0.0,0.0,0.0,0.0,0.0,0.0,0.0,0.0,0.0,0.0,0.0,0.0,0.0,0.0,0.0,0.0,0.0,0.0,0.0,0.0,0.0,0.0,0.0,0.0,0.0,0.0,0.0,0.0,0.0,0.0,0.0,0.0,0.0,0.0,0.0,0.0,0.0,0.0,0.0,0.0,0.0,0.0,0.0,0.0,0.0,0.0,0.0,0.0,0.0,0.0,0.0,0.0,0.0,0.0,0.0,0.0,0.0,0.0,0.0,0.0,0.0,0.0,0.0,0.0,0.0,0.0,0.0,0.0,0.0,0.0,0.0,0.0,0.0,0.0,0.0,0.0,0.0,0.0,0.0,0.0,0.0,0.0,0.0,0.0,0.0,0.0,0.0,0.0,0.0,0.0,0.0,0.0,0.0,0.0,0.0,0.0,0.0,0.0,0.0,0.0,0.0,0.0,0.0,0.1795,0.1767,0.1706,0.0,0.0,0.0,0.0,0.0,0.0,0.0,0.0,0.0,0.0,0.0,0.0,0.0,0.0,0.0,0.0,0.0,0.0,0.0,0.0,0.0,0.0,0.0,0.0,0.0,0.0,0.0,0.0,0.0,0.0,0.0,0.0,0.0,0.0,0.0,0.0,0.0,0.0,0.0,0.0,0.0,0.0,0.0,0.0,0.0,0.0,0.0,0.0,0.0,0.0,0.0,0.0,0.0,0.0,0.0,0.0,0.0,0.0,0.0,0.0,0.0,0.0,0.0,0.0,0.0,0.0,0.0,0.0,0.0,0.0,0.0,0.0,0.0,0.0,0.0,0.0,0.0,0.0,0.0,0.0,0.0,0.0,0.0,0.0,0.0,0.0,0.0,0.0,0.0,0.0,0.0,0.0,0.0,0.0,0.0,0.0,0.0,0.0,0.0,0.0,0.0,0.0,0.0,0.0,0.0,0.0,0.0,0.0,0.0,0.0,0.1795,0.1795,0.1794,0.0,0.1707,0.0,0.0,0.0,0.0,0.0,0.0,0.0,0.0,0.0,0.0,0.0,0.0,0.0,0.0,0.0,0.0,0.0,0.0,0.0,0.0,0.0,0.0,0.0,0.0,0.0,0.0,0.0,0.0,0.0,0.0,0.0,0.0,0.0,0.0,0.0,0.0,0.0,0.0,0.0,0.0,0.0,0.0,0.0,0.0,0.0,0.0,0.0,0.0,0.0,0.0,0.0,0.0,0.0,0.0,0.0,0.0,0.0,0.0,0.0,0.0,0.0,0.0,0.0,0.0,0.0,0.0,0.0,0.0,0.0,0.0,0.0,0.0,0.0,0.0,0.0,0.0,0.0,0.0,0.0,0.0,0.0,0.0,0.0,0.0,0.0,0.0,0.0,0.0,0.0,0.0,0.0,0.0,0.0,0.0,0.0,0.0,0.0,0.0,0.0,0.0,0.0,0.0,0.0,0.0,0.0,0.0,0.0,0.0,0.0,0.0,0.1795,0.1795,0.176,0.173,0.0,0.0,0.0,0.0,0.0,0.0,0.0,0.0,0.0,0.0,0.0,0.0,0.0,0.0,0.0,0.0,0.0,0.0,0.0,0.0,0.0,0.0,0.0,0.0,0.0,0.0,0.0,0.0,0.0,0.0,0.0,0.0,0.0,0.0,0.0,0.0,0.0,0.0,0.0,0.0,0.0,0.0,0.0,0.0,0.0,0.0,0.0,0.0,0.0,0.0,0.0,0.0,0.0,0.0,0.0,0.0,0.0,0.0,0.0,0.0,0.0,0.0,0.0,0.0,0.0,0.0,0.0,0.0,0.0,0.0,0.0,0.0,0.0,0.0,0.0,0.0,0.0,0.0,0.0,0.0,0.0,0.0,0.0,0.0,0.0,0.0,0.0,0.0,0.0,0.0,0.0,0.0,0.0,0.0,0.0,0.0,0.0,0.0,0.0,0.0,0.0,0.0,0.0,0.0,0.0,0.0,0.0,0.0,0.0,0.0,0.1795,0.1795,0.1793,0.1744,0.1712,0.1705,0.0,0.0,0.0,0.0,0.0,0.0,0.0,0.0,0.0,0.0,0.0,0.0,0.0,0.0,0.0,0.0,0.0,0.0,0.0,0.0,0.0,0.0,0.0,0.0,0.0,0.0,0.0,0.0,0.0,0.0,0.0,0.0,0.0,0.0,0.0,0.0,0.0,0.0,0.0,0.0,0.0,0.0,0.0,0.0,0.0,0.0,0.0,0.0,0.0,0.0,0.0,0.0,0.0,0.0,0.0,0.0,0.0,0.0,0.0,0.0,0.0,0.0,0.0,0.0,0.0,0.0,0.0,0.0,0.0,0.0,0.0,0.0,0.0,0.0,0.0,0.0,0.0,0.0,0.0,0.0,0.0,0.0,0.0,0.0,0.0,0.0,0.0,0.0,0.0,0.0,0.0,0.0,0.0,0.0,0.0,0.0,0.0,0.0,0.0,0.0,0.0,0.0,0.0,0.0,0.0,0.0,0.0,0.0,0.1795,0.1795,0.1795,0.1795,0.1819,0.1788,0.0,0.0,0.0,0.0,0.0,0.0,0.0,0.0,0.0,0.0,0.0,0.0,0.0,0.0,0.0,0.0,0.0,0.0,0.0,0.0,0.0,0.0,0.0,0.0,0.0,0.0,0.0,0.0,0.0,0.0,0.0,0.0,0.0,0.0,0.0,0.0,0.0,0.0,0.0,0.0,0.0,0.0,0.0,0.0,0.0,0.0,0.0,0.0,0.0,0.0,0.0,0.0,0.0,0.0,0.0,0.0,0.0,0.0,0.0,0.0,0.0,0.0,0.0,0.0,0.0,0.0,0.0,0.0,0.0,0.0,0.0,0.0,0.0,0.0,0.0,0.0,0.0,0.0,0.0,0.0,0.0,0.0,0.0,0.0,0.0,0.0,0.0,0.0,0.0,0.0,0.0,0.0,0.0,0.0,0.0,0.0,0.0,0.0,0.0,0.0,0.0,0.0,0.0,0.0,0.0,0.0,0.0,0.0,0.0,0.1795,0.1795,0.1795,0.1793,0.1747,0.1715,0.0,0.0,0.0,0.0,0.0,0.0,0.0,0.0,0.0,0.0,0.0,0.0,0.0,0.0,0.0,0.0,0.0,0.0,0.0,0.0,0.0,0.0,0.0,0.0,0.0,0.0,0.0,0.0,0.0,0.0,0.0,0.0,0.0,0.0,0.0,0.0,0.0,0.0,0.0,0.0,0.0,0.0,0.0,0.0,0.0,0.0,0.0,0.0,0.0,0.0,0.0,0.0,0.0,0.0,0.0,0.0,0.0,0.0,0.0,0.0,0.0,0.0,0.0,0.0,0.0,0.0,0.0,0.0,0.0,0.0,0.0,0.0,0.0,0.0,0.0,0.0,0.0,0.0,0.0,0.0,0.0,0.0,0.0,0.0,0.0,0.0,0.0,0.0,0.0,0.0,0.0,0.0,0.0,0.0,0.0,0.0,0.0,0.0,0.0,0.0,0.0,0.0,0.0,0.0,0.0,0.0,0.0,0.0,0.0,0.1795,0.0,0.1795,0.1793,0.1746,0.1714,0.0,0.0,0.0,0.0,0.0,0.0,0.0,0.0,0.0,0.0,0.0,0.0,0.0,0.0,0.0,0.0,0.0,0.0,0.0,0.0,0.0,0.0,0.0,0.0,0.0,0.0,0.0,0.0,0.0,0.0,0.0,0.0,0.0,0.0,0.0,0.0,0.0,0.0,0.0,0.0,0.0,0.0,0.0,0.0,0.0,0.0,0.0,0.0,0.0,0.0,0.0,0.0,0.0,0.0,0.0,0.0,0.0,0.0,0.0,0.0,0.0,0.0,0.0,0.0,0.0,0.0,0.0,0.0,0.0,0.0,0.0,0.0,0.0,0.0,0.0,0.0,0.0,0.0,0.0,0.0,0.0,0.0,0.0,0.0,0.0,0.0,0.0,0.0,0.0,0.0,0.0,0.0,0.0,0.0,0.0,0.0,0.0,0.0,0.0,0.0,0.0,0.0,0.0,0.0,0.0,0.0,0.0,0.0,0.2412,0.1851,0.1795,0.1795,0.1794,0.1819,0.1789,0.0,0.0,0.0,0.0,0.0,0.0,0.0,0.0,0.0,0.0,0.0,0.0,0.0,0.0,0.0,0.0,0.0,0.0,0.0,0.0,0.0,0.0,0.0,0.0,0.0,0.0,0.0,0.0,0.0,0.0,0.0,0.0,0.0,0.0,0.0,0.0,0.0,0.0,0.0,0.0,0.0,0.0,0.0,0.0,0.0,0.0,0.0,0.0,0.0,0.0,0.0,0.0,0.0,0.0,0.0,0.0,0.0,0.0,0.0,0.0,0.0,0.0,0.0,0.0,0.0,0.0,0.0,0.0,0.0,0.0,0.0,0.0,0.0,0.0,0.0,0.0,0.0,0.0,0.0,0.0,0.0,0.0,0.0,0.0,0.0,0.0,0.0,0.0,0.0,0.0,0.0,0.0,0.0,0.0,0.0,0.0,0.0,0.0,0.0,0.0,0.0,0.0,0.0,0.0,0.0,0.0,0.0,0.0,0.0,0.1795,0.1795,0.1795,0.1794,0.1821,0.179,0.0,0.0,0.0,0.0,0.0,0.0,0.0,0.0,0.0,0.0,0.0,0.0,0.0,0.0,0.0,0.0,0.0,0.0,0.0,0.0,0.0,0.0,0.0,0.0,0.0,0.0,0.0,0.0,0.0,0.0,0.0,0.0,0.0,0.0,0.0,0.0,0.0,0.0,0.0,0.0,0.0,0.0,0.0,0.0,0.0,0.0,0.0,0.0,0.0,0.0,0.0,0.0,0.0,0.0,0.0,0.0,0.0,0.0,0.0,0.0,0.0,0.0,0.0,0.0,0.0,0.0,0.0,0.0,0.0,0.0,0.0,0.0,0.0,0.0,0.0,0.0,0.0,0.0,0.0,0.0,0.0,0.0,0.0,0.0,0.0,0.0,0.0,0.0,0.0,0.0,0.0,0.0,0.0,0.0,0.0,0.0,0.0,0.0,0.0,0.0,0.0,0.0,0.0,0.0,0.0,0.0,0.0,0.0,0.0,0.1811,0.1801,0.1795,0.1795,0.1776,0.1752,0.1722,0.0,0.0,0.0,0.0,0.0,0.0,0.0,0.0,0.0,0.0,0.0,0.0,0.0,0.0,0.0,0.0,0.0,0.0,0.0,0.0,0.0,0.0,0.0,0.0,0.0,0.0,0.0,0.0,0.0,0.0,0.0,0.0,0.0,0.0,0.0,0.0,0.0,0.0,0.0,0.0,0.0,0.0,0.0,0.0,0.0,0.0,0.0,0.0,0.0,0.0,0.0,0.0,0.0,0.0,0.0,0.0,0.0,0.0,0.0,0.0,0.0,0.0,0.0,0.0,0.0,0.0,0.0,0.0,0.0,0.0,0.0,0.0,0.0,0.0,0.0,0.0,0.0,0.0,0.0,0.0,0.0,0.0,0.0,0.0,0.0,0.0,0.0,0.0,0.0,0.0,0.0,0.0,0.0,0.0,0.0,0.0,0.0,0.0,0.0,0.0,0.0,0.0,0.0,0.0,0.0,0.0,0.0,0.0,0.184,0.1814,0.18,0.1798,0.1797,0.1782,0.0,0.0,0.0,0.0,0.0,0.0,0.0,0.0,0.0,0.0,0.0,0.0,0.0,0.0,0.0,0.0,0.0,0.0,0.0,0.0,0.0,0.0,0.0,0.0,0.0,0.0,0.0,0.0,0.0,0.0,0.0,0.0,0.0,0.0,0.0,0.0,0.0,0.0,0.0,0.0,0.0,0.0,0.0,0.0,0.0,0.0,0.0,0.0,0.0,0.0,0.0,0.0,0.0,0.0,0.0,0.0,0.0,0.0,0.0,0.0,0.0,0.0,0.0,0.0,0.0,0.0,0.0,0.0,0.0,0.0,0.0,0.0,0.0,0.0,0.0,0.0,0.0,0.0,0.0,0.0,0.0,0.0,0.0,0.0,0.0,0.0,0.0,0.0,0.0,0.0,0.0,0.0,0.0,0.0,0.0,0.0,0.0,0.0,0.0,0.0,0.0,0.0,0.0,0.0,0.0,0.0,0.0,0.0,0.0,0.2186,0.1971,0.1851,0.1772,0.1828,0.1804,0.0,0.0,0.0,0.0,0.0,0.0,0.0,0.0,0.0,0.0,0.0,0.0,0.0,0.0,0.0,0.0,0.0,0.0,0.0,0.0,0.0,0.0,0.0,0.0,0.0,0.0,0.0,0.0,0.0,0.0,0.0,0.0,0.0,0.0,0.0,0.0,0.0,0.0,0.0,0.0,0.0,0.0,0.0,0.0,0.0,0.0,0.0,0.0,0.0,0.0,0.0,0.0,0.0,0.0,0.0,0.0,0.0,0.0,0.0,0.0,0.0,0.0,0.0,0.0,0.0,0.0,0.0,0.0,0.0,0.0,0.0,0.0,0.0,0.0,0.0,0.0,0.0,0.0,0.0,0.0,0.0,0.0,0.0,0.0,0.0,0.0,0.0,0.0,0.0,0.0,0.0,0.0,0.0,0.0,0.0,0.0,0.0,0.0,0.0,0.0,0.0,0.0,0.0,0.0,0.0,0.0,0.0,0.0,0.2422,0.3016,0.2301,0.1896,0.182,0.1795,0.1824,0.0,0.0,0.0,0.0,0.0,0.0,0.0,0.0,0.0,0.0,0.0,0.0,0.0,0.0,0.0,0.0,0.0,0.0,0.0,0.0,0.0,0.0,0.0,0.0,0.0,0.0,0.0,0.0,0.0,0.0,0.0,0.0,0.0,0.0,0.0,0.0,0.0,0.0,0.0,0.0,0.0,0.0,0.0,0.0,0.0,0.0,0.0,0.0,0.0,0.0,0.0,0.0,0.0,0.0,0.0,0.0,0.0,0.0,0.0,0.0,0.0,0.0,0.0,0.0,0.0,0.0,0.0,0.0,0.0,0.0,0.0,0.0,0.0,0.0,0.0,0.0,0.0,0.0,0.0,0.0,0.0,0.0,0.0,0.0,0.0,0.0,0.0,0.0,0.0,0.0,0.0,0.0,0.0,0.0,0.0,0.0,0.0,0.0,0.0,0.0,0.0,0.0,0.0,0.0,0.0,0.0,0.0,0.0,0.2782,0.4108,0.2694,0.1936,0.1934,0.1877,0.1786,0.0,0.0,0.0,0.0,0.0,0.0,0.0,0.0,0.0,0.0,0.0,0.0,0.0,0.0,0.0,0.0,0.0,0.0,0.0,0.0,0.0,0.0,0.0,0.0,0.0,0.0,0.0,0.0,0.0,0.0,0.0,0.0,0.0,0.0,0.0,0.0,0.0,0.0,0.0,0.0,0.0,0.0,0.0,0.0,0.0,0.0,0.0,0.0,0.0,0.0,0.0,0.0,0.0,0.0,0.0,0.0,0.0,0.0,0.0,0.0,0.0,0.0,0.0,0.0,0.0,0.0,0.0,0.0,0.0,0.0,0.0,0.0,0.0,0.0,0.0,0.0,0.0,0.0,0.0,0.0,0.0,0.0,0.0,0.0,0.0,0.0,0.0,0.0,0.0,0.0,0.0,0.0,0.0,0.0,0.0,0.0,0.0,0.0,0.0,0.0,0.0,0.0,0.0,0.0,0.0,0.0,0.0,0.0,0.4156,0.4464,0.2844,0.1967,0.1967,0.1908,0.1865,0.0,0.0,0.0,0.0,0.0,0.0,0.0,0.0,0.0,0.0,0.0,0.0,0.0,0.0,0.0,0.0,0.0,0.0,0.0,0.0,0.0,0.0,0.0,0.0,0.0,0.0,0.0,0.0,0.0,0.0,0.0,0.0,0.0,0.0,0.0,0.0,0.0,0.0,0.0,0.0,0.0,0.0,0.0,0.0,0.0,0.0,0.0,0.0,0.1795,0.0,0.0,0.0,0.0,0.0,0.0,0.0,0.0,0.0,0.0,0.0,0.0,0.0,0.0,0.0,0.0,0.0,0.0,0.0,0.0,0.0,0.0,0.0,0.0,0.0,0.0,0.0,0.0,0.0,0.0,0.0,0.0,0.0,0.0,0.0,0.0,0.0,0.0,0.0,0.0,0.0,0.0,0.0,0.0,0.0,0.0,0.0,0.0,0.0,0.0,0.0,0.0,0.0,0.0,0.0,0.0,0.0,0.0,0.0,0.5532,0.5517,0.3953,0.2776,0.2036,0.1917,0.1879,0.0,0.0,0.0,0.0,0.0,0.0,0.0,0.0,0.0,0.0,0.0,0.0,0.0,0.0,0.0,0.0,0.0,0.0,0.0,0.0,0.0,0.0,0.0,0.0,0.0,0.0,0.0,0.0,0.0,0.0,0.0,0.0,0.0,0.0,0.0,0.0,0.0,0.0,0.0,0.0,0.0,0.0,0.0,0.0,0.0,0.0,0.0,0.0,0.0,0.0,0.0,0.0,0.0,0.0,0.0,0.0,0.0,0.0,0.0,0.0,0.0,0.0,0.0,0.0,0.0,0.0,0.0,0.0,0.0,0.0,0.0,0.0,0.0,0.0,0.0,0.0,0.0,0.0,0.0,0.0,0.0,0.0,0.0,0.0,0.0,0.0,0.0,0.0,0.0,0.0,0.0,0.0,0.0,0.0,0.0,0.0,0.0,0.0,0.0,0.0,0.0,0.0,0.0,0.0,0.0,0.0,0.0,0.8238,0.6903,0.6834,0.5244,0.3634,0.2344,0.2036,0.1885,0.1884,0.0,0.0,0.0,0.0,0.0,0.0,0.0,0.0,0.0,0.0,0.0,0.0,0.0,0.0,0.0,0.0,0.0,0.0,0.0,0.0,0.0,0.0,0.0,0.0,0.0,0.0,0.0,0.0,0.0,0.0,0.0,0.0,0.0,0.0,0.0,0.0,0.0,0.0,1.0692,1.0472,0.0,0.0,0.0,0.0,0.0,0.0,0.0,0.0,0.1962,0.0,0.0,0.0,0.0,0.0,0.0,0.0,0.0,0.0,0.0,0.0,0.0,0.0,0.0,0.0,0.0,0.0,0.0,0.0,0.0,0.0,0.0,0.0,0.0,0.0,0.0,0.0,0.0,0.0,0.0,0.0,0.0,0.0,0.0,0.0,0.0,0.0,0.0,0.0,0.0,0.0,0.0,0.0,0.0,0.0,0.0,0.0,0.0,0.0,0.0,0.0,0.0,0.0,0.0,0.0,0.0,1.0968,0.905,0.8078,0.8212,0.5485,0.3877,0.3568,0.2514,0.1885,0.1882,0.0,0.0,0.0,0.0,0.0,0.0,0.0,0.0,0.0,0.0,0.0,0.0,0.0,0.0,0.0,0.0,0.0,0.0,0.0,0.0,0.0,0.0,0.0,0.0,0.0,0.0,0.0,0.0,0.0,0.0,0.0,0.0,0.0,0.0,0.0,0.0,0.0,0.0,0.0,1.0472,1.0202,0.0,0.0,0.0,0.0,0.0,0.0,0.0,0.0,0.2967,0.0,0.0,0.0,0.0,0.0,0.0,0.0,0.0,0.0,0.0,0.0,0.0,0.0,0.0,0.0,0.0,0.0,0.0,0.0,0.0,0.0,0.0,0.0,0.0,0.0,0.0,0.0,0.0,0.0,0.0,0.0,0.0,0.0,0.0,0.0,0.0,0.0,0.0,0.0,0.0,0.0,0.0,0.0,0.0,0.0,0.0,0.0,0.0,0.0,0.0,0.0,0.0,0.0,0.0,0.0,1.1033,1.0252,0.9528,0.897,0.7329,0.5708,0.418,0.3348,0.259,0.0,0.0,0.0,0.0,0.0,0.0,0.0,0.0,0.0,0.0,0.0,0.0,0.0,0.0,0.0,0.0,0.0,0.0,0.0,0.0,0.0,0.0,0.0,0.0,0.0,0.0,0.0,0.0,0.0,0.0,0.0,0.0,0.0,0.0,0.0,0.0,0.0,0.0,0.0,0.0,1.0727,1.0647,1.0562,0.0,0.0,0.0,0.0,0.0,0.0,0.3161,0.3492,0.0,0.0,0.0,0.0,0.0,0.0,0.0,0.0,0.0,0.0,0.0,0.0,0.0,0.0,0.0,0.0,0.0,0.0,0.0,0.0,0.0,0.0,0.0,0.0,0.0,0.0,0.0,0.0,0.0,0.0,0.0,0.0,0.0,0.0,0.0,0.0,0.0,0.0,0.0,0.0,0.0,0.0,0.0,0.0,0.0,0.0,0.0,0.0,0.0,0.0,0.0,0.0,0.0,0.0,0.0,1.1208,1.1109,1.0626,0.9731,0.9128,0.7662,0.5345,0.4715,0.376,0.0,0.0,0.0,0.0,0.0,0.0,0.0,0.0,0.0,0.0,0.0,0.0,0.0,0.0,0.0,0.0,0.0,0.0,0.0,0.0,0.0,0.0,0.0,0.0,0.0,0.0,0.0,0.0,0.0,0.0,0.0,0.0,0.0,0.0,0.0,0.0,0.0,0.0,0.0,0.0,0.0,1.0976,1.0912,1.0878,0.0,0.0,0.0,0.0,0.3529,0.3938,0.0,0.0,0.0,0.0,0.0,0.0,0.0,0.0,0.0,0.0,0.0,0.0,0.0,0.0,0.0,0.0,0.0,0.0,0.0,0.0,0.0,0.0,0.0,0.0,0.0,0.0,0.0,0.0,0.0,0.0,0.0,0.0,0.0,0.0,0.0,0.0,0.0,0.0,0.0,0.0,0.0,0.0,0.0,0.0,0.0,0.0,0.0,0.0,0.0,0.0,0.0,0.0,0.0,0.0,0.0,0.0,1.115,1.0932,1.0868,1.1008,0.9616,0.8639,0.8271,0.6963,0.5568,0.0,0.0,0.0,0.0,0.0,0.0,0.0,0.0,0.0,0.0,0.0,0.0,0.0,0.0,0.0,0.0,0.0,0.0,0.0,0.0,0.0,0.0,0.0,0.0,0.0,0.0,0.0,0.0,0.0,0.0,0.0,0.0,0.0,0.0,0.0,0.0,0.0,0.0,0.0,0.0,0.0,1.1029,1.1142,1.1162,1.0582,0.0,0.0,0.9129,0.5108,0.5518,0.0,0.0,0.0,0.0,0.0,0.0,0.0,0.0,0.0,0.0,0.0,0.0,0.0,0.0,0.0,0.0,0.0,0.0,0.0,0.0,0.0,0.0,0.0,0.0,0.0,0.0,0.0,0.0,0.0,0.0,0.0,0.0,0.0,0.0,0.0,0.0,0.0,0.0,0.0,0.0,0.0,0.0,0.0,0.0,0.0,0.0,0.0,0.0,0.0,0.0,0.0,0.0,0.0,0.0,0.0,1.0867,1.1208,1.1047,1.1164,1.1571,1.066,0.9862,0.9131,0.8151,0.7023,0.0,0.0,0.0,0.0,0.0,0.0,0.0,0.0,0.0,0.0,0.0,0.0,0.0,0.0,0.0,0.0,0.0,0.0,0.0,0.0,0.0,0.0,0.0,0.0,0.0,0.0,0.0,0.0,0.0,0.0,0.0,0.0,0.0,0.0,0.0,0.0,0.0,0.0,0.0,0.0,0.0,0.0,1.15,1.1541,0.0,0.0,0.0,1.0217,0.6798,0.0,0.0,0.0,0.0,0.0,0.0,0.0,0.0,0.0,0.0,0.0,0.0,0.0,0.0,0.0,0.0,0.0,0.0,0.0,0.0,0.0,0.0,0.0,0.0,0.0,0.0,0.0,0.0,0.0,0.0,0.0,0.0,0.0,0.0,0.0,0.0,0.0,0.0,0.0,0.0,0.0,0.0,0.0,0.0,0.0,0.0,0.0,0.0,0.0,0.0,0.0,0.0,0.0,0.0,0.0,0.0,0.0,1.2122,1.1848,1.1862,1.2234,1.1704,1.097,0.9926,0.9458,0.0,0.0,0.0,0.0,0.0,0.0,0.0,0.0,0.0,0.0,0.0,0.0,0.0,0.0,0.0,0.0,0.0,0.0,0.0,0.0,0.0,0.0,0.0,0.0,0.0,0.0,0.0,0.9746,0.0,0.0,0.0,0.0,0.0,0.0,0.0,0.0,0.0,0.0,0.0,0.0,0.0,0.0,1.1358,1.184,1.1833,1.1466,0.0,0.0,1.0917,0.8398,0.803,0.7286,0.0,0.0,0.0,0.0,0.0,0.0,0.0,0.0,0.0,0.0,0.0,0.0,0.0,0.0,0.0,0.0,0.0,0.0,0.0,0.0,0.0,0.0,0.0,0.0,0.0,0.0,0.0,0.0,0.0,0.0,0.0,0.0,0.0,0.0,0.0,0.0,0.0,0.0,0.0,0.0,0.0,0.0,0.0,0.0,0.0,0.0,0.0,0.0,0.0,0.0,0.0,0.0,0.0,0.0,0.0,1.46,1.3492,1.307,1.3531,1.2427,1.1712,1.1647,1.1235,1.0347,0.0,0.0,0.0,0.0,0.0,0.0,0.0,0.0,0.0,0.0,0.0,0.0,0.0,0.0,0.0,0.0,0.0,0.0,0.0,0.0,0.0,0.0,0.0,0.0,0.0,0.0,0.0,0.0,0.0,0.0,0.0,0.0,0.0,0.0,0.0,0.0,0.0,0.0,0.0,0.0,0.0,1.1408,1.2067,1.1949,1.1776,0.0,0.0,1.1285,0.9866,0.962,0.8672,0.5716,0.0,0.0,0.0,0.0,0.0,0.0,0.0,0.0,0.0,0.0,0.0,0.0,0.0,0.0,0.0,0.0,0.0,0.0,0.0,0.0,0.0,0.0,0.0,0.0,0.0,0.0,0.0,0.0,0.0,0.0,0.0,0.0,0.0,0.0,0.0,0.0,0.0,0.0,0.0,0.0,0.0,0.0,0.0,0.0,0.0,0.0,0.0,0.0,0.0,0.0,0.0,0.0,0.0,1.4083,1.4899,1.4401,1.4049,1.3706,1.3195,1.2603,1.1837,1.1529,1.1047,0.0,0.0,0.0,0.0,0.0,0.0,0.0,0.0,0.0,0.0,0.0,0.0,0.0,0.0,0.0,0.0,0.0,0.0,0.0,0.0,0.0,0.0,0.0,0.0,0.0,0.0,0.0,0.0,1.274,1.275,1.2264,0.0,0.0,0.0,0.0,0.0,0.0,0.0,0.0,0.0,0.0,1.1932,1.2427,1.2242,0.0,0.0,1.1893,1.1651,1.1095,1.0358,0.9096,0.7123,0.6156,0.0,0.0,0.0,0.0,0.0,0.0,0.0,0.0,0.0,0.0,0.0,0.0,0.0,0.0,0.0,0.0,0.0,0.0,0.0,0.0,0.0,0.0,0.0,0.0,0.0,0.0,0.0,0.0,0.0,0.0,0.0,0.0,0.0,0.0,0.0,0.0,0.0,0.0,0.0,0.0,0.0,0.0,0.0,0.0,0.0,0.0,0.0,0.0,0.0,0.0,0.0,0.0,1.5033,1.598,1.5586,1.5199,1.4842,1.4436,1.3849,1.2955,1.2361,1.1991,0.0,0.0,0.0,0.0,0.0,0.0,0.0,0.0,0.0,0.0,0.0,0.0,0.0,0.0,0.0,0.0,0.0,0.0,0.0,0.0,0.0,0.0,0.0,0.0,0.0,0.0,0.0,0.0,1.451,1.44,1.3433,0.0,0.0,0.0,0.0,0.0,0.0,0.0,0.0,0.0,0.0,1.2749,1.2851,1.2479,1.2178,1.2178,1.1949,1.1837,1.1837,1.1035,0.9901,0.8521,0.0,0.0,0.0,0.0,0.0,0.0,0.0,0.0,0.0,0.0,0.0,0.0,0.0,0.0,0.0,0.0,0.0,0.0,0.0,0.0,0.0,0.0,0.0,0.0,0.0,0.0,0.0,0.0,0.0,0.0,1.8482,0.0,0.0,0.0,0.0,0.0,0.0,0.0,0.0,0.0,0.0,0.0,0.0,0.0,0.0,0.0,0.0,0.0,0.0,0.0,0.0,0.0,0.0,1.7204,1.8353,1.7179,1.6861,1.7313,1.622,1.5575,1.5445,1.4118,1.3268,1.3046,0.0,0.0,0.0,0.0,0.0,0.0,0.0,0.0,0.0,0.0,0.0,0.0,0.0,0.0,0.0,0.0,0.0,0.0,0.0,0.0,0.0,0.0,0.0,0.0,0.0,0.0,1.4735,1.4821,1.4733,0.0,0.0,0.0,0.0,0.0,0.0,0.0,0.0,0.0,0.0,1.4489,1.401,1.3287,1.2659,1.2238,1.2238,1.201,1.1837,1.1837,1.1772,1.1282,0.0,0.0,0.0,0.0,0.0,0.0,0.0,0.0,0.0,0.0,0.0,0.0,0.0,0.0,0.0,0.0,0.0,0.0,0.0,0.0,0.0,0.0,0.0,0.0,0.0,0.0,0.0,2.2176,2.2144,0.0,0.0,0.0,0.0,0.0,0.0,0.0,0.0,0.0,0.0,0.0,2.199,2.1998,0.0,0.0,0.0,0.0,0.0,0.0,0.0,0.0,0.0,0.0,0.0,0.0,1.7855,1.903,1.8685,1.8337,1.8079,1.7501,1.6733,1.5854,1.5199,1.4686,1.4303,0.0,0.0,0.0,0.0,0.0,0.0,0.0,0.0,0.0,0.0,0.0,0.0,0.0,0.0,0.0,0.0,0.0,0.0,0.0,0.0,0.0,0.0,0.0,0.0,0.0,1.7123,0.0,0.0,0.0,0.0,0.0,0.0,0.0,0.0,0.0,0.0,0.0,1.5447,1.5713,1.5124,1.4615,1.4494,1.3525,1.284,0.0,0.0,0.0,0.0,0.0,0.0,0.0,0.0,0.0,0.0,0.0,0.0,0.0,0.0,0.6226,0.4109,0.3766,0.3709,0.3707,0.0,0.0,0.0,0.0,0.0,0.0,0.0,0.0,0.0,0.0,0.0,0.0,0.0,0.0,2.3988,0.0,2.3522,0.0,0.0,0.0,0.0,0.0,0.0,0.0,0.0,2.2059,2.2656,2.3798,2.3807,2.3366,0.0,2.1801,2.0817,0.0,0.0,0.0,0.0,0.0,0.0,0.0,0.0,1.8279,1.9359,1.9408,1.9305,1.9061,1.8848,1.8319,1.7495,1.6827,1.6107,1.5381,1.4872,1.4548,0.0,0.0,0.0,0.0,0.0,0.0,0.0,0.0,0.0,0.0,0.0,0.0,0.0,0.0,0.0,0.0,0.0,0.0,0.0,0.0,0.0,0.0,0.0,1.855,0.0,0.0,0.0,0.0,0.0,0.0,0.0,0.0,0.0,1.6571,1.6668,1.685,1.6935,1.66,1.6086,1.5374,0.0,0.0,0.0,0.0,0.0,0.0,0.0,1.2132,1.1526,1.1209,1.0695,0.9576,0.9386,0.9206,0.8732,0.0,0.0,0.5821,0.4993,0.4645,0.4645,0.4178,0.3887,0.4121,0.3946,0.3893,0.0,0.0,0.0,0.0,0.0,0.0,0.0,0.0,2.4657,2.4564,0.0,2.4164,0.0,0.0,0.0,0.0,0.0,2.3504,0.0,0.0,2.3877,2.3877,2.4008,2.4017,2.3947,2.3832,2.2745,2.2728,2.3518,2.0034,0.0,0.0,0.0,0.0,0.0,0.0,1.8489,1.9483,1.9463,1.9703,2.03,2.027,2.027,2.0213,1.8874,1.7571,1.6379,1.5748,1.5381,1.5352,1.4605,0.0,0.0,0.0,0.0,0.0,0.0,0.0,0.0,0.0,0.0,0.0,0.0,0.0,0.0,0.0,0.0,0.0,0.0,0.0,0.0,1.852,0.0,0.0,0.0,0.0,0.0,0.0,0.0,0.0,0.0,0.0,1.788,1.8185,1.8541,1.8444,0.0,0.0,0.0,0.0,1.4733,1.3499,1.302,1.2779,1.2779,1.2719,1.2719,1.2715,0.0,0.0,1.114,1.0899,1.0532,0.9259,0.9137,0.8931,0.8854,0.7418,0.6359,0.6298,0.52,0.4313,0.4784,0.4751,0.4405,3.2697,0.0,0.0,0.0,0.0,2.9541,2.9131,2.8496,2.8382,2.8108,2.7576,2.7179,0.0,0.0,0.0,0.0,0.0,0.0,2.4368,2.5368,2.5377,2.5957,2.6999,2.6999,2.6563,2.5685,2.513,2.4614,2.4106,2.2803,2.1478,2.0166,0.0,0.0,0.0,0.0,1.9439,2.0963,2.0387,2.0267,2.091,2.073,2.0493,2.0328,1.9892,1.9391,1.8778,1.8575,1.8303,1.7829,1.7435,0.0,0.0,0.0,0.0,0.0,0.0,0.0,0.0,0.0,0.0,0.0,0.0,0.0,0.0,0.0,0.0,0.0,0.0,0.0,2.0031,2.0171,1.9854,0.0,0.0,0.0,0.0,0.0,0.0,0.0,0.0,0.0,1.9506,1.9609,1.973,0.0,0.0,1.872,1.797,1.7205,1.6326,1.5095,1.4857,0.0,1.3564,1.3204,1.3144,1.3384,1.3444,1.337,1.3087,1.3109,1.3031,1.2713,1.2743,1.2709,1.2545,1.0257,0.8419,0.8241,0.7999,0.7878,0.8002,0.7878,0.7819,3.4949,3.2669,3.1513,3.0892,3.0741,3.0721,3.0519,3.0203,3.0203,2.9933,2.95,2.9298,2.8862,2.8259,2.713,0.0,0.0,0.0,2.6197,2.7077,2.6981,2.7443,2.8281,2.8301,2.7906,2.7178,2.6549,2.6097,2.5873,2.5058,2.3974,2.274,0.0,0.0,2.1228,2.0629,2.1018,2.2413,2.1395,2.1201,2.1907,2.1246,2.0845,2.068,2.0687,2.0587,2.0345,2.0096,1.9782,1.9412,1.8917,1.8585,0.0,0.0,0.0,0.0,0.0,0.0,0.0,0.0,0.0,0.0,0.0,1.9131,1.9724,0.0,0.0,0.0,2.1133,2.1441,2.1541,2.1409,0.0,0.0,0.0,0.0,0.0,0.0,0.0,1.9583,2.0285,2.0745,2.0783,2.087,2.0789,2.0442,2.0019,1.9578,1.9058,0.0,1.7741,1.6509,1.6332,1.586,1.4634,1.4346,1.4183,1.3981,1.3934,1.3939,1.3991,1.4014,1.4029,1.4052,1.4062,1.4062,1.4066,1.2394,1.082,1.0194,0.9532,0.9249,0.9505,0.9377,0.9252,3.7325,3.5249,3.2986,3.1718,3.123,3.123,3.0999,3.0636,3.0636,3.0616,3.053,3.0575,3.0112,2.9295,2.883,0.0,2.8659,2.8807,2.8817,2.8777,2.851,2.8374,2.8344,2.8354,2.8344,2.8291,2.7187,2.7187,2.8155,2.6811,2.5943,2.5537,2.4109,2.3142,2.266,2.2542,2.2911,2.3702,2.2552,2.2267,2.2958,2.1794,2.1167,2.1167,2.1145,2.113,2.1115,2.0504,2.0223,2.0273,1.9501,1.9283,1.9868,0.0,0.0,0.0,0.0,0.0,0.0,0.0,0.0,0.0,0.0,0.0,0.0,0.0,0.0,0.0,2.1878,0.0,2.26,2.2365,0.0,0.0,0.0,2.0222,2.0508,2.0161,2.0039,2.0271,0.0,0.0,2.1643,2.1918,2.1832,2.0913,2.1077,2.0795,1.9615,1.9492,1.9029,1.7735,1.7584,1.7126,1.6044,1.5779,1.5471,1.4623,1.4337,1.4166,1.4043,1.4014,1.3929,1.3825,1.3745,1.3759,1.3745,1.3798,1.3567,1.2,1.0544,0.9541,1.0185,0.9941,0.9767,3.8246,3.6364,3.4609,3.3247,3.2333,3.2333,3.2158,3.1875,3.1875,3.1511,3.0963,3.0963,3.0671,3.0148,3.0047,3.0051,3.0007,3.0053,2.9858,2.9547,2.9483,2.9142,2.8631,2.8621,2.8514,2.8291,2.8014,2.8023,2.8291,2.7917,2.754,2.7126,2.6435,2.5269,2.3719,2.2894,2.3268,2.4812,2.3711,2.312,2.2942,2.1568,2.0837,2.0837,2.0603,2.0472,2.0472,2.027,2.0493,2.1084,2.0888,2.0859,2.099,2.0855,0.0,0.0,0.0,0.0,0.0,0.0,0.0,0.0,0.0,2.1769,2.2867,0.0,2.3395,0.0,2.4516,2.4506,2.3782,2.3651,0.0,0.0,2.2375,2.2121,2.1561,2.1683,2.167,2.1322,2.1671,2.1982,2.1963,2.2289,2.2312,2.1832,2.1672,2.1375,2.0852,2.0737,2.027,1.9165,1.9031,1.876,1.7565,1.6539,1.5941,1.5634,1.4669,1.3873,1.3996,1.4014,1.4038,1.4133,1.4161,1.4161,1.4137,1.409,1.3882,1.3514,1.3141,1.3026,1.3216,1.3021,1.3017,3.9322,3.7649,3.6766,3.559,3.419,3.3161,3.2612,3.2498,3.2487,3.2229,3.1814,3.1553,3.1284,3.0866,3.0717,3.0459,3.0275,3.0147,2.9961,2.9718,2.9558,2.9266,2.8877,2.8877,2.8771,2.8654,2.8664,2.8611,2.8461,2.8461,2.8192,2.7708,2.7236,2.6357,2.5166,2.4306,2.461,2.597,2.5287,2.4533,2.3766,2.2743,2.1962,2.1526,2.1581,2.1403,2.0923,2.1255,2.1661,2.2089,2.1977,2.1996,2.2298,2.2134,2.2193,0.0,0.0,0.0,0.0,0.0,0.0,0.0,0.0,0.0,0.0,0.0,2.4639,2.5312,2.5547,2.5479,2.505,2.4992,2.4862,2.4603,2.4354,2.4094,2.3799,2.333,2.295,2.2607,2.2514,2.252,2.2482,2.2675,2.2683,2.2343,2.218,2.201,2.1668,2.1497,2.1146,2.0507,2.041,2.0037,1.8837,1.7595,1.6859,1.6835,1.621,1.5666,1.5687,1.5206,1.4856,1.4876,1.4458,1.4033,1.4029,1.3953,1.3873,1.3882,1.3953,1.4029,1.4033,1.4038,1.4033,4.029,3.8904,3.8731,3.7809,3.624,3.4089,3.3161,3.3172,3.3001,3.3001,3.3084,3.2415,3.1934,3.1652,3.1148,3.0615,3.017,2.9939,2.9813,2.9698,2.9434,2.9245,2.9175,2.9185,2.9142,2.9132,2.9132,2.8973,2.8781,2.8727,2.8433,2.7839,2.7366,2.6965,2.6543,2.6074,2.6269,2.6961,2.6611,2.5964,2.4939,2.437,2.3616,2.2691,2.3115,2.2898,2.1996,2.2589,2.298,2.3126,2.2866,2.3017,2.3673,2.3304,2.3317,0.0,2.3516,0.0,0.0,0.0,0.0,0.0,0.0,0.0,0.0,2.4902,2.5342,2.5781,2.5869,2.5976,2.6308,2.6318,2.6574,2.721,2.6525,2.6075,2.6233,2.5147,2.4264,2.4156,2.3634,2.3239,2.3239,2.3127,2.2909,2.2683,2.2626,2.2513,2.2286,2.1945,2.1725,2.1725,2.1534,2.1082,2.0239,1.906,1.8268,1.8428,1.8088,1.8119,1.7799,1.6931,1.6161,1.5872,1.4958,1.4117,1.3983,1.3878,1.3698,1.3707,1.3717,1.3721,1.3721,1.3726,1.3688,4.0232,3.9472,3.8465,3.7874,3.7447,3.6143,3.5542,3.5487,3.458,3.4681,3.5377,3.3452,3.2829,3.3257,3.2248,3.1536,3.1122,3.1058,3.0851,3.051,3.0446,3.0081,2.9511,2.9501,2.9396,2.9132,2.9132,2.9079,2.9026,2.9026,2.8837,2.8493,2.811,2.774,2.7464,0.0,0.0,0.0,2.634,2.6035,2.6091,2.4551,2.361,2.3381,2.2954,0.0,2.2393,2.2528,2.2998,2.38,2.3827,0.0,0.0,0.0,0.0,0.0,0.0,0.0,0.0,0.0,0.0,0.0,2.753,2.6827,2.5177,2.5352,2.5888,2.6547,2.6596,2.6844,2.7492,2.7583,2.7613,2.7764,2.7872,2.7742,2.7093,2.7015,2.6768,2.6046,2.5105,2.4445,2.439,2.3624,2.3014,2.307,2.2958,2.2901,2.2845,2.2392,2.2002,2.2017,2.2142,2.2329,2.2431,2.1081,2.0087,2.0096,1.9076,1.8471,1.8414,1.8154,1.7803,1.7495,1.6438,1.5505,1.5273,1.4396,1.3863,1.3688,1.3748,1.3688,1.3688,1.3688,1.3688,3.9961,0.0,3.9037,3.8764,0.0,3.7554,3.7252,3.7448,3.5997,3.5333,3.5344,3.4681,3.4065,3.3323,3.2802,3.2168,3.1455,3.0945,3.0574,3.0346,3.0346,3.0169,2.9774,2.9774,2.9722,2.9564,2.9511,2.9448,2.9343,2.9343,2.9185,2.893,2.8376,2.8001,2.7897,2.7422,2.7273,2.7334,2.7165,2.7204,2.7302,2.5993,2.5038,2.4499,2.4216,0.0,0.0,0.0,0.0,0.0,0.0,0.0,0.0,2.5195,0.0,2.548,2.5285,2.5608,2.6729,2.7012,2.7552,2.8522,2.8756,2.8435,2.7304,2.7641,2.8057,2.8422,2.8703,2.8849,2.8864,2.8846,2.8801,2.8635,2.8758,2.8755,2.8613,2.8221,2.7805,2.7356,2.6336,2.5634,2.5643,2.5139,2.4753,2.4697,2.4214,2.3896,2.3784,2.3006,2.2286,2.2173,2.2246,2.2429,2.2508,2.2027,2.1415,2.1263,2.0744,2.0307,2.0235,1.9703,1.9234,1.9003,1.8015,1.7073,1.6791,1.6208,1.5564,1.4867,1.4634,1.4401,1.3868,1.3688,1.3688,3.9697,3.9697,3.9697,3.9697,3.9633,3.8659,3.8506,3.893,0.0,0.0,0.0,3.5945,3.5194,3.3548,3.3442,3.2848,3.1801,3.0795,3.0287,3.0297,3.0088,2.9994,2.9994,3.0193,3.0193,2.9994,3.0193,3.0088,2.9669,2.9669,2.9511,2.9154,2.8613,2.8329,2.8247,2.7908,2.7764,2.7921,2.8143,2.8237,2.8154,2.7422,2.6564,2.5596,2.5678,2.5372,2.4492,2.5362,2.583,2.583,2.5791,2.5781,2.5771,2.561,2.5923,2.6677,2.6599,2.7054,2.8252,2.8656,2.9026,2.945,2.9816,2.9897,2.9565,2.9958,3.0319,3.0523,3.0954,3.0897,3.0187,3.01,2.9913,2.9486,2.9435,2.958,2.9869,2.9164,2.8562,2.8382,2.7527,2.6816,2.6806,2.6545,2.6481,2.6372,2.5626,2.5101,2.4889,2.3672,2.257,2.24,2.2374,2.2302,2.2294,2.2309,2.2286,2.2245,2.2237,2.2286,2.2108,2.1395,2.0752,2.0637,1.9645,1.8771,1.8364,1.8015,1.7547,1.6326,1.5919,1.5569,1.457,1.4038,1.3863,3.9697,3.9697,3.9697,3.9697,3.9685,3.953,3.9492,3.9443,3.7758,3.7484,3.8216,3.6819,3.6114,3.5841,3.4889,3.3937,3.2912,3.1891,3.1381,3.133,3.0443,2.9994,3.0047,3.0929,3.0899,3.0088,3.0929,3.0888,3.0036,2.9952,2.9827,2.9544,2.944,2.9242,2.8978,2.8866,2.8866,2.8873,2.8406,2.7996,2.7796,2.7266,2.6795,2.6274,2.6133,2.6004,2.5849,2.6197,2.64,2.64,2.6159,2.6052,2.6052,2.6826,2.7306,2.7484,2.8378,2.9342,3.04,3.0514,3.1007,3.2054,3.2432,3.1882,3.028,3.0137,3.0683,3.1678,3.1994,3.1791,3.1392,3.1385,3.096,3.0068,2.9891,2.9932,2.9994,2.9827,2.9659,2.9606,2.8721,2.7956,2.7892,2.7185,2.6698,2.6545,2.649,2.6218,2.5836,2.4373,2.3062,2.2901,2.2901,2.2845,2.2788,2.2845,2.2845,2.2901,2.2845,2.2788,2.2788,2.2554,2.232,2.2279,2.1152,2.0336,1.9934,1.9003,1.8474,1.795,1.743,1.6791,1.6438,1.5451,1.4396,3.9697,3.9697,3.9697,3.9697,3.9672,3.9383,3.9245,3.922,3.8448,3.8177,3.8356,3.817,3.7465,3.6348,3.5829,3.5058,3.4042,3.2939,3.2488,3.2387,3.1341,3.0899,3.0929,3.1381,3.133,3.094,3.1993,3.1931,3.0991,3.1443,3.1381,3.0722,3.0567,3.0307,2.9984,2.9586,2.9586,2.9964,2.913,2.8568,2.8463,2.8046,2.7619,2.7182,2.6843,2.6592,2.6304,2.6448,2.6496,2.6496,2.6877,2.7105,2.7105,2.8028,2.883,2.9338,2.9886,3.0699,3.1801,3.2033,3.2351,3.2853,3.3025,3.2891,3.2256,3.2476,3.3001,3.385,3.421,3.4149,3.3403,3.2828,3.2044,3.0981,3.0391,2.9994,2.9994,2.9994,2.9994,2.9942,2.9554,2.9164,2.9164,2.8731,2.8402,2.8349,2.7902,2.7248,2.6653,2.5672,2.465,2.4064,2.3456,2.307,2.3014,2.3014,2.3014,2.3014,2.3014,2.3014,2.3014,2.3014,2.2958,2.2845,2.2256,2.1907,2.1509,2.1102,2.04,1.9408,1.9118,1.8597,1.784,1.6727,1.5505,3.9697,3.9697,3.9697,3.9697,3.9659,3.9233,3.9057,3.9057,3.9069,3.8809,3.8453,3.931,3.866,3.701,3.6828,3.6257,3.5272,3.4089,3.3549,3.3449,3.2437,3.1993,3.1982,3.2185,3.2185,3.2134,3.3039,3.2989,3.2134,3.2538,3.2437,3.1677,3.1637,3.1524,3.1286,3.0712,3.0598,3.0824,3.0089,2.9399,2.883,2.8508,2.8076,2.7532,2.7289,2.6966,2.6623,2.664,2.6784,2.7003,2.7626,2.8111,2.8333,2.9258,3.0147,3.089,3.1258,3.1801,3.2667,3.2995,3.3124,3.3124,3.3124,3.3307,3.3859,3.4412,3.4906,3.5445,3.5925,3.5906,3.4824,3.403,3.3039,3.179,3.0888,3.0297,3.0047,2.9994,2.9994,2.9994,2.9994,2.9942,2.9994,2.9994,2.9889,2.9722,2.9164,2.8286,2.7473,2.714,2.6499,2.5634,2.4326,2.3344,2.3127,2.3014,2.3014,2.3014,2.3014,2.3014,2.3014,2.3014,2.3014,2.2958,2.2958,2.278,2.2683,2.2619,2.2093,2.1102,2.063,2.0049,1.8829,1.7781,1.6568,3.9697,3.9697,3.9697,3.9697,3.9685,3.9634,3.9597,3.9597,3.9609,3.9583,3.9478,3.9633,3.9294,3.8655,3.8017,3.7442,3.6782,3.5333,3.4629,3.4532,3.3549,3.3051,3.3139,3.3993,3.3993,3.33,3.4141,3.4091,3.3051,3.2286,3.1728,3.1728,3.2538,3.3001,3.2939,3.2839,3.2387,3.1575,3.1432,3.0247,2.8076,2.7894,2.7472,2.6647,2.6848,2.6893,2.6853,2.7081,2.762,2.8409,2.8376,2.868,2.959,3.053,3.1078,3.1223,3.2239,3.2995,3.3068,3.3068,3.3124,3.3124,3.3124,3.3294,3.3834,3.4342,3.4906,3.542,3.6031,3.5953,3.4981,3.4678,3.3784,3.2123,3.1637,3.1084,3.0349,2.9994,2.9994,2.9994,3.0047,2.9994,2.9994,2.9994,2.9994,2.9994,2.9827,2.9554,2.928,2.8562,2.7956,2.7473,2.6073,2.439,2.3504,2.3022,2.3183,2.3127,2.3014,2.3014,2.3014,2.3014,2.3014,2.3014,2.3014,2.2958,2.2958,2.2958,2.2901,2.2433,2.1794,2.1031,1.9581,1.8668,1.7455,3.9697,3.9697,3.9697,3.9697,3.9697,3.9697,3.9697,3.9697,3.9697,3.9697,3.9647,3.9358,3.8894,3.8354,3.8103,3.7525,3.6697,3.6065,3.5775,3.5655,3.4641,3.4141,3.419,3.4581,3.4532,3.4288,3.5223,3.5174,3.4239,3.3674,3.3476,3.3525,3.3944,3.4141,3.4091,3.3499,3.33,3.3426,3.1984,3.0511,2.9328,2.8866,2.8236,2.7477,2.7424,2.7376,2.7256,2.7762,2.8315,2.8771,2.9658,3.0429,3.0833,3.1777,3.2326,3.2339,3.2797,3.3124,3.3124,3.3124,3.3124,3.3124,3.3124,3.3181,3.3407,3.3909,3.4462,3.5052,3.5855,3.6168,3.5715,3.5174,3.4422,3.3575,3.2939,3.2336,3.1953,3.1351,3.094,3.094,3.0391,2.9994,2.9994,2.9994,2.9994,2.9994,2.9984,2.9953,2.9921,2.9554,2.9006,2.8286,2.7311,2.6445,2.525,2.4445,2.4175,2.3952,2.3464,2.3022,2.307,2.3014,2.3014,2.3014,2.3014,2.3014,2.3014,2.3014,2.3014,2.2901,2.2837,2.2021,2.0859,2.0343,1.9601,3.9697,3.9697,3.9697,3.9697,3.9697,3.9697,3.9697,3.9697,3.9697,3.9609,3.9433,3.9044,3.8454,3.7852,3.7776,3.7324,3.6681,3.648,3.6417,3.631,3.5571,3.5223,3.5223,3.5223,3.5223,3.5379,3.6013,3.581,3.4921,3.5126,3.5078,3.4872,3.5078,3.5223,3.5174,3.4422,3.4288,3.4533,3.2722,3.139,3.0659,3.0018,2.9218,2.8246,2.8114,2.8089,2.8102,2.8771,2.9222,2.9543,3.0857,3.1713,3.2033,3.2723,3.3124,3.3124,3.3124,3.3124,3.3124,3.3124,3.3124,3.3124,3.3124,3.3124,3.3212,3.3583,3.4123,3.47,3.5454,3.5943,3.6298,3.5715,3.5174,3.4836,3.4042,3.3549,3.3151,3.2437,3.1931,3.1575,3.094,3.0297,3.0068,2.988,2.9766,2.9777,2.9673,2.9611,2.9642,2.9632,2.9402,2.8668,2.8569,2.8019,2.6816,2.5845,2.5313,2.5157,2.4548,2.4055,2.3624,2.3512,2.3183,2.3231,2.3127,2.3014,2.3014,2.3014,2.3014,2.3014,2.2958,2.278,2.2029,2.1794,2.1338,3.9697,3.9697,3.9697,3.9697,3.9697,3.9697,3.9697,3.9697,3.9697,3.9408,3.9032,3.8906,3.8303,3.7322,3.7285,3.7199,3.7096,3.6619,3.6417,3.6405,3.631,3.631,3.631,3.631,3.631,3.6216,3.631,3.587,3.4981,3.5823,3.581,3.4933,3.5775,3.6263,3.6216,3.6108,3.5715,3.4872,3.4019,3.309,3.1733,3.1038,3.0023,2.8937,2.8675,2.9093,2.9852,3.0079,3.0531,3.1403,3.1581,3.2033,3.2896,3.3081,3.3124,3.3124,3.3124,3.3124,3.3124,3.3124,3.3124,3.3124,3.3124,3.3124,3.3149,3.352,3.4048,3.4663,3.4763,3.5228,3.6069,3.605,3.5674,3.4908,3.4764,3.4205,3.3342,3.3185,3.2627,3.1938,3.1509,3.0906,3.0089,2.9601,2.9373,2.9259,2.898,2.8752,2.8866,2.9104,2.9198,2.9302,2.931,2.9112,2.7086,2.6545,2.649,2.6273,2.6063,2.5781,2.5203,2.462,2.4064,2.3504,2.34,2.3231,2.307,2.3014,2.3014,2.3014,2.3014,2.2788,2.2611,2.2085,2.1744,3.9697,3.9697,3.9697,3.9697,3.9697,3.9697,3.9697,3.9697,3.9697,3.9486,3.9045,3.8741,3.8246,3.7642,3.7286,3.6979,3.6681,3.6622,3.6546,3.6417,3.6417,3.6417,3.6417,3.6417,3.6417,3.6417,3.6417,3.6216,3.5918,3.6263,3.6216,3.5918,3.6156,3.6417,3.6417,3.6417,3.6216,3.5711,3.437,3.3287,3.2663,3.1228,3.0433,3.0521,2.9943,2.9806,3.0215,3.0767,3.1258,3.1581,3.222,3.2711,3.3038,3.3124,3.3124,3.3124,3.3124,3.3124,3.3124,3.3124,3.3124,3.3124,3.3124,3.3124,3.3149,3.3325,3.3608,3.406,3.4198,3.455,3.509,3.5316,3.5178,3.483,3.4749,3.4588,3.4226,3.3911,3.3536,3.3038,3.2054,3.0723,2.9856,2.9156,2.8876,2.8845,2.8711,2.8597,2.8618,2.8773,2.8938,2.9228,2.9446,2.9383,2.9059,2.8009,2.7571,2.7302,2.7032,2.6535,2.5954,2.5908,2.5461,2.4548,2.4167,2.3784,2.3672,2.307,2.307,2.3014,2.3014,2.3014,2.3014,2.249,2.2433,3.9697,3.9697,3.9697,3.9697,3.9697,3.9697,3.9736,3.9814,3.9599,3.9348,3.8991,3.8494,3.8031,3.7638,3.7334,3.7015,3.6687,3.6781,3.6769,3.6653,3.664,3.664,3.664,3.664,3.6653,3.6593,3.6546,3.6487,3.6499,3.6405,3.6417,3.6417,3.6417,3.6417,3.6417,3.6417,3.6417,3.6063,3.4654,3.3766,3.354,3.2064,3.1448,3.1901,3.148,3.1125,3.1125,3.1757,3.2089,3.2176,3.2754,3.3124,3.3124,3.3124,3.3124,3.3124,3.3124,3.3124,3.3124,3.3124,3.3124,3.3124,3.3124,3.3124,3.3124,3.3124,3.34,3.3721,3.3709,3.3859,3.4261,3.4299,3.4336,3.4625,3.468,3.468,3.4705,3.4444,3.4092,3.3434,3.184,3.0448,2.9666,2.8848,2.8491,2.839,2.8286,2.8173,2.8173,2.8328,2.8462,2.8814,2.9135,2.9404,2.9372,2.8888,2.8724,2.8542,2.8339,2.7688,2.7086,2.7086,2.6653,2.5744,2.5093,2.4659,2.4055,2.34,2.3127,2.307,2.3014,2.3014,2.3014,2.3014,2.2837,3.9685,3.9697,3.9697,3.9736,3.9749,3.9749,3.9878,3.9943,3.95,3.9129,3.8761,3.8175,3.7736,3.7317,3.7438,3.7353,3.7155,3.7121,3.7121,3.7015,3.7062,3.7062,3.7062,3.7015,3.7015,3.7015,3.6815,3.6709,3.6722,3.6546,3.6452,3.6417,3.6417,3.6452,3.6417,3.6417,3.6405,3.6191,3.5224,3.4673,3.4555,3.3508,3.2903,3.2995,3.2896,3.2853,3.2939,3.2982,3.2982,3.2995,3.3038,3.3124,3.3124,3.3124,3.3124,3.3124,3.3124,3.3124,3.3167,3.321,3.3283,3.3356,3.3197,3.324,3.3283,3.3167,3.3325,3.3783,3.3532,3.3388,3.384,3.3595,3.3614,3.4462,3.448,3.4512,3.4555,3.4643,3.4305,3.3166,3.1565,3.0263,2.9835,2.8928,2.8178,2.8046,2.7741,2.7496,2.7548,2.7786,2.7893,2.8131,2.8616,2.9082,2.9393,2.958,2.9756,2.9785,2.9596,2.9227,2.8509,2.8232,2.7688,2.6879,2.6063,2.5626,2.5084,2.4428,2.3784,2.3616,2.34,2.3183,2.3014,2.3014,2.3014,3.9346,3.9724,3.989,3.9981,3.9981,4.0147,4.0096,3.9751,3.9547,3.9094,3.8505,3.8282,3.7989,3.7701,3.7749,3.7703,3.7657,3.7644,3.7459,3.7155,3.7108,3.7108,3.7108,3.7108,3.7108,3.7108,3.7015,3.6956,3.6956,3.6909,3.6781,3.6628,3.6628,3.6628,3.6581,3.6487,3.6452,3.6505,3.5701,3.5069,3.4713,3.4022,3.3483,3.3162,3.3124,3.3124,3.3124,3.3124,3.3124,3.3124,3.3124,3.3124,3.3124,3.3124,3.3124,3.3124,3.3124,3.3411,3.3907,3.4034,3.4217,3.4553,3.433,3.4021,3.3907,3.3496,3.353,3.408,3.37,3.3585,3.4159,3.3883,3.3644,3.3589,3.3596,3.369,3.3765,3.3935,3.3781,3.3194,3.2252,3.1449,3.055,2.9379,2.8574,2.8421,2.7857,2.7404,2.7388,2.7625,2.7769,2.7952,2.8396,2.8776,2.8996,2.9246,2.9393,2.9621,2.9735,2.989,2.9418,2.9112,2.8562,2.8009,2.7194,2.6545,2.6054,2.5461,2.4808,2.4381,2.4278,2.384,2.3239,2.3014,2.3014,3.912,3.946,3.9892,4.0083,4.0096,4.0172,4.0029,3.9681,3.9269,3.8849,3.8446,3.822,3.8054,3.7906,3.79,3.79,3.79,3.79,3.7716,3.7459,3.7413,3.74,3.7413,3.7413,3.74,3.7353,3.7307,3.7248,3.7214,3.7155,3.7015,3.6875,3.6862,3.6769,3.6709,3.6593,3.6534,3.6518,3.5864,3.5332,3.4906,3.4299,3.3734,3.342,3.3181,3.3136,3.3124,3.3124,3.3124,3.3124,3.3124,3.3124,3.3124,3.3124,3.3124,3.3124,3.3167,3.3484,3.4272,3.4356,3.4731,3.5305,3.5128,3.4855,3.4772,3.433,3.4483,3.4772,3.4664,3.454,3.469,3.4483,3.3953,3.3411,3.3351,3.3313,3.3364,3.3604,3.369,3.3303,3.2711,3.2061,3.13,3.0354,2.9555,2.9372,2.8656,2.807,2.8023,2.7904,2.7936,2.8003,2.8351,2.8582,2.8673,2.8844,2.9003,2.9236,2.9466,2.9725,2.9702,2.9691,2.9386,2.889,2.8179,2.7571,2.7032,2.649,2.5891,2.558,2.5212,2.4501,2.384,2.3183,2.3038,3.8881,3.9032,3.9804,4.0134,4.0084,3.9826,3.978,3.9682,3.889,3.848,3.8494,3.8128,3.7939,3.79,3.79,3.79,3.79,3.79,3.79,3.7854,3.7854,3.7795,3.7808,3.7808,3.7808,3.7808,3.7611,3.7518,3.7505,3.7307,3.7155,3.7108,3.7108,3.7015,3.6862,3.6756,3.6687,3.653,3.5961,3.5663,3.55,3.4645,3.4098,3.4023,3.3544,3.328,3.3293,3.3187,3.3124,3.3124,3.3124,3.3124,3.3124,3.3124,3.3124,3.3124,3.3167,3.3683,3.4272,3.4744,3.5142,3.5895,3.5869,3.5669,3.5669,3.5588,3.5655,3.5895,3.5948,3.5868,3.5427,3.5061,3.4622,3.3924,3.3683,3.3641,3.367,3.3709,3.3653,3.353,3.2945,3.237,3.2332,3.1456,3.0977,3.0652,3.0033,2.9487,2.9269,2.8877,2.8258,2.8299,2.8571,2.8391,2.8486,2.8522,2.8705,2.8992,2.9178,2.939,2.9663,2.9725,2.987,2.9401,2.9071,2.8532,2.8223,2.7732,2.7194,2.6707,2.6063,2.5203,2.4659,2.4158,2.3533,3.8642,3.9284,4.0071,4.026,4.0076,4.0117,3.9719,3.9051,3.8739,3.8369,3.8161,3.7965,3.79,3.79,3.79,3.79,3.79,3.79,3.79,3.79,3.79,3.79,3.79,3.79,3.79,3.79,3.7795,3.7808,3.7808,3.7703,3.7564,3.7413,3.74,3.7366,3.7261,3.7062,3.7121,3.7168,3.6853,3.6429,3.6118,3.5825,3.5488,3.5066,3.4381,3.4014,3.3908,3.3424,3.3124,3.3124,3.3124,3.3124,3.3124,3.3124,3.3124,3.321,3.3725,3.4413,3.5156,3.5856,3.6584,3.7323,3.6883,3.657,3.6531,3.6148,3.6253,3.6607,3.6685,3.6724,3.683,3.6082,3.5169,3.4343,3.3924,3.3755,3.3713,3.3713,3.3713,3.367,3.3445,3.3318,3.3091,3.255,3.196,3.1784,3.1199,3.0473,3.0383,2.9909,2.9303,2.8888,2.8891,2.8466,2.8247,2.8264,2.8407,2.8688,2.8845,2.8827,2.9128,2.929,2.9506,2.9538,2.9569,2.9223,2.9472,2.9418,2.8764,2.7839,2.7356,2.6717,2.6227,2.5717,2.4896,3.8734,3.8979,3.9801,4.0103,3.999,3.9767,3.9324,3.8749,3.8449,3.8214,3.7939,3.79,3.79,3.79,3.79,3.79,3.79,3.79,3.79,3.79,3.79,3.79,3.79,3.79,3.79,3.79,3.79,3.79,3.79,3.79,3.7795,3.7703,3.7657,3.7611,3.7459,3.7366,3.7261,3.7294,3.7155,3.6929,3.6647,3.6378,3.618,3.5769,3.5175,3.4716,3.4392,3.3974,3.3591,3.3242,3.3124,3.3124,3.3124,3.3124,3.3111,3.324,3.405,3.4883,3.5722,3.6649,3.7477,3.8075,3.7834,3.7758,3.7706,3.7357,3.7563,3.7866,3.7843,3.7895,3.7682,3.6624,3.5426,3.4551,3.4147,3.4008,3.3966,3.4021,3.3966,3.3966,3.4008,3.4021,3.3966,3.3433,3.3262,3.3036,3.2407,3.1991,3.1685,3.1033,3.0463,3.0147,2.9966,2.9795,2.9519,2.9425,2.9064,2.9161,2.8817,2.8775,2.887,2.9084,2.9415,2.9665,2.9919,3.0057,3.0203,3.0235,2.9754,2.9039,2.8658,2.8116,2.7517,2.7034,2.6212,3.9039,3.8509,3.9303,3.9743,3.9783,3.9112,3.8723,3.8527,3.8135,3.7939,3.79,3.79,3.79,3.79,3.79,3.79,3.79,3.79,3.79,3.79,3.79,3.79,3.79,3.79,3.79,3.79,3.79,3.79,3.79,3.79,3.79,3.7854,3.7854,3.7749,3.7611,3.7564,3.7413,3.7307,3.7307,3.7248,3.7153,3.6856,3.6625,3.6496,3.5949,3.5307,3.4866,3.4541,3.4193,3.3323,3.3192,3.3197,3.3197,3.3197,3.3441,3.3839,3.4635,3.5548,3.6162,3.7179,3.7881,3.8412,3.8671,3.8782,3.8657,3.8657,3.8782,3.8819,3.9265,3.8811,3.8075,3.6741,3.5655,3.4868,3.4564,3.4397,3.4397,3.4397,3.4397,3.4397,3.4397,3.4397,3.4397,3.4397,3.4314,3.3827,3.3335,3.3109,3.2753,3.2147,3.1797,3.1577,3.1444,3.14,3.1057,3.0756,3.0193,2.9805,2.9168,2.8922,2.8957,2.9189,2.9448,2.9724,2.9878,3.0102,3.0356,3.0285,3.0172,2.9973,2.9471,2.8933,2.8406,2.8058,2.7418,3.9123,3.8789,3.934,3.9636,3.9572,3.8977,3.8462,3.8083,3.7965,3.79,3.79,3.79,3.79,3.79,3.79,3.79,3.79,3.79,3.79,3.79,3.79,3.79,3.79,3.79,3.79,3.79,3.79,3.79,3.79,3.79,3.79,3.79,3.79,3.7854,3.7808,3.7762,3.7808,3.7749,3.7703,3.7703,3.7657,3.7586,3.7456,3.7417,3.68,3.6064,3.5364,3.4827,3.4515,3.4211,3.3879,3.3675,3.3641,3.415,3.447,3.4869,3.5975,3.6919,3.7281,3.7919,3.8546,3.8708,3.8797,3.8782,3.8819,3.898,3.9104,3.9141,3.9265,3.9046,3.8225,3.7271,3.632,3.5575,3.4881,3.4481,3.4397,3.4397,3.4397,3.4397,3.4397,3.4397,3.4397,3.4397,3.4397,3.4356,3.4272,3.4134,3.37,3.3164,3.295,3.2679,3.2463,3.2277,3.2103,3.1709,3.1101,3.0564,2.9932,2.9555,2.9559,2.9239,2.9472,2.9633,2.976,3.0048,3.0346,3.0542,3.0504,3.0338,3.0235,2.9911,2.9484,2.9084,2.8604,4.0047,3.9003,3.9646,3.9594,3.9012,3.8533,3.8174,3.7939,3.79,3.79,3.79,3.79,3.79,3.79,3.79,3.79,3.79,3.79,3.79,3.79,3.79,3.79,3.79,3.79,3.79,3.79,3.79,3.79,3.79,3.79,3.79,3.79,3.79,3.79,3.79,3.79,3.79,3.79,3.79,3.79,3.79,3.79,3.79,3.7887,3.7482,3.6929,3.6256,3.5926,3.5473,3.5033,3.4645,3.4194,3.392,3.4498,3.4979,3.5373,3.6685,3.7601,3.7895,3.8509,3.9017,3.8943,3.9031,3.9068,3.9104,3.9192,3.9228,3.9265,3.9265,3.9068,3.8315,3.7872,3.7116,3.636,3.5548,3.5032,3.495,3.4675,3.4397,3.4397,3.4397,3.4397,3.4397,3.4397,3.4397,3.4397,3.4397,3.4272,3.4272,3.3827,3.3784,3.356,3.3292,3.3079,3.2993,3.2593,3.1884,3.14,3.0911,3.0687,3.0615,3.0066,2.9476,2.9609,2.9753,3.0027,3.0299,3.052,3.0677,3.0608,3.0557,3.0672,3.0419,2.974,2.9354,4.1082,3.9336,3.9901,3.9553,3.8658,3.8148,3.7926,3.79,3.79,3.79,3.79,3.79,3.79,3.79,3.79,3.79,3.79,3.79,3.79,3.79,3.79,3.79,3.79,3.79,3.79,3.79,3.79,3.79,3.79,3.79,3.79,3.79,3.79,3.79,3.79,3.79,3.79,3.79,3.79,3.79,3.79,3.79,3.79,3.7887,3.7848,3.758,3.7104,3.6862,3.6533,3.568,3.5552,3.5031,3.4653,3.4828,3.5467,3.5775,3.7357,3.8084,3.8375,3.887,3.9301,3.9156,3.9265,3.9388,3.9388,3.9352,3.9352,3.9388,3.9352,3.9156,3.8478,3.8165,3.7796,3.7141,3.636,3.5923,3.5736,3.5114,3.4716,3.4397,3.4397,3.4397,3.4397,3.4397,3.4397,3.4397,3.4397,3.4397,3.4397,3.4356,3.423,3.4176,3.3869,3.3742,3.3645,3.3518,3.2809,3.2234,3.1797,3.1665,3.1488,3.0894,3.0262,2.9711,2.9778,3.0013,3.0242,3.05,3.0622,3.0728,3.0888,3.0959,3.0678,3.0267,2.9884,4.1216,4.0449,3.9784,3.9646,3.961,3.8444,3.79,3.79,3.79,3.79,3.79,3.79,3.79,3.79,3.79,3.79,3.79,3.79,3.79,3.79,3.79,3.79,3.79,3.79,3.79,3.79,3.79,3.79,3.79,3.79,3.79,3.79,3.79,3.79,3.79,3.79,3.79,3.79,3.79,3.79,3.79,3.79,3.79,3.79,3.79,3.7867,3.7743,3.7323,3.6981,3.701,3.6557,3.6361,3.6301,3.6492,3.6855,3.7501,3.836,3.8907,3.9031,3.9228,3.9388,3.9388,3.9388,3.9388,3.9388,3.9388,3.9388,3.9388,3.9388,3.9316,3.9207,3.8664,3.824,3.7796,3.7256,3.6699,3.6543,3.6002,3.5196,3.4716,3.4564,3.4397,3.4397,3.4397,3.4397,3.4397,3.4397,3.4397,3.4397,3.4397,3.4356,3.4356,3.4314,3.4272,3.4272,3.4134,3.3771,3.3152,3.2722,3.242,3.2147,3.1665,3.1142,3.0742,3.0131,2.9924,3.0163,3.0493,3.0589,3.0752,3.0986,3.1211,3.0781,3.0359,2.9959,4.1824,4.0906,4.0477,3.9988,3.9357,3.8358,3.79,3.79,3.79,3.79,3.79,3.79,3.79,3.79,3.79,3.79,3.79,3.79,3.79,3.79,3.79,3.79,3.79,3.79,3.79,3.79,3.79,3.79,3.79,3.79,3.79,3.79,3.79,3.79,3.79,3.79,3.79,3.79,3.79,3.79,3.79,3.79,3.7946,3.79,3.7979,3.8161,3.8509,3.8381,3.83,3.8446,3.7993,3.7898,3.7877,3.7773,3.7744,3.8263,3.8958,3.9388,3.9388,3.9388,3.9388,3.9388,3.9388,3.9388,3.9388,3.9388,3.9388,3.9388,3.9388,3.9388,3.9352,3.901,3.8848,3.8649,3.806,3.7668,3.7386,3.6791,3.6042,3.5196,3.4758,3.4564,3.4397,3.4397,3.4397,3.4397,3.4397,3.4397,3.4397,3.4397,3.4397,3.4397,3.4397,3.4397,3.4397,3.4356,3.4314,3.3814,3.3505,3.3207,3.3023,3.2636,3.2277,3.1969,3.1307,3.0663,3.0377,3.0805,3.0758,3.0805,3.0985,3.1105,3.0787,3.0438,2.9997,4.2415,4.1339,4.1324,4.0632,3.9499,3.8742,3.8362,3.8181,3.8408,3.8285,3.7946,3.8057,3.8103,3.7946,3.79,3.79,3.79,3.79,3.79,3.79,3.79,3.79,3.79,3.79,3.79,3.79,3.79,3.79,3.79,3.79,3.79,3.79,3.79,3.79,3.79,3.79,3.79,3.79,3.79,3.79,3.79,3.807,3.8148,3.8239,3.833,3.8863,3.9431,3.9464,3.9598,3.9634,3.9371,3.9096,3.9208,3.8762,3.8441,3.8553,3.9083,3.9316,3.9388,3.9388,3.9388,3.9388,3.9388,3.9388,3.9388,3.9388,3.9388,3.9388,3.9388,3.9388,3.9388,3.9388,3.9337,3.9228,3.8811,3.8389,3.8211,3.7744,3.7078,3.6215,3.5264,3.4758,3.4592,3.4397,3.4397,3.4397,3.4397,3.4397,3.4397,3.4397,3.4397,3.4397,3.4397,3.4397,3.4397,3.4397,3.4356,3.4217,3.4037,3.3911,3.3827,3.3645,3.3335,3.298,3.2803,3.2228,3.1689,3.109,3.1105,3.1154,3.1129,3.0877,3.0401,3.0193,2.998,4.2477,4.2444,4.1858,4.1606,4.1436,4.056,3.9738,3.9179,3.9826,3.9339,3.8148,3.8639,3.8549,3.8024,3.79,3.79,3.79,3.79,3.79,3.79,3.79,3.79,3.79,3.79,3.79,3.79,3.79,3.79,3.79,3.79,3.79,3.79,3.79,3.79,3.79,3.79,3.79,3.79,3.79,3.7946,3.8057,3.8639,3.8926,3.9224,3.9651,4.0173,4.0375,4.0447,4.0576,4.0795,4.0278,4.0032,4.0114,3.9622,3.9339,3.928,3.9352,3.9388,3.9388,3.9388,3.9388,3.9388,3.9388,3.9388,3.9388,3.9388,3.9388,3.9388,3.9388,3.9388,3.9388,3.9388,3.9388,3.9388,3.9228,3.9119,3.9031,3.8523,3.791,3.7323,3.6413,3.5426,3.4868,3.4592,3.4397,3.4397,3.4397,3.4397,3.4397,3.4397,3.4397,3.4397,3.4397,3.4397,3.4397,3.4397,3.4397,3.4397,3.4397,3.4397,3.4259,3.4134,3.4217,3.3911,3.3784,3.3348,3.2498,3.1935,3.1688,3.1553,3.1577,3.0818,2.9862,2.9803,3.0046,4.2703,4.2795,4.2143,4.1922,4.1867,4.0986,4.0375,4.0145,4.0389,4.0173,3.9458,3.9179,3.8715,3.8024,3.79,3.79,3.79,3.79,3.79,3.79,3.79,3.79,3.79,3.79,3.79,3.79,3.79,3.79,3.79,3.79,3.79,3.79,3.79,3.79,3.79,3.79,3.79,3.79,3.7933,3.8135,3.8594,3.9046,3.9461,3.9986,4.0418,4.0901,4.1296,4.138,4.1709,4.2008,4.1691,4.1225,4.0905,4.0352,3.9858,3.9388,3.9388,3.9388,3.9388,3.9388,3.9388,3.9388,3.9388,3.9388,3.9388,3.9388,3.9388,3.9388,3.9388,3.9388,3.9388,3.9388,3.9388,3.9388,3.9388,3.9388,3.9352,3.9192,3.8686,3.815,3.7567,3.657,3.5615,3.5019,3.4758,3.4564,3.4522,3.4481,3.4439,3.4397,3.4397,3.4397,3.4397,3.4397,3.4397,3.4397,3.4397,3.4397,3.4397,3.4397,3.4397,3.4356,3.4397,3.4397,3.4176,3.37,3.3104,3.2767,3.2422,3.2246,3.2018,3.1368,3.0742,3.0413,3.0366,4.2875,4.2941,4.2537,4.2333,4.2278,4.1589,4.1155,4.0972,4.1239,4.1071,4.0504,3.9812,3.8984,3.8194,3.8103,3.8181,3.79,3.79,3.79,3.79,3.79,3.7946,3.7933,3.7933,3.7946,3.7979,3.79,3.79,3.79,3.79,3.79,3.79,3.79,3.79,3.79,3.79,3.79,3.79,3.8194,3.8594,3.9135,3.9738,4.0332,4.0817,4.1197,4.1603,4.2196,4.2319,4.2725,4.2887,4.2563,4.1929,4.1362,4.0666,4.0023,3.9553,3.9388,3.9388,3.9388,3.9388,3.9388,3.9388,3.9388,3.9388,3.9388,3.9388,3.9388,3.9388,3.9388,3.9388,3.9388,3.9388,3.9388,3.9388,3.9388,3.9388,3.9388,3.9243,3.9119,3.8723,3.8225,3.7796,3.6805,3.5816,3.5223,3.4868,3.4675,3.4592,3.4522,3.4481,3.4397,3.4397,3.4397,3.4397,3.4397,3.4397,3.4397,3.4397,3.4397,3.4397,3.4397,3.4397,3.4397,3.4397,3.4397,3.4189,3.3742,3.3484,3.3179,3.282,3.2511,3.2331,3.191,3.1467,3.0962,4.2996,4.3021,4.3155,4.317,4.317,4.317,4.2603,4.1976,4.2699,4.2044,4.0817,4.0475,3.959,3.8575,3.8774,3.8729,3.7979,3.7946,3.8024,3.8024,3.79,3.8011,3.8089,3.8148,3.8148,3.8226,3.8226,3.8103,3.79,3.7946,3.7946,3.79,3.7946,3.7946,3.79,3.79,3.8024,3.8181,3.8581,3.9135,3.9869,4.0689,4.1645,4.1976,4.2618,4.317,4.321,4.3076,4.3076,4.3275,4.2821,4.2246,4.1632,4.092,4.0277,3.9768,3.9418,3.9403,3.9388,3.9388,3.9388,3.9388,3.9388,3.9388,3.9388,3.9388,3.9388,3.9388,3.9388,3.9388,3.9388,3.9388,3.9388,3.9388,3.9388,3.9388,3.9388,3.9388,3.9265,3.9156,3.8833,3.8412,3.8173,3.7218,3.6188,3.5762,3.5237,3.5114,3.4716,3.4592,3.4439,3.4397,3.4397,3.4397,3.4397,3.4397,3.4397,3.4397,3.4397,3.4397,3.4397,3.4397,3.4397,3.4397,3.4397,3.4397,3.4356,3.4034,3.3679,3.3316,3.304,3.2921,3.2558,3.1966,3.1627,4.3076,4.3195,4.3265,4.3305,4.3305,4.3305,4.313,4.2875,4.313,4.2659,4.1421,4.1394,4.0745,3.9927,3.9796,3.9913,3.9458,3.8895,3.8805,3.8549,3.8381,3.8167,3.8336,3.885,3.9149,3.9073,3.8939,3.8805,3.8715,3.8272,3.8395,3.8395,3.8272,3.7946,3.79,3.8116,3.8272,3.8671,3.9121,3.9637,4.0986,4.1463,4.2237,4.2835,4.2996,4.329,4.3305,4.3305,4.3305,4.323,4.3045,4.2551,4.1976,4.1294,4.0651,3.9993,3.9664,3.9403,3.9388,3.9388,3.9388,3.9388,3.9388,3.9388,3.9388,3.9388,3.9388,3.9388,3.9388,3.9388,3.9388,3.9388,3.9388,3.9388,3.9388,3.9388,3.9388,3.9388,3.9388,3.9265,3.9228,3.9031,3.887,3.8671,3.7601,3.6699,3.6122,3.5548,3.5155,3.4758,3.4592,3.4439,3.4397,3.4397,3.4397,3.4397,3.4397,3.4397,3.4397,3.4397,3.4397,3.4397,3.4397,3.4397,3.4397,3.4397,3.4397,3.4397,3.4173,3.3832,3.3688,3.3628,3.3124,3.2506,3.2321,4.3115,4.321,4.329,4.3305,4.3305,4.3305,4.3305,4.3305,4.3305,4.2835,4.2032,4.2196,4.1672,4.0944,4.0944,4.0731,4.0418,3.9986,3.9768,3.9637,3.9417,3.9166,3.9475,3.9812,4.0232,4.0087,3.9607,3.9373,3.9329,3.8671,3.8805,3.9015,3.9015,3.8953,3.8832,3.8742,3.9029,3.9475,4.0073,4.0518,4.1893,4.2278,4.2578,4.317,4.329,4.329,4.3305,4.3305,4.3305,4.3305,4.3185,4.2955,4.2372,4.1767,4.1085,4.0442,3.9858,3.9433,3.9388,3.9388,3.9388,3.9388,3.9388,3.9388,3.9388,3.9388,3.9388,3.9388,3.9388,3.9388,3.9403,3.9388,3.9388,3.9388,3.9388,3.9388,3.9388,3.9388,3.9388,3.9352,3.9352,3.9301,3.9228,3.9068,3.8435,3.7448,3.6738,3.6136,3.5548,3.5155,3.484,3.4592,3.4397,3.4397,3.4397,3.4397,3.4397,3.4397,3.4397,3.4397,3.4397,3.4397,3.4397,3.4397,3.4397,3.4397,3.4397,3.4397,3.4397,3.4369,3.4173,3.403,3.392,3.3377,3.3207,4.3195,4.3021,4.321,4.3305,4.3305,4.3305,4.3305,4.3305,4.3305,4.2875,4.2293,4.282,4.2304,4.1281,4.1713,4.163,4.1155,4.0958,4.0859,4.0802,4.0718,4.1056,4.1182,4.1224,4.1364,4.1155,4.0689,4.0218,4.0059,3.9697,3.9667,4.0073,4.0504,4.0546,4.0518,4.0504,4.0504,4.0689,4.1421,4.1769,4.2196,4.2795,4.313,4.325,4.3305,4.3305,4.3305,4.3305,4.3305,4.3305,4.3305,4.306,4.2551,4.1931,4.1235,4.0561,3.9888,3.9514,3.9388,3.9388,3.9388,3.9388,3.9388,3.9388,3.9388,3.9388,3.9388,3.9388,3.9388,3.9418,3.9418,3.9448,3.9508,3.9538,3.9568,3.9463,3.9478,3.9388,3.9388,3.9388,3.9388,3.9388,3.9388,3.9265,3.8922,3.8211,3.741,3.6738,3.6175,3.5507,3.5155,3.4881,3.4634,3.4397,3.4397,3.4397,3.4397,3.4397,3.4397,3.4397,3.4397,3.4397,3.4397,3.4397,3.4397,3.4397,3.4397,3.4397,3.4397,3.4397,3.4397,3.4285,3.4314,3.4217,3.3911,4.325,4.321,4.325,4.3305,4.3305,4.3305,4.3305,4.3305,4.3305,4.313,4.2955,4.321,4.309,4.2644,4.2563,4.2684,4.2563,4.192,4.185,4.1986,4.178,4.1489,4.1738,4.2286,4.2545,4.2397,4.1877,4.1531,4.1753,4.1,4.114,4.1629,4.1988,4.1879,4.0972,4.0675,4.0817,4.1421,4.1893,4.2237,4.2795,4.313,4.3305,4.3305,4.3305,4.3305,4.3305,4.3305,4.3305,4.3305,4.3305,4.3155,4.2865,4.2327,4.1737,4.1055,4.0412,3.9858,3.9553,3.9388,3.9388,3.946,3.9424,3.9424,3.9424,3.9388,3.9388,3.9424,3.9481,3.9646,3.9963,4.0053,4.0113,4.0113,4.0053,3.9783,3.9664,3.9463,3.9388,3.9388,3.9388,3.9388,3.9388,3.9388,3.9119,3.8885,3.8159,3.7782,3.7323,3.6229,3.5507,3.5237,3.495,3.4592,3.4397,3.4592,3.4522,3.4397,3.4397,3.4397,3.4397,3.4397,3.4397,3.4397,3.4397,3.4397,3.4397,3.4397,3.4397,3.4397,3.4397,3.4397,3.4356,3.4356,3.4259,4.3305,4.3305,4.3305,4.3305,4.3305,4.3305,4.3305,4.3305,4.3305,4.3305,4.3305,4.3305,4.3265,4.329,4.3423,4.3503,4.3636,4.3299,4.3046,4.3135,4.2866,4.2826,4.3041,4.3254,4.3545,4.3482,4.3096,4.2771,4.268,4.2094,4.2272,4.2911,4.3448,4.282,4.1961,4.1796,4.1879,4.24,4.2618,4.2739,4.313,4.3305,4.3305,4.3305,4.3305,4.3305,4.3305,4.3305,4.3305,4.3305,4.3305,4.3305,4.311,4.2731,4.2111,4.1414,4.0516,4.0049,3.9858,3.9809,3.9985,4.025,3.9753,3.9589,3.9625,3.9589,3.946,3.946,3.961,3.9965,4.0327,4.0447,4.0588,4.0609,4.0516,4.0247,3.9738,3.9538,3.9612,3.9597,3.9388,3.9388,3.9388,3.9388,3.9316,3.9156,3.8922,3.8627,3.8277,3.7208,3.6215,3.5936,3.5655,3.5413,3.5142,3.4991,3.484,3.4439,3.4397,3.4397,3.4397,3.4397,3.4397,3.4397,3.4397,3.4397,3.4397,3.4397,3.4397,3.4397,3.4397,3.4397,3.4397,3.4397,3.4397,4.3305,4.3305,4.3305,4.3305,4.3305,4.3305,4.3305,4.3305,4.3305,4.3305,4.3305,4.3305,4.3305,4.3329,4.3557,4.369,4.3808,4.3996,4.4073,4.4189,4.4028,4.4197,4.4236,4.4366,4.4328,4.4066,4.378,4.3412,4.3309,4.3121,4.3373,4.3723,4.3793,4.3369,4.3076,4.29,4.2955,4.2996,4.305,4.313,4.3305,4.3305,4.3305,4.3305,4.3305,4.3305,4.3305,4.3305,4.3305,4.3305,4.3305,4.3305,4.311,4.2746,4.2102,4.1265,4.0202,4.0085,4.0231,4.0305,4.0839,4.1042,4.0305,4.0146,3.9985,3.9788,3.9553,3.9717,4.0001,4.0262,4.051,4.0788,4.0978,4.1012,4.1018,4.0561,3.9903,3.9783,3.9948,3.9858,3.9544,3.9439,3.9388,3.9388,3.9448,3.9316,3.9156,3.8995,3.8612,3.824,3.7347,3.6894,3.6621,3.6385,3.6068,3.5615,3.5277,3.4909,3.4481,3.4397,3.4397,3.4397,3.4397,3.4397,3.4397,3.4397,3.4397,3.4397,3.4397,3.4397,3.4397,3.4397,3.4397,3.4397,3.4397,4.3305,4.3305,4.3305,4.3305,4.3305,4.3305,4.3305,4.3305,4.3305,4.3305,4.3305,4.3305,4.3305,4.3344,4.3611,4.3754,4.3949,4.4181,4.4358,4.4511,4.4572,4.4572,4.461,4.461,4.461,4.448,4.4236,4.4028,4.4159,4.4066,4.395,4.4151,4.3988,4.3793,4.3596,4.3384,4.3344,4.3305,4.3305,4.3305,4.3305,4.3305,4.3305,4.3305,4.3305,4.3305,4.3305,4.3305,4.3305,4.3305,4.3305,4.3305,4.326,4.3105,4.2656,4.1459,4.0651,4.0224,4.0462,4.0512,4.1042,4.19,4.136,4.0771,4.0443,4.0076,3.9788,4.0056,4.0509,4.0812,4.1015,4.1204,4.1086,4.0894,4.0943,4.0831,4.0307,4.0367,4.0502,4.0292,3.9963,3.9694,3.9612,3.9523,3.9604,3.9448,3.9352,3.9192,3.8995,3.8612,3.8337,3.7881,3.7525,3.7204,3.6621,3.6136,3.5736,3.5386,3.484,3.4397,3.4397,3.4397,3.4397,3.4397,3.4397,3.4397,3.4397,3.4397,3.4397,3.4397,3.4397,3.4397,3.4397,3.4397,3.4397,4.3305,4.3305,4.3305,4.3305,4.3305,4.3305,4.3305,4.3305,4.3305,4.3305,4.3305,4.3305,4.3305,4.3384,4.3675,4.3871,4.4026,4.4281,4.4511,4.4534,4.461,4.461,4.461,4.461,4.461,4.461,4.461,4.4442,4.461,4.4572,4.4496,4.4266,4.4104,4.3925,4.369,4.3438,4.3305,4.3305,4.3305,4.3305,4.3305,4.3305,4.3305,4.3305,4.3305,4.3305,4.3305,4.3305,4.3305,4.3305,4.3305,4.3305,4.3215,4.3075,4.2806,4.1805,4.1578,4.1352,4.1495,4.1765,4.2236,4.254,4.2381,4.1852,4.1327,4.0925,4.0566,4.0512,4.1003,4.1395,4.1529,4.1538,4.1015,4.0559,4.08,4.1078,4.104,4.107,4.0965,4.0786,4.0516,4.0187,4.0008,3.9858,3.9679,3.9478,3.9388,3.9352,3.9228,3.9031,3.8922,3.8671,3.8323,3.7994,3.7386,3.6727,3.6215,3.5669,3.484,3.4522,3.4439,3.4397,3.4397,3.4397,3.4397,3.4397,3.4397,3.4397,3.4397,3.4397,3.4397,3.4397,3.4397,3.4397,3.4397,4.3305,4.3305,4.3305,4.3305,4.3305,4.3305,4.3305,4.3305,4.3305,4.3305,4.3305,4.3305,4.3305,4.3384,4.3754,4.3964,4.4143,4.4358,4.4534,4.461,4.461,4.461,4.461,4.461,4.461,4.461,4.461,4.461,4.461,4.4572,4.4511,4.432,4.4089,4.391,4.3754,4.3463,4.3305,4.3305,4.3305,4.3305,4.3305,4.3305,4.3305,4.3305,4.3305,4.3305,4.3305,4.3305,4.3305,4.3305,4.3305,4.3305,4.3125,4.294,4.2596,4.2476,4.2332,4.2427,4.2614,4.3032,4.3507,4.3575,4.3182,4.2827,4.2366,4.1555,4.1042,4.1243,4.172,4.165,4.168,4.1616,4.1249,4.0682,4.0524,4.0831,4.1108,4.1302,4.1587,4.1354,4.1085,4.0741,4.0262,4.0098,3.9828,3.9553,3.9388,3.9388,3.9352,3.9265,3.9265,3.9228,3.8943,3.8598,3.8248,3.7591,3.6766,3.6016,3.5182,3.4564,3.4439,3.4397,3.4397,3.4397,3.4397,3.4397,3.4397,3.4397,3.4397,3.4397,3.4397,3.4397,3.4397,3.4439,3.4397,4.3305,4.3305,4.3305,4.3305,4.3305,4.3305,4.3305,4.3305,4.3305,4.3305,4.3305,4.3305,4.3305,4.3384,4.3793,4.4003,4.4104,4.4396,4.4572,4.461,4.461,4.461,4.461,4.461,4.461,4.461,4.461,4.461,4.461,4.4572,4.4572,4.4458,4.4205,4.3949,4.3871,4.3542,4.3305,4.3305,4.3305,4.3305,4.3305,4.3305,4.3305,4.3305,4.3305,4.3305,4.3305,4.3305,4.3305,4.3305,4.3305,4.3305,4.3275,4.311,4.2836,4.2625,4.3037,4.3365,4.3648,4.4168,4.4673,4.4853,4.4525,4.3984,4.3249,4.2172,4.1769,4.2109,4.2206,4.2011,4.178,4.1661,4.1388,4.0796,4.0247,4.0621,4.1048,4.1572,4.2051,4.1961,4.1707,4.1205,4.0681,4.0277,4.0008,3.9717,3.9478,3.9388,3.9388,3.9352,3.9352,3.9316,3.9352,3.9068,3.8797,3.83,3.74,3.6713,3.5963,3.5264,3.4592,3.4786,3.4978,3.4551,3.4397,3.4634,3.4716,3.4426,3.4426,3.4551,3.4439,3.4439,3.4481,3.4522,3.4439,4.3305,4.3305,4.3305,4.3305,4.3305,4.3305,4.3305,4.3305,4.3305,4.3305,4.3305,4.3305,4.3305,4.3384,4.3793,4.4003,4.4065,4.4396,4.4534,4.461,4.461,4.461,4.461,4.461,4.461,4.461,4.461,4.461,4.461,4.461,4.4572,4.4534,4.422,4.4003,4.3949,4.3581,4.3305,4.3305,4.3305,4.3305,4.3305,4.3305,4.3305,4.3305,4.3305,4.3305,4.3305,4.3305,4.3305,4.3305,4.3305,4.3305,4.3305,4.326,4.3332,4.3594,4.4044,4.449,4.4708,4.516,4.57,4.5706,4.5549,4.4843,4.481,4.3831,4.296,4.3197,4.3008,4.2839,4.2174,4.1914,4.1252,4.0616,4.02,4.0187,4.098,4.1826,4.2342,4.2731,4.2312,4.1669,4.113,4.0502,4.0187,3.9597,3.9403,3.9388,3.9388,3.9388,3.9388,3.9388,3.9388,3.9388,3.9192,3.8649,3.7962,3.7323,3.6713,3.6267,3.5762,3.5642,3.5521,3.5372,3.5291,3.5386,3.5332,3.506,3.4991,3.5155,3.4881,3.4522,3.4634,3.4758,3.4634,4.3305,4.3305,4.3305,4.3305,4.3305,4.3305,4.3305,4.3305,4.3305,4.3305,4.3305,4.3305,4.3305,4.3463,4.3793,4.391,4.4143,4.4435,4.4572,4.461,4.461,4.461,4.461,4.461,4.461,4.461,4.461,4.461,4.461,4.461,4.4572,4.4511,4.4297,4.4003,4.3871,4.3581,4.3305,4.3305,4.3305,4.3305,4.3305,4.3305,4.3305,4.3305,4.3305,4.3305,4.3305,4.3305,4.3305,4.3305,4.3305,4.3305,4.3305,4.3344,4.381,4.4159,4.4902,4.5401,4.5848,4.6421,4.65,4.6344,4.6079,4.593,4.5882,4.536,4.447,4.4123,4.3943,4.3448,4.2827,4.1948,4.1256,4.0601,4.0233,3.9948,4.0935,4.1856,4.2402,4.2946,4.2491,4.1833,4.1294,4.0681,4.0202,3.9612,3.9388,3.9388,3.9388,3.9388,3.9388,3.9388,3.9388,3.9388,3.9388,3.9046,3.8427,3.7962,3.74,3.7141,3.6855,3.6464,3.6346,3.6543,3.6503,3.6281,3.6082,3.5896,3.5856,3.5856,3.5696,3.5494,3.5534,3.5575,3.5032,4.3305,4.3305,4.3305,4.3305,4.3305,4.3305,4.3305,4.3305,4.3305,4.3305,4.3305,4.3305,4.3305,4.3329,4.3778,4.3988,4.4065,4.4381,4.4534,4.461,4.461,4.461,4.461,4.461,4.461,4.4572,4.4572,4.4572,4.4572,4.4572,4.4572,4.4572,4.4205,4.3988,4.391,4.3621,4.3344,4.3344,4.3305,4.3305,4.3305,4.3305,4.3305,4.3305,4.3305,4.3305,4.3305,4.3305,4.3305,4.3305,4.3305,4.3305,4.3305,4.3369,4.381,4.4586,4.5369,4.6016,4.6522,4.721,4.7207,4.7289,4.7023,4.6692,4.6495,4.6147,4.5592,4.5393,4.5059,4.4348,4.3571,4.2364,4.1476,4.0893,4.0398,4.0379,4.0831,4.1309,4.1773,4.1923,4.1728,4.122,4.0786,4.0352,4.0083,3.9612,3.9388,3.9388,3.9388,3.9388,3.9388,3.9388,3.9388,3.9388,3.9388,3.9388,3.8922,3.8464,3.8113,3.7857,3.7486,3.6972,3.6933,3.7396,3.7242,3.6933,3.6791,3.6727,3.6713,3.6674,3.666,3.6568,3.6582,3.6306,3.5722]}]]